[[{"header":{"parameterUnit":"m.s-1","parameterCategory":1,"la1":31.0,"la2":29.5877,"lo1":-88.7671,"lo2":-86.6584,"dy":0.0162,"dx":0.0185,"nx":115,"ny":88,"refTime":"2024-06-24T06:00:00:Z","depth":0,"parameterNumber":2,"parameterNumberName":"U-component_of_WINDS"},"data":[0.0,0.0,0.0,0.0,0.0,0.0,0.0,0.0,0.0,0.0,0.0,0.0,0.0,0.0,0.0,0.0,0.0,0.0,0.0,0.0,0.0,0.0,0.0,0.0,0.0,0.0,0.0,0.0,0.0,0.0,0.0,0.0,0.0,0.0,0.0,0.0,0.0,0.0,0.0,0.0,0.0,0.0,0.0,0.0,0.0,0.0,0.0,0.0,0.0,0.0,0.0,0.0,0.0,0.0,0.0,0.0,0.0,0.0,0.0,0.0,0.0,0.0,0.0,0.0,0.0,0.0,0.0,0.0,0.0,0.0,0.0,0.0,0.0,0.0,0.0,0.0,0.0,0.0,0.0,0.0,0.0,0.0,0.0,0.0,0.0,0.0,0.0,0.0,0.0,0.0,0.0,0.0,0.0,0.0,0.0,0.0,0.0,0.0,0.0,0.0,0.0,0.0,0.0,0.0,0.0,0.0,0.0,0.0,0.0,0.0,0.0,0.0,0.0,0.0,0.0,0.0,0.0,0.0,0.0,0.0,0.0,0.0,0.0,0.0,0.0,0.0,0.0,0.0,0.0,0.0,0.0,0.0,0.0,0.0,0.0,0.0,0.0,0.0,0.0,0.0,0.0,0.0,0.0,0.0,0.0,0.0,0.0,0.0,0.0,0.0,0.0,0.0,0.0,0.0,0.0,0.0,0.0,0.0,0.0,0.0,0.0,0.0,0.0,0.0,0.0,0.0,0.0,0.0,0.0,0.0,0.0,0.0,0.0,0.0,0.0,0.0,0.0,0.0,0.0,0.0,0.0,0.0,0.0,0.0,0.0,0.0,0.0,0.0,0.0,0.0,0.0,0.0,0.0,0.0,0.0,0.0,0.0,0.0,0.0,0.0,0.0,0.0,0.0,0.0,0.0,0.0,0.0,0.0,0.0,0.0,0.0,0.0,0.0,0.0,0.0,0.0,0.0,0.0,0.0,0.0,0.0,0.0,0.0,0.0,0.0,0.0,0.0,0.0,0.0,0.0,0.0,0.0,0.0,0.0,0.0,0.0,0.0,0.0,0.0,0.0,0.0,0.0,0.0,0.0,0.0,0.0,0.0,0.0,0.0,0.0,0.0,0.0,0.0,0.0,0.0,0.0,0.0,0.0,0.0,0.0,0.0,0.0,0.0,0.0,0.0,0.0,0.0,0.0,0.0,0.0,0.0,0.0,0.0,0.0,0.0,0.0,0.0,0.0,0.0,0.0,0.0,0.0,0.0,0.0,0.0,0.0,0.0,0.0,0.0,0.0,0.0,0.0,0.0,0.0,0.0,0.0,0.0,0.0,0.0,0.0,0.0,0.0,0.0,0.0,0.0,0.0,0.0,0.0,0.0,0.0,0.0,0.0,0.0,0.0,0.0,0.0,0.0,0.0,0.0,0.0,0.0,0.0,0.0,0.0,0.0,0.0,0.0,0.0,0.0,0.0,0.0,0.0,0.0,0.0,0.0,0.0,0.0,0.0,0.0,0.0,0.0,0.0,0.0,0.0,0.0,0.0,0.0,0.0,0.0,0.0,0.0,0.0,0.0,0.0,0.0,0.0,0.0,0.0,0.0,0.0,0.0,0.0,0.0,0.0,0.0,0.0,0.0,0.0,0.0,0.0,0.0,0.0,0.0,0.0,0.0,0.0,0.0,0.0,0.0,0.0,0.0,0.0,0.0,0.0,0.0,0.0,0.0,0.0,0.0,0.0,0.0,0.0,0.0,0.0,0.0,0.0,0.0,0.0,0.0,0.0,0.0,0.0,0.0,0.0,0.0,0.0,0.0,0.0,0.0,0.0,0.0,0.0,0.0,0.0,0.0,0.0,0.0,0.0,0.0,0.0,0.0,0.0,0.0,0.0,0.0,0.0,0.0,0.0,0.0,0.0,0.0,0.0,0.0,0.0,0.0,0.0,0.0,0.0,0.0,0.0,0.0,0.0,0.0,0.0,0.0,0.0,0.0,0.0,0.0,0.0,0.0,0.0,0.0,0.0,0.0,0.0,0.0,0.0,0.0,0.0,0.0,0.0,0.0,0.0,0.0,0.0,0.0,0.0,0.0,0.0,0.0,0.0,0.0,0.0,0.0,0.0,0.0,0.0,0.0,0.0,0.0,0.0,0.0,0.0,0.0,0.0,0.0,0.0,0.0,0.0,0.0,0.0,0.0,0.0,0.0,0.0,0.0,0.0,0.0,0.0,0.0,0.0,0.0,0.0,0.0,0.0,0.0,0.0,0.0,0.0,0.0,0.0,0.0,0.0,0.0,0.0,0.0,0.0,0.0,0.0,0.0,0.0,0.0,0.0,0.0,0.0,0.0,0.0,0.0,0.0,0.0,0.0,0.0,0.0,0.0,0.0,0.0,0.0,0.0,0.0,0.0,0.0,0.0,0.0,0.0,0.0,0.0,0.0,0.0,0.0,0.0,0.0,0.0,0.0,0.0,0.0,0.0,0.0,0.0,0.0,0.0,0.0,0.0,0.0,0.0,0.0,0.0,0.0,0.0,0.0,0.0,0.0,0.0,0.0,0.0,0.0,0.0,0.0,0.0,0.0,0.0,0.0,0.0,0.0,0.0,0.0,0.0,0.0,0.0,0.0,0.0,0.0,0.0,0.0,0.0,0.0,0.0,0.0,0.0,0.0,0.0,0.0,0.0,0.0,0.0,0.0,0.0,0.0,0.0,0.0,0.0,0.0,0.0,0.0,0.0,0.0,0.0,0.0,0.0,0.0,0.0,0.0,0.0,0.0,0.0,0.0,0.0,0.0,0.0,0.0,0.0,0.0,0.0,0.0,0.0,0.0,0.0,0.0,0.0,0.0,0.0,0.0,0.0,0.0,0.0,0.0,0.0,0.0,0.0,0.0,0.0,0.0,0.0,0.0,0.0,0.0,0.0,0.0,0.0,0.0,0.0,0.0,0.0,0.0,0.0,0.0,0.0,0.0,0.0,0.0,0.0,0.0,0.0,0.0,0.0,0.0,0.0,0.0,0.0,0.0,0.0,0.0,0.0,0.0,0.0,0.0,0.0,0.0,0.0,0.0,0.0,0.0,0.0,0.0,0.0,0.0,0.0,0.0,0.0,0.0,0.0,0.0,0.0,0.0,0.0,0.0,0.0,0.0,0.0,0.0,0.0,0.0,0.0,0.0,0.0,0.0,0.0,0.0,0.0,0.0,0.0,0.0,0.0,0.0,0.0,0.0,0.0,0.0,0.0,0.0,0.0,0.0,0.0,0.0,0.0,0.0,0.0,0.0,0.0,0.0,0.0,0.0,0.0,0.0,0.0,0.0,0.0,0.0,0.0,0.0,0.0,0.0,0.0,0.0,0.0,0.0,0.0,0.0,0.0,0.0,0.0,0.0,0.0,0.0,0.0,0.0,0.0,0.0,0.0,0.0,0.0,0.0,0.0,0.0,0.0,0.0,0.0,0.0,0.0,0.0,0.0,0.0,0.0,0.0,0.0,0.0,0.0,0.0,0.0,0.0,0.0,0.0,0.0,0.0,0.0,0.0,0.0,0.0,0.0,0.0,0.0,0.0,0.0,0.0,0.0,0.0,0.0,0.0,0.0,0.0,0.0,0.0,0.0,0.0,0.0,0.0,0.0,0.0,0.0,0.0,0.0,0.0,0.0,0.0,0.0,0.0,0.0,0.0,0.0,0.0,0.0,0.0,0.0,0.0,0.0,0.0,0.0,0.0,0.0,0.0,0.0,0.0,0.0,0.0,0.0,0.0,0.0,0.0,0.0,0.0,0.0,0.0,0.0,0.0,0.0,0.0,0.0,0.0,0.0,0.0,0.0,0.0,0.0,0.0,0.0,0.0,0.0,0.0,0.0,0.0,0.0,0.0,0.0,0.0,0.0,0.0,0.0,0.0,0.0,0.0,0.0,0.0,0.0,0.0,0.0,0.0,0.0,0.0,0.0,0.0,0.0,0.0,0.0,0.0,0.0,0.0,0.0,0.0,0.0,0.0,0.0,0.0,0.0,0.0,0.0,0.0,0.0,0.0,0.0,0.0,0.0,0.0,0.0,0.0,0.0,0.0,0.0,0.0,0.0,0.0,0.0,0.0,0.0,0.0,0.0,0.0,0.0,0.0,0.0,0.0,0.0,0.0,0.0,0.0,0.0,0.0,0.0,0.0,0.0,0.0,0.0,0.0,0.0,0.0,0.0,0.0,0.0,0.0,0.0,0.0,0.0,0.0,0.0,0.0,0.0,0.0,0.0,0.0,0.0,0.0,0.0,0.0,0.0,0.0,0.0,0.0,-1.0692,0.0,0.0,0.0,0.0,0.0,0.0,0.0,0.0,0.0,0.0,0.0,0.0,0.0,0.0,0.0,0.0,0.0,0.0,0.0,0.0,0.0,0.0,0.0,0.0,0.0,0.0,0.0,0.0,0.0,0.0,0.0,0.0,0.0,0.0,0.0,0.0,0.0,0.0,0.0,0.0,0.0,0.0,0.0,0.0,0.0,0.0,0.0,0.0,0.0,0.0,0.0,0.0,0.0,0.0,0.0,0.0,0.0,0.0,0.0,0.0,0.0,0.0,0.0,0.0,0.0,0.0,0.0,0.0,0.0,0.0,0.0,0.0,0.0,0.0,0.0,0.0,0.0,0.0,0.0,0.0,0.0,0.0,0.0,0.0,0.0,0.0,0.0,0.0,0.0,0.0,0.0,0.0,0.0,0.0,0.0,0.0,0.0,0.0,0.0,0.0,0.0,0.0,0.0,0.0,0.0,0.0,0.0,0.0,0.0,0.0,-1.1522,-1.1522,-1.1555,-1.1566,-1.1555,0.0,0.0,0.0,0.0,0.0,0.0,0.0,0.0,0.0,0.0,0.0,0.0,0.0,0.0,0.0,0.0,0.0,0.0,0.0,0.0,0.0,0.0,0.0,0.0,0.0,0.0,0.0,0.0,0.0,0.0,0.0,0.0,0.0,0.0,0.0,0.0,0.0,0.0,0.0,0.0,0.0,0.0,0.0,0.0,0.0,0.0,0.0,0.0,0.0,0.0,0.0,0.0,0.0,0.0,0.0,0.0,0.0,0.0,0.0,0.0,0.0,0.0,0.0,0.0,0.0,0.0,0.0,0.0,0.0,0.0,0.0,0.0,0.0,0.0,0.0,0.0,0.0,0.0,0.0,0.0,0.0,0.0,0.0,0.0,0.0,0.0,0.0,0.0,0.0,0.0,0.0,0.0,0.0,0.0,0.0,0.0,0.0,0.0,0.0,0.0,0.0,0.0,0.0,0.0,0.0,0.0,0.0,0.0,0.0,0.0,0.0,0.0,-1.2149,-1.228,-1.2131,0.0,0.0,0.0,0.0,0.0,0.0,0.0,0.0,0.0,0.0,0.0,0.0,0.0,0.0,0.0,0.0,0.0,0.0,0.0,0.0,0.0,0.0,0.0,0.0,0.0,0.0,0.0,0.0,0.0,0.0,0.0,0.0,0.0,0.0,0.0,0.0,0.0,0.0,0.0,0.0,0.0,0.0,0.0,0.0,0.0,0.0,0.0,0.0,0.0,0.0,0.0,0.0,0.0,0.0,0.0,0.0,0.0,0.0,0.0,0.0,0.0,0.0,0.0,0.0,0.0,0.0,0.0,0.0,0.0,0.0,0.0,0.0,0.0,0.0,0.0,0.0,0.0,0.0,0.0,0.0,0.0,0.0,0.0,0.0,0.0,0.0,0.0,0.0,0.0,0.0,0.0,0.0,0.0,0.0,0.0,0.0,0.0,0.0,0.0,0.0,0.0,0.0,0.0,0.0,0.0,0.0,0.0,0.0,0.0,0.0,-1.2352,-1.2748,-1.273,0.0,-1.1965,0.0,0.0,0.0,0.0,0.0,0.0,0.0,0.0,0.0,0.0,0.0,0.0,0.0,0.0,0.0,0.0,0.0,0.0,0.0,0.0,0.0,0.0,0.0,0.0,0.0,0.0,0.0,0.0,0.0,0.0,0.0,0.0,0.0,0.0,0.0,0.0,0.0,0.0,0.0,0.0,0.0,0.0,0.0,0.0,0.0,0.0,0.0,0.0,0.0,0.0,0.0,0.0,0.0,0.0,0.0,0.0,0.0,0.0,0.0,0.0,0.0,0.0,0.0,0.0,0.0,0.0,0.0,0.0,0.0,0.0,0.0,0.0,0.0,0.0,0.0,0.0,0.0,0.0,0.0,0.0,0.0,0.0,0.0,0.0,0.0,0.0,0.0,0.0,0.0,0.0,0.0,0.0,0.0,0.0,0.0,0.0,0.0,0.0,0.0,0.0,0.0,0.0,0.0,0.0,0.0,0.0,0.0,0.0,0.0,0.0,0.0,-1.2976,-1.3141,-1.2843,0.0,0.0,0.0,0.0,0.0,0.0,0.0,0.0,0.0,0.0,0.0,0.0,0.0,0.0,0.0,0.0,0.0,0.0,0.0,0.0,0.0,0.0,0.0,0.0,0.0,0.0,0.0,0.0,0.0,0.0,0.0,0.0,0.0,0.0,0.0,0.0,0.0,0.0,0.0,0.0,0.0,0.0,0.0,0.0,0.0,0.0,0.0,0.0,0.0,0.0,0.0,0.0,0.0,0.0,0.0,0.0,0.0,0.0,0.0,0.0,0.0,0.0,0.0,0.0,0.0,0.0,0.0,0.0,0.0,0.0,0.0,0.0,0.0,0.0,0.0,0.0,0.0,0.0,0.0,0.0,0.0,0.0,0.0,0.0,0.0,0.0,0.0,0.0,0.0,0.0,0.0,0.0,0.0,0.0,0.0,0.0,0.0,0.0,0.0,0.0,0.0,0.0,0.0,0.0,0.0,0.0,0.0,0.0,0.0,0.0,-1.2366,0.0,-1.2976,-1.3236,-1.2884,-1.1982,0.0,0.0,0.0,0.0,0.0,0.0,0.0,0.0,0.0,0.0,0.0,0.0,0.0,0.0,0.0,0.0,0.0,0.0,0.0,0.0,0.0,0.0,0.0,0.0,0.0,0.0,0.0,0.0,0.0,0.0,0.0,0.0,0.0,0.0,0.0,0.0,0.0,0.0,0.0,0.0,0.0,0.0,0.0,0.0,0.0,0.0,0.0,0.0,0.0,0.0,0.0,0.0,0.0,0.0,0.0,0.0,0.0,0.0,0.0,0.0,0.0,0.0,0.0,0.0,0.0,0.0,0.0,0.0,0.0,0.0,0.0,0.0,0.0,0.0,0.0,0.0,0.0,0.0,0.0,0.0,0.0,0.0,0.0,0.0,0.0,0.0,0.0,0.0,0.0,0.0,0.0,0.0,0.0,0.0,0.0,0.0,0.0,0.0,0.0,0.0,0.0,0.0,0.0,0.0,0.0,0.0,0.0,0.0,0.0,-1.1844,-1.2298,-1.2976,-1.3006,-1.2421,0.0,0.0,0.0,0.0,0.0,0.0,0.0,0.0,0.0,0.0,0.0,0.0,0.0,0.0,0.0,0.0,0.0,0.0,0.0,0.0,0.0,0.0,0.0,0.0,0.0,0.0,0.0,0.0,0.0,0.0,0.0,0.0,0.0,0.0,0.0,0.0,0.0,0.0,0.0,0.0,0.0,0.0,0.0,0.0,0.0,0.0,0.0,0.0,0.0,0.0,0.0,0.0,0.0,0.0,0.0,0.0,0.0,0.0,0.0,0.0,0.0,0.0,0.0,0.0,0.0,0.0,0.0,0.0,0.0,0.0,0.0,0.0,0.0,0.0,0.0,0.0,0.0,0.0,0.0,0.0,0.0,0.0,0.0,0.0,0.0,0.0,0.0,0.0,0.0,0.0,0.0,0.0,0.0,0.0,0.0,0.0,0.0,0.0,0.0,0.0,0.0,0.0,0.0,0.0,0.0,0.0,0.0,0.0,0.0,-1.1416,-1.2326,-1.3076,0.0,-1.2986,-1.2061,0.0,0.0,0.0,0.0,0.0,0.0,0.0,0.0,0.0,0.0,0.0,0.0,0.0,0.0,0.0,0.0,0.0,0.0,0.0,0.0,0.0,0.0,0.0,0.0,0.0,0.0,0.0,0.0,0.0,0.0,0.0,0.0,0.0,0.0,0.0,0.0,0.0,0.0,0.0,0.0,0.0,0.0,0.0,0.0,0.0,0.0,0.0,0.0,0.0,0.0,0.0,0.0,0.0,0.0,0.0,0.0,0.0,0.0,0.0,0.0,0.0,0.0,0.0,0.0,0.0,0.0,0.0,0.0,0.0,0.0,0.0,0.0,0.0,0.0,0.0,0.0,0.0,0.0,0.0,0.0,0.0,0.0,0.0,0.0,0.0,0.0,0.0,0.0,0.0,0.0,0.0,0.0,0.0,0.0,0.0,0.0,0.0,0.0,0.0,0.0,0.0,0.0,0.0,0.0,0.0,0.0,0.0,0.0,0.0,-1.1591,0.0,-1.3361,0.0,-1.2861,-1.1921,0.0,0.0,0.0,0.0,0.0,0.0,0.0,0.0,0.0,0.0,0.0,0.0,0.0,0.0,0.0,0.0,0.0,0.0,0.0,0.0,0.0,0.0,0.0,0.0,0.0,0.0,0.0,0.0,0.0,0.0,0.0,0.0,0.0,0.0,0.0,0.0,0.0,0.0,0.0,0.0,0.0,0.0,0.0,0.0,0.0,0.0,0.0,0.0,0.0,0.0,0.0,0.0,0.0,0.0,0.0,0.0,0.0,0.0,0.0,0.0,0.0,0.0,0.0,0.0,0.0,0.0,0.0,0.0,0.0,0.0,0.0,0.0,0.0,0.0,0.0,0.0,0.0,0.0,0.0,0.0,0.0,0.0,0.0,0.0,0.0,0.0,0.0,0.0,0.0,0.0,0.0,0.0,0.0,0.0,0.0,0.0,0.0,0.0,0.0,0.0,0.0,0.0,0.0,0.0,0.0,0.0,0.0,0.0,-1.0902,-1.2067,-1.2883,-1.3184,-1.277,-1.2733,-1.196,0.0,0.0,0.0,0.0,0.0,0.0,0.0,0.0,0.0,0.0,0.0,0.0,0.0,0.0,0.0,0.0,0.0,0.0,0.0,0.0,0.0,0.0,0.0,0.0,0.0,0.0,0.0,0.0,0.0,0.0,0.0,0.0,0.0,0.0,0.0,0.0,0.0,0.0,0.0,0.0,0.0,0.0,0.0,0.0,0.0,0.0,0.0,0.0,0.0,0.0,0.0,0.0,0.0,0.0,0.0,0.0,0.0,0.0,0.0,0.0,0.0,0.0,0.0,0.0,0.0,0.0,0.0,0.0,0.0,0.0,0.0,0.0,0.0,0.0,0.0,0.0,0.0,0.0,0.0,0.0,0.0,0.0,0.0,0.0,0.0,0.0,0.0,0.0,0.0,0.0,0.0,0.0,0.0,0.0,0.0,0.0,0.0,0.0,0.0,0.0,0.0,0.0,0.0,0.0,0.0,0.0,0.0,0.0,0.0,-1.3177,-1.3385,-1.365,-1.391,-1.3058,-1.194,0.0,0.0,0.0,0.0,0.0,0.0,0.0,0.0,0.0,0.0,0.0,0.0,0.0,0.0,0.0,0.0,0.0,0.0,0.0,0.0,0.0,0.0,0.0,0.0,0.0,0.0,0.0,0.0,0.0,0.0,0.0,0.0,0.0,0.0,0.0,0.0,0.0,0.0,0.0,0.0,0.0,0.0,0.0,0.0,0.0,0.0,0.0,0.0,0.0,0.0,0.0,0.0,0.0,0.0,0.0,0.0,0.0,0.0,0.0,0.0,0.0,0.0,0.0,0.0,0.0,0.0,0.0,0.0,0.0,0.0,0.0,0.0,0.0,0.0,0.0,0.0,0.0,0.0,0.0,0.0,0.0,0.0,0.0,0.0,0.0,0.0,0.0,0.0,0.0,0.0,0.0,0.0,0.0,0.0,0.0,0.0,0.0,0.0,0.0,0.0,0.0,0.0,0.0,0.0,0.0,0.0,0.0,0.0,0.0,-1.4267,-1.4252,-1.449,-1.4946,-1.3932,-1.2769,-1.1438,0.0,0.0,0.0,0.0,0.0,0.0,0.0,0.0,0.0,0.0,0.0,0.0,0.0,0.0,0.0,0.0,0.0,0.0,0.0,0.0,0.0,0.0,0.0,0.0,0.0,0.0,0.0,0.0,0.0,0.0,0.0,0.0,0.0,0.0,0.0,0.0,0.0,0.0,0.0,0.0,0.0,0.0,0.0,0.0,0.0,0.0,0.0,0.0,0.0,0.0,0.0,0.0,0.0,0.0,0.0,0.0,0.0,0.0,0.0,0.0,0.0,0.0,0.0,0.0,0.0,0.0,0.0,0.0,0.0,0.0,0.0,0.0,0.0,0.0,0.0,0.0,0.0,0.0,0.0,0.0,0.0,0.0,0.0,0.0,0.0,0.0,0.0,0.0,0.0,0.0,0.0,0.0,0.0,0.0,0.0,0.0,0.0,0.0,0.0,0.0,0.0,0.0,0.0,0.0,0.0,0.0,0.0,0.0,-1.5408,-1.548,-1.5611,-1.5744,-1.5214,-1.4191,0.0,0.0,0.0,0.0,0.0,0.0,0.0,0.0,0.0,0.0,0.0,0.0,0.0,0.0,0.0,0.0,0.0,0.0,0.0,0.0,0.0,0.0,0.0,0.0,0.0,0.0,0.0,0.0,0.0,0.0,0.0,0.0,0.0,0.0,0.0,0.0,0.0,0.0,0.0,0.0,0.0,0.0,0.0,0.0,0.0,0.0,0.0,0.0,0.0,0.0,0.0,0.0,0.0,0.0,0.0,0.0,0.0,0.0,0.0,0.0,0.0,0.0,0.0,0.0,0.0,0.0,0.0,0.0,0.0,0.0,0.0,0.0,0.0,0.0,0.0,0.0,0.0,0.0,0.0,0.0,0.0,0.0,0.0,0.0,0.0,0.0,0.0,0.0,0.0,0.0,0.0,0.0,0.0,0.0,0.0,0.0,0.0,0.0,0.0,0.0,0.0,0.0,0.0,0.0,0.0,0.0,0.0,0.0,0.0,-1.6604,-1.7318,-1.7284,-1.6633,-1.5704,-1.4468,0.0,0.0,0.0,0.0,0.0,0.0,0.0,0.0,0.0,0.0,0.0,0.0,0.0,0.0,0.0,0.0,0.0,0.0,0.0,0.0,0.0,0.0,0.0,0.0,0.0,0.0,0.0,0.0,0.0,0.0,0.0,0.0,0.0,0.0,0.0,0.0,0.0,0.0,0.0,0.0,0.0,0.0,0.0,0.0,0.0,0.0,0.0,0.0,0.0,0.0,0.0,0.0,0.0,0.0,0.0,0.0,0.0,0.0,0.0,0.0,0.0,0.0,0.0,0.0,0.0,0.0,0.0,0.0,0.0,0.0,0.0,0.0,0.0,0.0,0.0,0.0,0.0,0.0,0.0,0.0,0.0,0.0,0.0,0.0,0.0,0.0,0.0,0.0,0.0,0.0,0.0,0.0,0.0,0.0,0.0,0.0,0.0,0.0,0.0,0.0,0.0,0.0,0.0,0.0,0.0,0.0,0.0,0.0,-1.5687,-1.7186,-1.8355,-1.8585,-1.7649,-1.6634,-1.5354,0.0,0.0,0.0,0.0,0.0,0.0,0.0,0.0,0.0,0.0,0.0,0.0,0.0,0.0,0.0,0.0,0.0,0.0,0.0,0.0,0.0,0.0,0.0,0.0,0.0,0.0,0.0,0.0,0.0,0.0,0.0,0.0,0.0,0.0,0.0,0.0,0.0,0.0,0.0,0.0,0.0,0.0,0.0,0.0,0.0,0.0,0.0,0.0,0.0,0.0,0.0,0.0,0.0,0.0,0.0,0.0,0.0,0.0,0.0,0.0,0.0,0.0,0.0,0.0,0.0,0.0,0.0,0.0,0.0,0.0,0.0,0.0,0.0,0.0,0.0,0.0,0.0,0.0,0.0,0.0,0.0,0.0,0.0,0.0,0.0,0.0,0.0,0.0,0.0,0.0,0.0,0.0,0.0,0.0,0.0,0.0,0.0,0.0,0.0,0.0,0.0,0.0,0.0,0.0,0.0,0.0,0.0,0.0,-1.646,-1.7301,-1.8897,-1.941,-1.8626,-1.7674,-1.648,0.0,0.0,0.0,0.0,0.0,0.0,0.0,0.0,0.0,0.0,0.0,0.0,0.0,0.0,0.0,0.0,0.0,0.0,0.0,0.0,0.0,0.0,0.0,0.0,0.0,0.0,0.0,0.0,0.0,0.0,0.0,0.0,0.0,0.0,0.0,0.0,0.0,0.0,0.0,0.0,0.0,0.0,0.0,0.0,0.0,0.0,0.0,0.0,0.0,0.0,0.0,0.0,0.0,0.0,0.0,0.0,0.0,0.0,0.0,0.0,0.0,0.0,0.0,0.0,0.0,0.0,0.0,0.0,0.0,0.0,0.0,0.0,0.0,0.0,0.0,0.0,0.0,0.0,0.0,0.0,0.0,0.0,0.0,0.0,0.0,0.0,0.0,0.0,0.0,0.0,0.0,0.0,0.0,0.0,0.0,0.0,0.0,0.0,0.0,0.0,0.0,0.0,0.0,0.0,0.0,0.0,0.0,0.0,-1.6421,-1.7729,-1.8707,-1.9092,-1.8933,-1.7766,-1.648,0.0,0.0,0.0,0.0,0.0,0.0,0.0,0.0,0.0,0.0,0.0,0.0,0.0,0.0,0.0,0.0,0.0,0.0,0.0,0.0,0.0,0.0,0.0,0.0,0.0,0.0,0.0,0.0,0.0,0.0,0.0,0.0,0.0,0.0,0.0,0.0,0.0,0.0,0.0,0.0,0.0,0.0,0.0,0.0,0.0,0.0,0.0,0.0,-0.842,0.0,0.0,0.0,0.0,0.0,0.0,0.0,0.0,0.0,0.0,0.0,0.0,0.0,0.0,0.0,0.0,0.0,0.0,0.0,0.0,0.0,0.0,0.0,0.0,0.0,0.0,0.0,0.0,0.0,0.0,0.0,0.0,0.0,0.0,0.0,0.0,0.0,0.0,0.0,0.0,0.0,0.0,0.0,0.0,0.0,0.0,0.0,0.0,0.0,0.0,0.0,0.0,0.0,0.0,0.0,0.0,0.0,0.0,0.0,-1.649,-1.7576,-1.8547,-1.9011,-1.8799,-1.7828,-1.674,0.0,0.0,0.0,0.0,0.0,0.0,0.0,0.0,0.0,0.0,0.0,0.0,0.0,0.0,0.0,0.0,0.0,0.0,0.0,0.0,0.0,0.0,0.0,0.0,0.0,0.0,0.0,0.0,0.0,0.0,0.0,0.0,0.0,0.0,0.0,0.0,0.0,0.0,0.0,0.0,0.0,0.0,0.0,0.0,0.0,0.0,0.0,0.0,0.0,0.0,0.0,0.0,0.0,0.0,0.0,0.0,0.0,0.0,0.0,0.0,0.0,0.0,0.0,0.0,0.0,0.0,0.0,0.0,0.0,0.0,0.0,0.0,0.0,0.0,0.0,0.0,0.0,0.0,0.0,0.0,0.0,0.0,0.0,0.0,0.0,0.0,0.0,0.0,0.0,0.0,0.0,0.0,0.0,0.0,0.0,0.0,0.0,0.0,0.0,0.0,0.0,0.0,0.0,0.0,0.0,0.0,0.0,-1.4906,-1.6374,-1.7079,-1.8303,-1.8744,-1.8393,-1.7624,-1.6689,-1.57,0.0,0.0,0.0,0.0,0.0,0.0,0.0,0.0,0.0,0.0,0.0,0.0,0.0,0.0,0.0,0.0,0.0,0.0,0.0,0.0,0.0,0.0,0.0,0.0,0.0,0.0,0.0,0.0,0.0,0.0,0.0,0.0,0.0,0.0,0.0,0.0,0.0,0.0,-0.9361,-0.9925,0.0,0.0,0.0,0.0,0.0,0.0,0.0,0.0,-0.9079,0.0,0.0,0.0,0.0,0.0,0.0,0.0,0.0,0.0,0.0,0.0,0.0,0.0,0.0,0.0,0.0,0.0,0.0,0.0,0.0,0.0,0.0,0.0,0.0,0.0,0.0,0.0,0.0,0.0,0.0,0.0,0.0,0.0,0.0,0.0,0.0,0.0,0.0,0.0,0.0,0.0,0.0,0.0,0.0,0.0,0.0,0.0,0.0,0.0,0.0,0.0,0.0,0.0,0.0,0.0,0.0,-1.2371,-1.4418,-1.5888,-1.6543,-1.7241,-1.755,-1.7394,-1.6691,-1.5628,-1.4455,0.0,0.0,0.0,0.0,0.0,0.0,0.0,0.0,0.0,0.0,0.0,0.0,0.0,0.0,0.0,0.0,0.0,0.0,0.0,0.0,0.0,0.0,0.0,0.0,0.0,0.0,0.0,0.0,0.0,0.0,0.0,0.0,0.0,0.0,0.0,0.0,0.0,0.0,0.0,-0.9959,-1.0229,0.0,0.0,0.0,0.0,0.0,0.0,0.0,0.0,-0.8955,0.0,0.0,0.0,0.0,0.0,0.0,0.0,0.0,0.0,0.0,0.0,0.0,0.0,0.0,0.0,0.0,0.0,0.0,0.0,0.0,0.0,0.0,0.0,0.0,0.0,0.0,0.0,0.0,0.0,0.0,0.0,0.0,0.0,0.0,0.0,0.0,0.0,0.0,0.0,0.0,0.0,0.0,0.0,0.0,0.0,0.0,0.0,0.0,0.0,0.0,0.0,0.0,0.0,0.0,0.0,-1.1949,-1.3801,-1.5119,-1.5972,-1.6629,-1.6908,-1.6857,-1.6085,-1.5113,0.0,0.0,0.0,0.0,0.0,0.0,0.0,0.0,0.0,0.0,0.0,0.0,0.0,0.0,0.0,0.0,0.0,0.0,0.0,0.0,0.0,0.0,0.0,0.0,0.0,0.0,0.0,0.0,0.0,0.0,0.0,0.0,0.0,0.0,0.0,0.0,0.0,0.0,0.0,0.0,-1.0207,-1.0424,-1.0575,0.0,0.0,0.0,0.0,0.0,0.0,-0.9569,-0.9339,0.0,0.0,0.0,0.0,0.0,0.0,0.0,0.0,0.0,0.0,0.0,0.0,0.0,0.0,0.0,0.0,0.0,0.0,0.0,0.0,0.0,0.0,0.0,0.0,0.0,0.0,0.0,0.0,0.0,0.0,0.0,0.0,0.0,0.0,0.0,0.0,0.0,0.0,0.0,0.0,0.0,0.0,0.0,0.0,0.0,0.0,0.0,0.0,0.0,0.0,0.0,0.0,0.0,0.0,0.0,-1.1598,-1.3259,-1.4482,-1.5463,-1.6053,-1.622,-1.6134,-1.5447,-1.4489,0.0,0.0,0.0,0.0,0.0,0.0,0.0,0.0,0.0,0.0,0.0,0.0,0.0,0.0,0.0,0.0,0.0,0.0,0.0,0.0,0.0,0.0,0.0,0.0,0.0,0.0,0.0,0.0,0.0,0.0,0.0,0.0,0.0,0.0,0.0,0.0,0.0,0.0,0.0,0.0,0.0,-1.0835,-1.1256,-1.0987,0.0,0.0,0.0,0.0,-1.0497,-1.0198,0.0,0.0,0.0,0.0,0.0,0.0,0.0,0.0,0.0,0.0,0.0,0.0,0.0,0.0,0.0,0.0,0.0,0.0,0.0,0.0,0.0,0.0,0.0,0.0,0.0,0.0,0.0,0.0,0.0,0.0,0.0,0.0,0.0,0.0,0.0,0.0,0.0,0.0,0.0,0.0,0.0,0.0,0.0,0.0,0.0,0.0,0.0,0.0,0.0,0.0,0.0,0.0,0.0,0.0,0.0,0.0,-1.1675,-1.3054,-1.4142,-1.4731,-1.5126,-1.5104,-1.4837,-1.4223,-1.3107,0.0,0.0,0.0,0.0,0.0,0.0,0.0,0.0,0.0,0.0,0.0,0.0,0.0,0.0,0.0,0.0,0.0,0.0,0.0,0.0,0.0,0.0,0.0,0.0,0.0,0.0,0.0,0.0,0.0,0.0,0.0,0.0,0.0,0.0,0.0,0.0,0.0,0.0,0.0,0.0,0.0,-1.1306,-1.1794,-1.151,-1.1334,0.0,0.0,-1.1005,-1.1057,-1.0748,0.0,0.0,0.0,0.0,0.0,0.0,0.0,0.0,0.0,0.0,0.0,0.0,0.0,0.0,0.0,0.0,0.0,0.0,0.0,0.0,0.0,0.0,0.0,0.0,0.0,0.0,0.0,0.0,0.0,0.0,0.0,0.0,0.0,0.0,0.0,0.0,0.0,0.0,0.0,0.0,0.0,0.0,0.0,0.0,0.0,0.0,0.0,0.0,0.0,0.0,0.0,0.0,0.0,0.0,0.0,-0.9994,-1.1563,-1.2776,-1.3808,-1.4584,-1.4823,-1.4709,-1.4424,-1.3857,-1.2769,0.0,0.0,0.0,0.0,0.0,0.0,0.0,0.0,0.0,0.0,0.0,0.0,0.0,0.0,0.0,0.0,0.0,0.0,0.0,0.0,0.0,0.0,0.0,0.0,0.0,0.0,0.0,0.0,0.0,0.0,0.0,0.0,0.0,0.0,0.0,0.0,0.0,0.0,0.0,0.0,0.0,0.0,-1.217,-1.2044,0.0,0.0,0.0,-1.1778,-1.1976,0.0,0.0,0.0,0.0,0.0,0.0,0.0,0.0,0.0,0.0,0.0,0.0,0.0,0.0,0.0,0.0,0.0,0.0,0.0,0.0,0.0,0.0,0.0,0.0,0.0,0.0,0.0,0.0,0.0,0.0,0.0,0.0,0.0,0.0,0.0,0.0,0.0,0.0,0.0,0.0,0.0,0.0,0.0,0.0,0.0,0.0,0.0,0.0,0.0,0.0,0.0,0.0,0.0,0.0,0.0,0.0,0.0,-1.1606,-1.2681,-1.3665,-1.4561,-1.4586,-1.4421,-1.4057,-1.351,0.0,0.0,0.0,0.0,0.0,0.0,0.0,0.0,0.0,0.0,0.0,0.0,0.0,0.0,0.0,0.0,0.0,0.0,0.0,0.0,0.0,0.0,0.0,0.0,0.0,0.0,0.0,-0.585,0.0,0.0,0.0,0.0,0.0,0.0,0.0,0.0,0.0,0.0,0.0,0.0,0.0,0.0,-1.1971,-1.27,-1.2844,-1.2901,0.0,0.0,-1.256,-1.2825,-1.2413,-1.1872,0.0,0.0,0.0,0.0,0.0,0.0,0.0,0.0,0.0,0.0,0.0,0.0,0.0,0.0,0.0,0.0,0.0,0.0,0.0,0.0,0.0,0.0,0.0,0.0,0.0,0.0,0.0,0.0,0.0,0.0,0.0,0.0,0.0,0.0,0.0,0.0,0.0,0.0,0.0,0.0,0.0,0.0,0.0,0.0,0.0,0.0,0.0,0.0,0.0,0.0,0.0,0.0,0.0,0.0,0.0,-1.186,-1.2946,-1.3749,-1.4274,-1.4298,-1.4051,-1.3525,-1.2988,-1.2158,0.0,0.0,0.0,0.0,0.0,0.0,0.0,0.0,0.0,0.0,0.0,0.0,0.0,0.0,0.0,0.0,0.0,0.0,0.0,0.0,0.0,0.0,0.0,0.0,0.0,0.0,0.0,0.0,0.0,0.0,0.0,0.0,0.0,0.0,0.0,0.0,0.0,0.0,0.0,0.0,0.0,-1.2821,-1.3484,-1.3788,-1.3967,0.0,0.0,-1.3309,-1.3393,-1.2994,-1.2469,-1.1926,0.0,0.0,0.0,0.0,0.0,0.0,0.0,0.0,0.0,0.0,0.0,0.0,0.0,0.0,0.0,0.0,0.0,0.0,0.0,0.0,0.0,0.0,0.0,0.0,0.0,0.0,0.0,0.0,0.0,0.0,0.0,0.0,0.0,0.0,0.0,0.0,0.0,0.0,0.0,0.0,0.0,0.0,0.0,0.0,0.0,0.0,0.0,0.0,0.0,0.0,0.0,0.0,0.0,-1.0263,-1.1902,-1.2976,-1.3767,-1.4274,-1.4298,-1.4129,-1.3761,-1.3242,-1.233,0.0,0.0,0.0,0.0,0.0,0.0,0.0,0.0,0.0,0.0,0.0,0.0,0.0,0.0,0.0,0.0,0.0,0.0,0.0,0.0,0.0,0.0,0.0,0.0,0.0,0.0,0.0,0.0,-0.7222,-0.7534,-0.7815,0.0,0.0,0.0,0.0,0.0,0.0,0.0,0.0,0.0,0.0,-1.2788,-1.3256,-1.3698,0.0,0.0,-1.3939,-1.3786,-1.3954,-1.355,-1.3025,-1.2487,-1.1878,0.0,0.0,0.0,0.0,0.0,0.0,0.0,0.0,0.0,0.0,0.0,0.0,0.0,0.0,0.0,0.0,0.0,0.0,0.0,0.0,0.0,0.0,0.0,0.0,0.0,0.0,0.0,0.0,0.0,0.0,0.0,0.0,0.0,0.0,0.0,0.0,0.0,0.0,0.0,0.0,0.0,0.0,0.0,0.0,0.0,0.0,0.0,0.0,0.0,0.0,0.0,0.0,-1.0371,-1.2023,-1.3012,-1.3773,-1.4286,-1.4298,-1.4171,-1.3906,-1.3399,-1.2602,0.0,0.0,0.0,0.0,0.0,0.0,0.0,0.0,0.0,0.0,0.0,0.0,0.0,0.0,0.0,0.0,0.0,0.0,0.0,0.0,0.0,0.0,0.0,0.0,0.0,0.0,0.0,0.0,-0.7592,-0.7951,-0.809,0.0,0.0,0.0,0.0,0.0,0.0,0.0,0.0,0.0,0.0,-1.312,-1.3474,-1.3826,-1.4192,-1.4284,-1.4115,-1.4093,-1.4268,-1.3924,-1.3471,-1.3025,0.0,0.0,0.0,0.0,0.0,0.0,0.0,0.0,0.0,0.0,0.0,0.0,0.0,0.0,0.0,0.0,0.0,0.0,0.0,0.0,0.0,0.0,0.0,0.0,0.0,0.0,0.0,0.0,0.0,0.0,-0.6835,0.0,0.0,0.0,0.0,0.0,0.0,0.0,0.0,0.0,0.0,0.0,0.0,0.0,0.0,0.0,0.0,0.0,0.0,0.0,0.0,0.0,0.0,0.0,-1.2282,-1.3103,-1.3773,-1.428,-1.4298,-1.4171,-1.3912,-1.3405,-1.2862,-1.227,0.0,0.0,0.0,0.0,0.0,0.0,0.0,0.0,0.0,0.0,0.0,0.0,0.0,0.0,0.0,0.0,0.0,0.0,0.0,0.0,0.0,0.0,0.0,0.0,0.0,0.0,-0.7546,-0.778,-0.7901,0.0,0.0,0.0,0.0,0.0,0.0,0.0,0.0,0.0,0.0,-1.3157,-1.3956,-1.4211,-1.4496,-1.4682,-1.4688,-1.449,-1.4298,-1.4316,-1.4087,-1.3809,0.0,0.0,0.0,0.0,0.0,0.0,0.0,0.0,0.0,0.0,0.0,0.0,0.0,0.0,0.0,0.0,0.0,0.0,0.0,0.0,0.0,0.0,0.0,0.0,0.0,0.0,0.0,-0.8854,-0.864,0.0,0.0,0.0,0.0,0.0,0.0,0.0,0.0,0.0,0.0,0.0,-1.2161,-1.1817,0.0,0.0,0.0,0.0,0.0,0.0,0.0,0.0,0.0,0.0,0.0,0.0,-1.0894,-1.2276,-1.3109,-1.3767,-1.428,-1.4298,-1.4256,-1.4165,-1.3821,-1.3139,-1.2077,0.0,0.0,0.0,0.0,0.0,0.0,0.0,0.0,0.0,0.0,0.0,0.0,0.0,0.0,0.0,0.0,0.0,0.0,0.0,0.0,0.0,0.0,0.0,0.0,0.0,-0.7571,0.0,0.0,0.0,0.0,0.0,0.0,0.0,0.0,0.0,0.0,0.0,-1.2143,-1.2771,-1.3628,-1.4169,-1.4254,-1.4649,-1.4941,0.0,0.0,0.0,0.0,0.0,0.0,0.0,0.0,0.0,0.0,0.0,0.0,0.0,0.0,-1.23,-1.1419,-1.1256,-1.1256,-1.1256,0.0,0.0,0.0,0.0,0.0,0.0,0.0,0.0,0.0,0.0,0.0,0.0,0.0,0.0,-1.0203,0.0,-0.9556,0.0,0.0,0.0,0.0,0.0,0.0,0.0,0.0,-1.2367,-1.294,-1.3507,-1.3169,-1.3091,0.0,-1.2644,-1.1721,0.0,0.0,0.0,0.0,0.0,0.0,0.0,0.0,-1.1359,-1.2566,-1.329,-1.3863,-1.4274,-1.4298,-1.4298,-1.4292,-1.4045,-1.3417,-1.2373,-1.1238,-1.0375,0.0,0.0,0.0,0.0,0.0,0.0,0.0,0.0,0.0,0.0,0.0,0.0,0.0,0.0,0.0,0.0,0.0,0.0,0.0,0.0,0.0,0.0,0.0,-0.7931,0.0,0.0,0.0,0.0,0.0,0.0,0.0,0.0,0.0,-1.1661,-1.2373,-1.3073,-1.3604,-1.4195,-1.4576,-1.4576,0.0,0.0,0.0,0.0,0.0,0.0,0.0,-1.5125,-1.5125,-1.4974,-1.4793,-1.4624,-1.4455,-1.4455,-1.4787,0.0,0.0,-1.2856,-1.2608,-1.2608,-1.2614,-1.2747,-1.297,-1.3332,-1.355,-1.3785,0.0,0.0,0.0,0.0,0.0,0.0,0.0,0.0,-1.2095,-1.198,0.0,-1.116,0.0,0.0,0.0,0.0,0.0,0.0,0.0,0.0,-1.3707,-1.4099,-1.4358,-1.4352,-1.4352,-1.4346,-1.4075,-1.3664,-1.3085,-1.1353,0.0,0.0,0.0,0.0,0.0,0.0,-1.2089,-1.3121,-1.3658,-1.4051,-1.4304,-1.4316,-1.431,-1.4292,-1.4045,-1.3658,-1.3151,-1.2373,-1.1697,-1.116,-0.9898,0.0,0.0,0.0,0.0,0.0,0.0,0.0,0.0,0.0,0.0,0.0,0.0,0.0,0.0,0.0,0.0,0.0,0.0,0.0,0.0,-0.8069,0.0,0.0,0.0,0.0,0.0,0.0,0.0,0.0,0.0,0.0,-1.2837,-1.3471,-1.4147,-1.4678,0.0,0.0,0.0,0.0,-1.5258,-1.5511,-1.5541,-1.5632,-1.5873,-1.5916,-1.591,-1.591,0.0,0.0,-1.5903,-1.5903,-1.5879,-1.591,-1.5879,-1.5505,-1.4238,-1.399,-1.3966,-1.3966,-1.3978,-1.4153,-1.4624,-1.4751,-1.4908,-1.4527,0.0,0.0,0.0,0.0,-1.3194,-1.3381,-1.3453,-1.3568,-1.3513,-1.3308,-1.2898,0.0,0.0,0.0,0.0,0.0,0.0,-1.367,-1.428,-1.4799,-1.5288,-1.5722,-1.5529,-1.5529,-1.5692,-1.5258,-1.4865,-1.4515,-1.3809,-1.2711,-1.1193,0.0,0.0,0.0,0.0,-1.2807,-1.364,-1.4014,-1.4316,-1.4594,-1.46,-1.4503,-1.4304,-1.4039,-1.3833,-1.3682,-1.3103,-1.253,-1.1986,-1.1057,0.0,0.0,0.0,0.0,0.0,0.0,0.0,0.0,0.0,0.0,0.0,0.0,0.0,0.0,0.0,0.0,0.0,0.0,0.0,-0.8613,-0.8993,-0.9244,0.0,0.0,0.0,0.0,0.0,0.0,0.0,0.0,0.0,-1.4902,-1.4847,-1.4956,0.0,0.0,-1.5946,-1.594,-1.6115,-1.6272,-1.635,0.0,0.0,0.0,-1.6471,-1.6471,-1.6471,-1.6471,-1.6465,-1.6471,-1.6471,-1.6465,-1.6471,-1.6465,-1.6332,-1.5994,-1.5578,-1.5336,-1.5324,-1.5318,-1.5427,-1.5741,-1.5831,-1.5934,-1.6501,-1.5421,-1.4745,-1.4395,-1.4328,-1.4576,-1.4751,-1.4847,-1.4908,-1.4896,-1.4829,-1.4467,-1.4214,-1.4051,-1.3779,0.0,0.0,0.0,-1.4926,-1.5348,-1.5777,-1.6151,-1.6441,-1.6296,-1.629,-1.6429,-1.6127,-1.5843,-1.5584,-1.5415,-1.466,-1.3363,0.0,0.0,-1.2946,-1.3206,-1.3628,-1.4208,-1.4485,-1.4702,-1.4865,-1.4775,-1.4582,-1.4304,-1.4141,-1.4063,-1.4057,-1.3658,-1.3181,-1.265,-1.1968,-1.0985,0.0,0.0,0.0,0.0,0.0,0.0,0.0,0.0,0.0,0.0,0.0,-0.7834,0.0,0.0,0.0,0.0,-0.8681,-0.8998,-0.9778,-1.0067,0.0,0.0,0.0,0.0,0.0,0.0,0.0,-1.4232,-1.492,-1.5608,-1.6272,-1.6272,-1.6205,-1.6217,-1.635,-1.6489,-1.6585,0.0,-1.693,-1.7135,-1.7165,-1.7207,-1.7316,-1.7334,-1.7328,-1.7328,-1.7334,-1.7334,-1.7334,-1.7334,-1.7334,-1.7334,-1.7334,-1.7334,-1.7328,-1.7056,-1.6682,-1.6296,-1.6211,-1.6296,-1.6549,-1.6604,-1.6682,-1.7937,-1.7835,-1.6598,-1.5922,-1.5686,-1.5916,-1.6151,-1.635,-1.6121,-1.6157,-1.6362,-1.5873,-1.5656,-1.5644,-1.5409,0.0,-1.5668,-1.5928,-1.6163,-1.638,-1.6664,-1.6779,-1.6767,-1.6767,-1.6761,-1.6761,-1.6742,-1.661,-1.6374,-1.6332,-1.6072,-1.5578,-1.4618,-1.4087,-1.4014,-1.4238,-1.4503,-1.4775,-1.5016,-1.5137,-1.5137,-1.4865,-1.4594,-1.434,-1.431,-1.4298,-1.4292,-1.4063,-1.3694,-1.3175,-1.2656,-1.1775,-1.0472,0.0,0.0,0.0,0.0,0.0,0.0,0.0,0.0,0.0,0.0,0.0,0.0,0.0,0.0,0.0,-1.0036,0.0,-1.1166,-1.1292,0.0,0.0,0.0,-1.323,-1.3978,-1.4316,-1.4793,-1.5565,0.0,0.0,-1.7123,0.0,-1.7642,-1.6923,-1.6827,-1.6911,-1.7153,-1.7201,-1.7358,-1.7817,-1.7901,-1.7992,-1.8143,-1.8203,-1.8191,-1.8191,-1.83,-1.8233,-1.8227,-1.8239,-1.8275,-1.8227,-1.8287,-1.8263,-1.8281,-1.8191,-1.7992,-1.7014,-1.6851,-1.6917,-1.7147,-1.7207,-1.728,-1.8493,-1.845,-1.7937,-1.7449,-1.702,-1.7074,-1.7141,-1.7189,-1.7129,-1.7141,-1.7189,-1.7068,-1.7014,-1.7008,-1.6948,-1.6954,-1.702,-1.7286,-1.7328,-1.7219,-1.7473,-1.7485,-1.7298,-1.7292,-1.7298,-1.7286,-1.7092,-1.6966,-1.6899,-1.67,-1.6537,-1.641,-1.6157,-1.5626,-1.4853,-1.4883,-1.5046,-1.5312,-1.5372,-1.5409,-1.5396,-1.4956,-1.4684,-1.4618,-1.4407,-1.4298,-1.4298,-1.4238,-1.396,-1.3447,-1.3109,-1.2324,-1.0997,-1.0363,0.0,0.0,0.0,0.0,0.0,0.0,0.0,0.0,0.0,-0.9442,-1.003,0.0,-1.0562,0.0,-1.1516,-1.1908,-1.2288,-1.2874,0.0,0.0,-1.4425,-1.4986,-1.5378,-1.5837,-1.6356,-1.6942,-1.7304,-1.763,-1.7962,-1.8118,-1.8131,-1.7937,-1.7907,-1.7937,-1.8004,-1.801,-1.8046,-1.8167,-1.8203,-1.8221,-1.8294,-1.83,-1.8312,-1.83,-1.83,-1.83,-1.83,-1.83,-1.83,-1.83,-1.83,-1.83,-1.8312,-1.83,-1.8233,-1.7974,-1.7919,-1.7925,-1.7998,-1.7998,-1.8016,-1.8855,-1.8849,-1.8698,-1.8463,-1.8173,-1.7943,-1.7847,-1.7841,-1.7847,-1.7847,-1.7847,-1.7841,-1.7847,-1.7847,-1.7841,-1.7841,-1.7853,-1.7998,-1.798,-1.7853,-1.7992,-1.7986,-1.7841,-1.7841,-1.7774,-1.7654,-1.7509,-1.7382,-1.7255,-1.7123,-1.699,-1.6875,-1.6875,-1.6519,-1.5843,-1.5819,-1.5825,-1.5849,-1.5734,-1.562,-1.5493,-1.5101,-1.4835,-1.4714,-1.4449,-1.4298,-1.4298,-1.4183,-1.393,-1.3532,-1.3266,-1.262,-1.154,-1.1081,-1.0441,0.0,0.0,0.0,0.0,0.0,0.0,0.0,0.0,0.0,0.0,0.0,-1.2017,0.0,-1.2958,-1.3357,-1.3737,-1.4286,-1.4817,-1.5318,-1.5765,-1.6223,-1.6718,-1.7038,-1.7382,-1.7793,-1.8076,-1.8294,-1.845,-1.8571,-1.8644,-1.8638,-1.8644,-1.8595,-1.8487,-1.8469,-1.8505,-1.8619,-1.8644,-1.8644,-1.8638,-1.8644,-1.8638,-1.8644,-1.8644,-1.8638,-1.8638,-1.8644,-1.8644,-1.8644,-1.8644,-1.8644,-1.8644,-1.8644,-1.8644,-1.8644,-1.8644,-1.8559,-1.8342,-1.83,-1.83,-1.9072,-1.9072,-1.9072,-1.9072,-1.9042,-1.8583,-1.8396,-1.839,-1.839,-1.839,-1.839,-1.8396,-1.8396,-1.839,-1.8396,-1.8396,-1.839,-1.8396,-1.8372,-1.8342,-1.8348,-1.8324,-1.83,-1.8294,-1.8167,-1.7931,-1.7925,-1.7787,-1.7533,-1.7533,-1.7394,-1.7147,-1.7141,-1.7026,-1.6809,-1.6803,-1.6646,-1.6338,-1.6072,-1.5831,-1.5602,-1.5312,-1.5028,-1.4769,-1.4497,-1.4328,-1.4292,-1.4081,-1.3839,-1.358,-1.335,-1.2874,-1.2119,-1.186,-1.1389,0.0,-1.058,0.0,0.0,0.0,0.0,0.0,0.0,0.0,0.0,-1.3025,-1.358,-1.4069,-1.4413,-1.4793,-1.527,-1.5608,-1.6085,-1.6761,-1.6881,-1.7195,-1.7877,-1.7974,-1.8088,-1.836,-1.8595,-1.8734,-1.874,-1.8933,-1.9066,-1.9042,-1.903,-1.8951,-1.8788,-1.8734,-1.8813,-1.9054,-1.9072,-1.9012,-1.9024,-1.9042,-1.9042,-1.9054,-1.9036,-1.9072,-1.9042,-1.9048,-1.906,-1.9054,-1.9036,-1.9048,-1.9072,-1.906,-1.906,-1.9036,-1.903,-1.8903,-1.8547,-1.8444,-1.839,-1.9072,-1.9072,-1.9072,-1.9072,-1.9066,-1.8969,-1.8927,-1.8927,-1.8933,-1.8927,-1.8927,-1.8927,-1.8927,-1.8927,-1.8927,-1.8927,-1.8927,-1.8927,-1.8813,-1.8607,-1.8607,-1.8499,-1.83,-1.83,-1.8269,-1.8215,-1.8215,-1.807,-1.7799,-1.7799,-1.7666,-1.7418,-1.7406,-1.7382,-1.734,0.0,0.0,0.0,-1.635,-1.6181,-1.6121,-1.5662,-1.5294,-1.504,-1.4775,0.0,-1.431,-1.4244,-1.4105,-1.3851,-1.3785,0.0,0.0,0.0,0.0,0.0,0.0,0.0,0.0,0.0,0.0,0.0,-1.4057,-1.4105,-1.3393,-1.4171,-1.4859,-1.5179,-1.5831,-1.6284,-1.6398,-1.702,-1.7485,-1.7636,-1.7853,-1.8137,-1.8487,-1.8529,-1.8632,-1.8891,-1.8976,-1.9,-1.8994,-1.9054,-1.9072,-1.9072,-1.9072,-1.9054,-1.9,-1.8988,-1.9018,-1.9072,-1.9072,-1.9072,-1.9072,-1.9072,-1.9072,-1.9072,-1.9072,-1.9072,-1.9072,-1.9072,-1.9072,-1.9072,-1.9072,-1.9072,-1.9072,-1.9072,-1.9072,-1.9072,-1.9072,-1.9048,-1.8951,-1.8921,-1.8921,-1.9187,0.0,-1.9072,-1.9072,0.0,-1.9072,-1.9072,-1.9072,-1.9072,-1.9072,-1.9072,-1.9072,-1.9072,-1.9072,-1.9072,-1.9072,-1.9072,-1.9072,-1.9,-1.8879,-1.8879,-1.8807,-1.8686,-1.868,-1.8607,-1.8493,-1.8487,-1.8342,-1.8088,-1.8082,-1.7943,-1.7678,-1.7672,-1.7612,-1.7491,-1.7485,-1.7286,-1.6899,-1.6628,-1.6423,-1.6272,-1.5891,-1.5565,-1.53,0.0,0.0,0.0,0.0,0.0,0.0,0.0,0.0,0.0,0.0,0.0,-1.3127,-1.3224,-1.335,-1.3495,-1.3876,-1.4214,-1.4485,-1.5234,-1.5463,-1.4914,-1.5505,-1.6006,-1.6272,-1.6893,-1.728,-1.7298,-1.7768,-1.8137,-1.8257,-1.8402,-1.8589,-1.8825,-1.8873,-1.8927,-1.9042,-1.9072,-1.9072,-1.9072,-1.9072,-1.9072,-1.9072,-1.9072,-1.9072,-1.9072,-1.9072,-1.9072,-1.9072,-1.9072,-1.9072,-1.9072,-1.9072,-1.9072,-1.9072,-1.9072,-1.9072,-1.9072,-1.9072,-1.9072,-1.9072,-1.9072,-1.9072,-1.9072,-1.9072,-1.9072,-1.9072,-1.9072,-1.9072,-1.9072,-1.9072,-1.9072,-1.9416,-1.9217,-1.9163,-1.9138,-1.9145,-1.909,-1.9072,-1.9072,0.0,0.0,0.0,-1.9072,-1.9072,-1.9072,-1.9072,-1.9072,-1.9072,-1.9072,-1.9072,-1.9072,-1.9072,-1.9072,-1.9072,-1.9072,-1.8963,-1.8758,-1.8752,-1.8613,-1.8372,-1.836,-1.8221,-1.7974,-1.7943,-1.7811,-1.7563,-1.7503,-1.7376,-1.7165,-1.6905,-1.6658,-1.6429,-1.6169,-1.5885,-1.5578,-1.5155,-1.4883,-1.4787,-1.4352,-1.4117,-1.4117,-1.3918,-1.3797,-1.3803,-1.4002,-1.4135,-1.4195,-1.4389,-1.4552,-1.4642,-1.5065,-1.5354,-1.5451,-1.6097,-1.6495,-1.6495,-1.6706,-1.6972,-1.728,-1.7738,-1.8016,-1.8022,-1.8269,-1.8517,-1.8734,-1.8752,-1.8837,-1.9036,-1.9072,-1.9066,-1.9072,-1.9072,-1.9072,-1.9072,-1.9072,-1.9072,-1.9072,-1.9072,-1.9072,-1.9072,-1.9072,-1.9072,-1.9072,-1.9072,-1.9072,-1.9072,-1.9072,-1.9072,-1.9072,-1.9072,-1.9072,-1.9072,-1.9072,-1.9072,-1.9072,-1.9072,-1.9072,-1.9072,-1.9072,-1.9072,-1.9072,-1.9072,-1.9072,-1.9072,-1.9072,-1.9072,-1.9802,-1.9754,-1.9513,-1.941,-1.9398,-1.9169,-1.9072,-1.9072,-1.9072,-1.9072,-1.9072,-1.9072,-1.9072,-1.9072,-1.9072,-1.9072,-1.9072,-1.9072,-1.9072,0.0,-1.9072,-1.9072,-1.9072,-1.9072,-1.9054,-1.9018,-1.9018,-1.8885,-1.8656,-1.8632,-1.8493,-1.8263,-1.8233,-1.8094,-1.7829,-1.7599,-1.7461,-1.7424,-1.7165,-1.702,-1.6972,-1.6724,-1.6344,-1.5861,-1.5765,-1.5505,-1.5065,-1.4974,-1.4938,-1.4938,-1.4902,-1.4883,-1.4883,-1.4914,-1.504,-1.5252,-1.5312,-1.5529,-1.5958,-1.6072,-1.632,-1.6779,-1.7123,-1.7316,-1.7316,-1.7346,-1.7581,-1.807,-1.8384,-1.8571,-1.8583,-1.8794,-1.8945,-1.9,-1.9018,-1.9042,-1.9072,-1.9072,-1.9072,-1.9072,-1.9072,-1.9072,-1.9072,-1.9072,-1.9072,-1.9072,-1.9072,-1.9072,-1.9072,-1.9072,-1.9072,-1.9072,-1.9072,-1.9072,-1.9072,-1.9072,-1.9072,-1.9072,-1.9072,-1.9072,-1.9072,-1.9072,-1.9072,-1.9072,-1.9072,-1.9072,-1.9072,-1.9072,-1.9072,-1.9072,-1.9072,-1.9072,-1.9072,-1.9072,-1.9072,-2.002,-1.9881,-1.9748,-1.9694,-1.9676,-1.9398,-1.9283,-1.9271,-1.9138,-1.9072,-1.9072,-1.9072,-1.9072,-1.9072,-1.9072,-1.9072,-1.9072,-1.9072,-1.9072,-1.9072,-1.9072,-1.9072,-1.9072,-1.9072,-1.9072,-1.9072,-1.9072,-1.9012,-1.8903,-1.8897,-1.8764,-1.8511,-1.8366,-1.8227,-1.8094,-1.7829,-1.7696,-1.769,-1.7436,-1.7237,-1.7092,-1.6972,-1.6724,-1.6344,-1.6187,-1.5928,-1.5547,-1.5396,-1.5258,-1.5113,-1.5246,-1.5318,-1.5324,-1.5584,-1.5795,-1.5922,-1.6066,-1.6254,-1.6489,-1.6773,-1.7105,-1.7491,-1.7768,-1.7986,-1.8125,-1.8137,-1.8239,-1.8493,-1.8746,-1.8897,-1.8897,-1.9006,-1.9072,-1.9072,-1.9072,-1.9072,-1.9072,-1.9072,-1.9072,-1.9072,-1.9072,-1.9072,-1.9072,-1.9072,-1.9072,-1.9072,-1.9072,-1.9072,-1.9072,-1.9072,-1.9072,-1.9072,-1.9072,-1.9072,-1.9072,-1.9072,-1.9072,-1.9072,-1.9072,-1.9072,-1.9072,-1.9072,-1.9072,-1.9072,-1.9072,-1.9072,-1.9072,-1.9072,-1.9072,-1.9072,-1.9072,-1.9072,-1.9072,-1.9072,-1.9072,-2.0249,-2.0062,-2.0002,-1.9941,-1.9869,-1.9658,-1.9525,-1.9446,-1.9247,-1.9126,-1.9078,-1.9072,-1.9072,-1.9072,-1.9072,-1.9072,-1.9072,-1.9072,-1.9072,-1.9072,-1.9072,-1.9072,-1.9072,-1.9072,-1.9072,-1.9072,-1.9072,-1.9072,-1.9072,-1.9072,-1.8976,-1.8764,-1.8505,-1.8378,-1.8372,-1.8106,-1.7937,-1.7865,-1.7672,-1.7443,-1.7195,-1.7183,-1.7056,-1.6797,-1.6579,-1.6338,-1.6085,-1.5879,-1.5674,-1.5493,-1.5662,-1.5771,-1.5783,-1.6151,-1.6398,-1.6471,-1.6664,-1.6845,-1.6972,-1.7334,-1.7684,-1.795,-1.8221,-1.8469,-1.8656,-1.874,-1.877,-1.8794,-1.8951,-1.9066,-1.906,-1.9072,-1.9072,-1.9072,-1.9072,-1.9072,-1.9072,-1.9072,-1.9072,-1.9072,-1.9072,-1.9072,-1.9072,-1.9072,-1.9072,-1.9072,-1.9072,-1.9072,-1.9072,-1.9072,-1.9072,-1.9072,-1.9072,-1.9072,-1.9072,-1.9072,-1.9072,-1.9072,-1.9072,-1.9072,-1.9072,-1.9072,-1.9072,-1.9072,-1.9072,-1.9072,-1.9072,-1.9072,-1.9072,-1.9072,-1.9072,-1.9072,-1.9072,-1.9072,-1.9072,-2.0611,-2.0563,-2.034,-2.0098,-1.9911,-1.9863,-1.9712,-1.9489,-1.9434,-1.9289,-1.9096,-1.9072,-1.9072,-1.9072,-1.9072,-1.9072,-1.9072,-1.9072,-1.9072,-1.9072,-1.9072,-1.9072,-1.9072,-1.9072,-1.9072,-1.9072,-1.9072,-1.9072,-1.9072,-1.9072,-1.906,-1.9012,-1.8776,-1.865,-1.8619,-1.8384,-1.8137,-1.7883,-1.7847,-1.7708,-1.7467,-1.7449,-1.7328,-1.7068,-1.7032,-1.6893,-1.6622,-1.6604,-1.6573,-1.6555,-1.6549,-1.6579,-1.6585,-1.664,-1.6773,-1.699,-1.7044,-1.7255,-1.7702,-1.7805,-1.7968,-1.8233,-1.8499,-1.8656,-1.871,-1.8903,-1.9042,-1.9036,-1.9054,-1.9072,-1.9072,-1.9072,-1.9072,-1.9072,-1.9072,-1.9072,-1.9072,-1.9072,-1.9072,-1.9072,-1.9072,-1.9072,-1.9072,-1.9072,-1.9072,-1.9072,-1.9072,-1.9072,-1.9072,-1.9072,-1.9072,-1.9072,-1.9072,-1.9072,-1.9072,-1.9072,-1.9072,-1.9072,-1.9072,-1.9072,-1.9072,-1.9072,-1.9072,-1.9072,-1.9072,-1.9072,-1.9072,-1.9072,-1.9072,-1.9072,-1.9072,-1.9072,-1.9072,-1.9072,-1.9072,-2.0665,-2.0659,-2.0557,-2.0454,-2.0334,-2.0189,-2.0056,-1.9923,-1.9603,-1.941,-1.9289,-1.9145,-1.9072,-1.9072,-1.9072,-1.9072,-1.9072,-1.9072,-1.9072,-1.9072,-1.9072,-1.9072,-1.9072,-1.9072,-1.9072,-1.9072,-1.9072,-1.9072,-1.9072,-1.9072,-1.9072,-1.9066,-1.8957,-1.8915,-1.8891,-1.8656,-1.8469,-1.8354,-1.8203,-1.7992,-1.7732,-1.7563,-1.743,-1.7334,-1.7322,-1.7201,-1.6966,-1.6936,-1.6863,-1.673,-1.6845,-1.693,-1.6936,-1.708,-1.7207,-1.7328,-1.7473,-1.772,-1.81,-1.8263,-1.8402,-1.8523,-1.8764,-1.8915,-1.8915,-1.9018,-1.9072,-1.9072,-1.9072,-1.9072,-1.9072,-1.9072,-1.9072,-1.9072,-1.9072,-1.9072,-1.9072,-1.9072,-1.9072,-1.9072,-1.9072,-1.9072,-1.9072,-1.9072,-1.9072,-1.9072,-1.9072,-1.9072,-1.9072,-1.9072,-1.9072,-1.9072,-1.9072,-1.9072,-1.9072,-1.9072,-1.9072,-1.9072,-1.9072,-1.9072,-1.9072,-1.9072,-1.9072,-1.9072,-1.9072,-1.9072,-1.9072,-1.9072,-1.9072,-1.9072,-1.9072,-1.9072,-1.9072,-1.9072,-1.9072,-2.0665,-2.0665,-2.0665,-2.0665,-2.0653,-2.0472,-2.0346,-2.0237,-1.9851,-1.9615,-1.9452,-1.9259,-1.9145,-1.9078,-1.9072,-1.9072,-1.9072,-1.9072,-1.9072,-1.9072,-1.9072,-1.9072,-1.9072,-1.9072,-1.9072,-1.9072,-1.9072,-1.9072,-1.9072,-1.9072,-1.9072,-1.9072,-1.9072,-1.9072,-1.9054,-1.8879,-1.8752,-1.8668,-1.8493,-1.8263,-1.8004,-1.7805,-1.7636,-1.7503,-1.7485,-1.7394,-1.7207,-1.7195,-1.7111,-1.6936,-1.7098,-1.7201,-1.7207,-1.7449,-1.7624,-1.7708,-1.7883,-1.8112,-1.8384,-1.8577,-1.8716,-1.8794,-1.8976,-1.9072,-1.9072,-1.9072,-1.9072,-1.9072,-1.9072,-1.9072,-1.9072,-1.9072,-1.9072,-1.9072,-1.9072,-1.9072,-1.9072,-1.9072,-1.9072,-1.9072,-1.9072,-1.9072,-1.9072,-1.9072,-1.9072,-1.9072,-1.9072,-1.9072,-1.9072,-1.9072,-1.9072,-1.9072,-1.9072,-1.9072,-1.9072,-1.9072,-1.9072,-1.9072,-1.9072,-1.9072,-1.9072,-1.9072,-1.9072,-1.9072,-1.9072,-1.9072,-1.9072,-1.9072,-1.9072,-1.9072,-1.9072,-1.9072,-1.9072,-1.9072,-1.9072,-2.0665,-2.0665,-2.0665,-2.0665,-2.0665,-2.0647,-2.0503,-2.0297,-2.0237,-1.9947,-1.9537,-1.9446,-1.9307,-1.909,-1.9084,-1.9072,-1.9072,-1.9072,-1.9072,-1.9072,-1.9072,-1.9072,-1.9072,-1.9072,-1.9072,-1.9072,-1.9072,-1.9072,-1.9072,-1.9072,-1.9072,-1.9072,-1.9072,-1.9072,-1.9066,-1.9042,-1.8927,-1.8734,-1.868,-1.8535,-1.8306,-1.8257,-1.7998,-1.7581,-1.7497,-1.7515,-1.7479,-1.7473,-1.7461,-1.7449,-1.7473,-1.7479,-1.7497,-1.772,-1.7968,-1.8209,-1.8257,-1.839,-1.8625,-1.8698,-1.8794,-1.9,-1.9054,-1.9072,-1.9072,-1.9072,-1.9072,-1.9072,-1.9072,-1.9072,-1.9072,-1.9072,-1.9072,-1.9072,-1.9072,-1.9072,-1.9072,-1.9072,-1.9072,-1.9072,-1.9072,-1.9072,-1.9072,-1.9072,-1.9072,-1.9072,-1.9072,-1.9072,-1.9072,-1.9072,-1.9072,-1.9072,-1.9072,-1.9072,-1.9072,-1.9072,-1.9072,-1.9072,-1.9072,-1.9072,-1.9072,-1.9072,-1.9072,-1.9072,-1.9072,-1.9072,-1.9072,-1.9072,-1.9072,-1.9072,-1.9072,-1.9072,-1.9072,-1.9072,-1.9072,-2.0665,-2.0665,-2.0665,-2.0665,-2.0665,-2.0665,-2.0611,-2.0515,-2.0346,-2.0177,-1.9947,-1.9627,-1.9416,-1.9314,-1.9145,-1.9072,-1.9072,-1.9072,-1.9072,-1.9072,-1.9072,-1.9072,-1.9072,-1.9072,-1.9072,-1.9072,-1.9072,-1.9072,-1.9072,-1.9072,-1.9072,-1.9072,-1.9072,-1.9072,-1.9072,-1.9072,-1.9024,-1.8945,-1.8933,-1.8807,-1.8571,-1.8541,-1.8366,-1.8034,-1.8004,-1.7998,-1.8004,-1.8004,-1.7998,-1.7998,-1.8004,-1.7998,-1.801,-1.8088,-1.8263,-1.8505,-1.8541,-1.8656,-1.8891,-1.8939,-1.8969,-1.9054,-1.9072,-1.9072,-1.9072,-1.9072,-1.9072,-1.9072,-1.9072,-1.9072,-1.9072,-1.9072,-1.9072,-1.9072,-1.9072,-1.9072,-1.9072,-1.9072,-1.9072,-1.9072,-1.9072,-1.9072,-1.9072,-1.9072,-1.9072,-1.9072,-1.9072,-1.9072,-1.9072,-1.9072,-1.9072,-1.9072,-1.9072,-1.9072,-1.9072,-1.9072,-1.9072,-1.9072,-1.9072,-1.9072,-1.9072,-1.9072,-1.9072,-1.9072,-1.9072,-1.9072,-1.9072,-1.9072,-1.9072,-1.9072,-1.9072,-1.9072,-1.9072,-1.9072,-1.9072,-2.0665,-2.0665,-2.0665,-2.0665,-2.0665,-2.0665,-2.0665,-2.0647,-2.0478,-2.0358,-2.0213,-1.9881,-1.9633,-1.9458,-1.9277,-1.9145,-1.9078,-1.9072,-1.9072,-1.9072,-1.9072,-1.9072,-1.9072,-1.9072,-1.9072,-1.9072,-1.9072,-1.9072,-1.9072,-1.9072,-1.9072,-1.9072,-1.9072,-1.9072,-1.9072,-1.9072,-1.9072,-1.9072,-1.9072,-1.8982,-1.8825,-1.8813,-1.8734,-1.8577,-1.8547,-1.8456,-1.8312,-1.83,-1.83,-1.83,-1.83,-1.833,-1.8408,-1.842,-1.8535,-1.877,-1.8813,-1.8879,-1.9036,-1.9072,-1.9072,-1.9072,-1.9072,-1.9072,-1.9072,-1.9072,-1.9072,-1.9072,-1.9072,-1.9072,-1.9072,-1.9072,-1.9072,-1.9072,-1.9072,-1.9072,-1.9072,-1.9072,-1.9072,-1.9072,-1.9072,-1.9072,-1.9072,-1.9072,-1.9072,-1.9072,-1.9072,-1.9072,-1.9072,-1.9072,-1.9072,-1.9072,-1.9072,-1.9072,-1.9072,-1.9072,-1.9072,-1.9072,-1.9072,-1.9072,-1.9072,-1.9072,-1.9072,-1.9072,-1.9072,-1.9072,-1.9072,-1.9072,-1.9072,-1.9072,-1.9072,-1.9072,-1.9072,-1.9072,-1.9072,-2.0665,-2.0665,-2.0665,-2.0665,-2.0665,-2.0665,-2.0665,-2.0665,-2.0653,-2.0515,-2.0327,-2.0243,-1.9947,-1.9579,-1.9464,-1.9314,-1.9138,-1.909,-1.9072,-1.9072,-1.9072,-1.9072,-1.9072,-1.9072,-1.9072,-1.9072,-1.9072,-1.9072,-1.9072,-1.9072,-1.9072,-1.9072,-1.9072,-1.9072,-1.9072,-1.9072,-1.9072,-1.9072,-1.9072,-1.906,-1.9066,-1.9042,-1.903,-1.9018,-1.9018,-1.8801,-1.836,-1.8348,-1.8372,-1.8354,-1.8348,-1.8438,-1.865,-1.8686,-1.8801,-1.8994,-1.906,-1.9066,-1.9066,-1.9072,-1.9072,-1.9072,-1.9072,-1.9072,-1.9072,-1.9072,-1.9072,-1.9072,-1.9072,-1.9072,-1.9072,-1.9072,-1.9072,-1.9072,-1.9072,-1.9072,-1.9072,-1.9072,-1.9072,-1.9072,-1.9072,-1.9072,-1.9072,-1.9072,-1.9072,-1.9072,-1.9072,-1.9072,-1.9072,-1.9072,-1.9072,-1.9072,-1.9072,-1.9072,-1.9072,-1.9072,-1.9072,-1.9072,-1.9072,-1.9072,-1.9072,-1.9072,-1.9072,-1.9072,-1.9072,-1.9072,-1.9072,-1.9072,-1.9072,-1.9072,-1.9072,-1.9072,-1.9072,-1.9072,-1.9072,-2.0665,-2.0665,-2.0665,-2.0665,-2.0665,-2.0665,-2.0665,-2.0665,-2.0665,-2.0623,-2.0521,-2.0358,-2.0177,-1.9959,-1.9652,-1.9422,-1.9332,-1.9169,-1.9072,-1.9072,-1.9072,-1.9072,-1.9072,-1.9072,-1.9072,-1.9072,-1.9072,-1.9072,-1.9072,-1.9072,-1.9072,-1.9072,-1.9072,-1.9072,-1.9072,-1.9072,-1.9072,-1.9072,-1.9072,-1.9072,-1.9072,-1.9072,-1.9072,-1.9072,-1.9072,-1.8988,-1.8843,-1.8831,-1.8837,-1.8819,-1.8831,-1.8873,-1.8933,-1.8957,-1.8988,-1.9054,-1.9072,-1.9072,-1.9072,-1.9072,-1.9072,-1.9072,-1.9072,-1.9072,-1.9072,-1.9072,-1.9072,-1.9072,-1.9072,-1.9072,-1.9072,-1.9072,-1.9072,-1.9072,-1.9072,-1.9072,-1.9072,-1.9072,-1.9072,-1.9072,-1.9072,-1.9072,-1.9072,-1.9072,-1.9072,-1.9072,-1.9072,-1.9072,-1.9072,-1.9072,-1.9072,-1.9072,-1.9072,-1.9072,-1.9072,-1.9072,-1.9072,-1.9072,-1.9072,-1.9072,-1.9072,-1.9072,-1.9072,-1.9072,-1.9072,-1.9072,-1.9072,-1.9072,-1.9072,-1.9072,-1.9072,-1.9072,-1.9072,-1.9072,-1.9072,-2.0665,-2.0665,-2.0665,-2.0665,-2.0665,-2.0665,-2.0665,-2.0665,-2.0665,-2.0665,-2.0629,-2.0503,-2.0364,-2.0201,-1.9814,-1.9567,-1.9452,-1.9193,-1.9072,-1.9072,-1.9072,-1.9072,-1.9072,-1.9072,-1.9072,-1.9072,-1.9072,-1.9072,-1.9072,-1.9072,-1.9072,-1.9072,-1.9072,-1.9072,-1.9072,-1.9072,-1.9072,-1.9072,-1.9072,-1.9072,-1.9072,-1.9072,-1.9072,-1.9072,-1.9072,-1.9072,-1.9072,-1.9072,-1.9072,-1.9072,-1.9072,-1.9072,-1.9072,-1.9066,-1.9072,-1.9072,-1.9072,-1.9072,-1.9072,-1.9072,-1.9072,-1.9072,-1.9072,-1.9072,-1.9072,-1.9072,-1.9072,-1.9072,-1.9072,-1.9072,-1.9072,-1.9072,-1.9072,-1.9072,-1.9072,-1.9072,-1.9072,-1.9072,-1.9072,-1.9072,-1.9072,-1.9072,-1.9072,-1.9072,-1.9072,-1.9072,-1.9072,-1.9072,-1.9072,-1.9072,-1.9072,-1.9072,-1.9072,-1.9072,-1.9072,-1.9072,-1.9072,-1.9072,-1.9072,-1.9072,-1.9072,-1.9072,-1.9072,-1.9072,-1.9072,-1.9072,-1.9072,-1.9072,-1.9072,-1.9072,-1.9072,-1.9072,-1.9072,-1.9072,-1.9072,-2.0665,-2.0665,-2.0665,-2.0665,-2.0665,-2.0665,-2.0665,-2.0665,-2.0665,-2.0665,-2.0665,-2.0641,-2.0527,-2.0285,-2.0032,-1.9772,-1.9489,-1.9247,-1.9108,-1.9084,-1.9072,-1.9072,-1.9072,-1.9072,-1.9072,-1.9072,-1.9072,-1.9072,-1.9072,-1.9072,-1.9072,-1.9072,-1.9072,-1.9072,-1.9072,-1.9072,-1.9072,-1.9072,-1.9072,-1.9072,-1.9072,-1.9072,-1.9072,-1.9072,-1.9072,-1.9072,-1.9072,-1.9072,-1.9072,-1.9072,-1.9072,-1.9072,-1.9072,-1.9072,-1.9072,-1.9072,-1.9072,-1.9072,-1.9072,-1.9072,-1.9072,-1.9072,-1.9072,-1.9072,-1.9072,-1.9072,-1.9072,-1.9072,-1.9072,-1.9072,-1.9072,-1.9072,-1.9072,-1.9072,-1.9072,-1.9072,-1.9072,-1.9072,-1.9072,-1.9072,-1.9072,-1.9072,-1.9072,-1.9072,-1.9072,-1.9072,-1.9072,-1.9072,-1.9072,-1.9072,-1.9072,-1.9072,-1.9072,-1.9072,-1.9072,-1.9072,-1.9072,-1.9072,-1.9072,-1.9078,-1.9072,-1.9072,-1.9072,-1.9072,-1.9072,-1.9072,-1.9072,-1.9072,-1.9072,-1.9072,-1.9072,-1.9072,-1.9072,-1.9072,-1.9072,-2.0665,-2.0665,-2.0665,-2.0665,-2.0665,-2.0665,-2.0665,-2.0665,-2.0665,-2.0665,-2.0665,-2.0665,-2.0629,-2.0539,-2.0279,-2.0026,-1.9742,-1.9476,-1.9241,-1.909,-1.9072,-1.9072,-1.9072,-1.9072,-1.9072,-1.9072,-1.9072,-1.9072,-1.9072,-1.9072,-1.9072,-1.9072,-1.9072,-1.9072,-1.9072,-1.9072,-1.9072,-1.9072,-1.9072,-1.9072,-1.9072,-1.9072,-1.9072,-1.9072,-1.9072,-1.9072,-1.9072,-1.9072,-1.9072,-1.9072,-1.9072,-1.9072,-1.9072,-1.9072,-1.9072,-1.9072,-1.9072,-1.9072,-1.9072,-1.9072,-1.9072,-1.9072,-1.9072,-1.9072,-1.9072,-1.9072,-1.9072,-1.9072,-1.9072,-1.9072,-1.9072,-1.9072,-1.9072,-1.9072,-1.9072,-1.9072,-1.9072,-1.9072,-1.9072,-1.9072,-1.9072,-1.9072,-1.9072,-1.9072,-1.9072,-1.9072,-1.9072,-1.9072,-1.9072,-1.9072,-1.9072,-1.9072,-1.9072,-1.9072,-1.9072,-1.9072,-1.9072,-1.9072,-1.9078,-1.909,-1.9078,-1.9072,-1.9072,-1.9072,-1.9072,-1.9072,-1.9072,-1.9072,-1.9072,-1.9072,-1.9072,-1.9072,-1.9072,-1.9072,-1.9072,-2.0665,-2.0665,-2.0665,-2.0665,-2.0665,-2.0665,-2.0665,-2.0665,-2.0665,-2.0665,-2.0665,-2.0665,-2.0665,-2.0641,-2.0394,-2.0134,-1.9869,-1.9591,-1.9326,-1.9102,-1.9072,-1.9072,-1.9072,-1.9072,-1.9072,-1.9072,-1.9072,-1.9072,-1.9072,-1.9072,-1.9072,-1.9072,-1.9072,-1.9072,-1.9072,-1.9072,-1.9072,-1.9072,-1.9072,-1.9072,-1.9072,-1.9072,-1.9072,-1.9072,-1.9072,-1.9072,-1.9072,-1.9072,-1.9072,-1.9072,-1.9072,-1.9072,-1.9072,-1.9072,-1.9072,-1.9072,-1.9072,-1.9072,-1.9072,-1.9072,-1.9072,-1.9072,-1.9072,-1.9072,-1.9072,-1.9072,-1.9072,-1.9072,-1.9072,-1.9072,-1.9072,-1.9072,-1.9072,-1.9072,-1.9072,-1.9072,-1.9072,-1.9072,-1.9072,-1.9072,-1.9072,-1.9072,-1.9072,-1.9072,-1.9072,-1.9072,-1.9072,-1.9072,-1.9072,-1.9072,-1.9072,-1.9072,-1.9072,-1.9072,-1.9072,-1.9072,-1.9108,-1.9108,-1.9193,-1.9181,-1.9163,-1.9138,-1.9084,-1.9084,-1.9078,-1.9072,-1.9072,-1.9072,-1.9072,-1.9072,-1.9072,-1.9072,-1.9072,-1.9072,-1.9072,-2.0665,-2.0665,-2.0665,-2.0665,-2.0665,-2.0665,-2.0665,-2.0665,-2.0665,-2.0665,-2.0665,-2.0665,-2.0665,-2.0653,-2.0454,-2.0183,-1.9929,-1.9682,-1.9362,-1.9157,-1.9072,-1.9072,-1.9072,-1.9072,-1.9072,-1.9072,-1.9072,-1.9072,-1.9072,-1.9072,-1.9072,-1.9072,-1.9072,-1.9072,-1.9072,-1.9072,-1.9072,-1.9072,-1.9072,-1.9072,-1.9072,-1.9072,-1.9072,-1.9072,-1.9072,-1.9072,-1.9072,-1.9072,-1.9072,-1.9072,-1.9072,-1.9072,-1.9072,-1.9072,-1.9072,-1.9072,-1.9072,-1.9072,-1.9072,-1.9072,-1.9072,-1.9072,-1.9072,-1.9072,-1.9072,-1.9072,-1.9072,-1.9072,-1.9072,-1.9072,-1.9072,-1.9072,-1.9072,-1.9072,-1.9072,-1.9072,-1.9072,-1.9072,-1.9072,-1.9072,-1.9072,-1.9072,-1.9072,-1.9072,-1.9072,-1.9072,-1.9072,-1.9072,-1.9072,-1.9072,-1.9072,-1.9072,-1.9072,-1.9072,-1.9072,-1.9072,-1.912,-1.9169,-1.9314,-1.9362,-1.9332,-1.9283,-1.9163,-1.9102,-1.9084,-1.9072,-1.9072,-1.9072,-1.9072,-1.9072,-1.9072,-1.9072,-1.9072,-1.9072,-1.9072,-2.0665,-2.0665,-2.0665,-2.0665,-2.0665,-2.0665,-2.0665,-2.0665,-2.0665,-2.0665,-2.0665,-2.0665,-2.0665,-2.0665,-2.0581,-2.0442,-2.0152,-1.9869,-1.9555,-1.9108,-1.9072,-1.9072,-1.9072,-1.9072,-1.9072,-1.9072,-1.9072,-1.9072,-1.9072,-1.9072,-1.9072,-1.9072,-1.9072,-1.9072,-1.9072,-1.9072,-1.9072,-1.9072,-1.9072,-1.9072,-1.9072,-1.9072,-1.9072,-1.9072,-1.9072,-1.9072,-1.9072,-1.9072,-1.9072,-1.9072,-1.9072,-1.9072,-1.9072,-1.9072,-1.9072,-1.9072,-1.9072,-1.9072,-1.9072,-1.9072,-1.9072,-1.9072,-1.9072,-1.9072,-1.9072,-1.9072,-1.9072,-1.9072,-1.9072,-1.9072,-1.9072,-1.9072,-1.9072,-1.9072,-1.9072,-1.9072,-1.9072,-1.9072,-1.9072,-1.9072,-1.9072,-1.9072,-1.9072,-1.9102,-1.9096,-1.9078,-1.9084,-1.9078,-1.9072,-1.9072,-1.9072,-1.9072,-1.9072,-1.9078,-1.909,-1.9126,-1.9217,-1.9338,-1.9495,-1.9567,-1.9537,-1.9513,-1.9428,-1.9259,-1.9078,-1.9072,-1.9072,-1.9072,-1.9072,-1.9072,-1.9072,-1.9072,-1.9072,-1.9072,-1.9072,-2.0665,-2.0665,-2.0665,-2.0665,-2.0665,-2.0665,-2.0665,-2.0665,-2.0665,-2.0665,-2.0665,-2.0665,-2.0665,-2.0665,-2.0659,-2.0521,-2.0225,-1.9857,-1.947,-1.9138,-1.9072,-1.9072,-1.9072,-1.9072,-1.9072,-1.9072,-1.9072,-1.9072,-1.9072,-1.9072,-1.9072,-1.9072,-1.9072,-1.9072,-1.9072,-1.9072,-1.9072,-1.9072,-1.9072,-1.9072,-1.9072,-1.9072,-1.9072,-1.9072,-1.9072,-1.9072,-1.9072,-1.9072,-1.9072,-1.9072,-1.9072,-1.9072,-1.9072,-1.9072,-1.9072,-1.9072,-1.9072,-1.9072,-1.9072,-1.9072,-1.9072,-1.9072,-1.9072,-1.9072,-1.9072,-1.9072,-1.9072,-1.9072,-1.9072,-1.9072,-1.9072,-1.9072,-1.9072,-1.9072,-1.9072,-1.9072,-1.9072,-1.9072,-1.9072,-1.9072,-1.9072,-1.9072,-1.9084,-1.9126,-1.9126,-1.9114,-1.9253,-1.9241,-1.9072,-1.9072,-1.9072,-1.9072,-1.9072,-1.9084,-1.9108,-1.9187,-1.9338,-1.9519,-1.9748,-1.9784,-1.9778,-1.976,-1.9736,-1.9476,-1.9187,-1.9078,-1.9072,-1.9072,-1.9072,-1.9072,-1.9072,-1.9072,-1.9072,-1.9072,-1.9072,-2.0665,-2.0665,-2.0665,-2.0665,-2.0665,-2.0665,-2.0665,-2.0665,-2.0665,-2.0665,-2.0665,-2.0665,-2.0665,-2.0665,-2.0665,-2.0503,-2.014,-1.9736,-1.9338,-1.9108,-1.9072,-1.9072,-1.9072,-1.9072,-1.9072,-1.9072,-1.9072,-1.9072,-1.9072,-1.9072,-1.9072,-1.9072,-1.9072,-1.9072,-1.9072,-1.9072,-1.9072,-1.9072,-1.9072,-1.9072,-1.9072,-1.9072,-1.9072,-1.9072,-1.9072,-1.9072,-1.9072,-1.9072,-1.9072,-1.9072,-1.9072,-1.9072,-1.9072,-1.9072,-1.9072,-1.9072,-1.9072,-1.9072,-1.9072,-1.9072,-1.9072,-1.9072,-1.9072,-1.9072,-1.9072,-1.9072,-1.9072,-1.9072,-1.9072,-1.9072,-1.9072,-1.9072,-1.9072,-1.9072,-1.9072,-1.9072,-1.9072,-1.9072,-1.9072,-1.9072,-1.9072,-1.9072,-1.9126,-1.9175,-1.9163,-1.9175,-1.9314,-1.9356,-1.9175,-1.9072,-1.9078,-1.9138,-1.9163,-1.9338,-1.9392,-1.9434,-1.9561,-1.9742,-1.9989,-2.0044,-2.0044,-2.002,-1.9929,-1.9561,-1.9314,-1.9199,-1.9096,-1.9072,-1.9072,-1.9072,-1.9072,-1.9072,-1.9072,-1.9072,-1.9072,-2.0665,-2.0665,-2.0665,-2.0665,-2.0665,-2.0665,-2.0665,-2.0665,-2.0665,-2.0665,-2.0665,-2.0665,-2.0665,-2.0665,-2.0665,-2.0406,-1.9989,-1.9615,-1.9326,-1.9108,-1.9072,-1.9072,-1.9072,-1.9072,-1.9072,-1.9072,-1.9072,-1.9072,-1.9072,-1.9072,-1.9072,-1.9072,-1.9072,-1.9072,-1.9072,-1.9072,-1.9072,-1.9072,-1.9072,-1.9072,-1.9072,-1.9072,-1.9072,-1.9072,-1.9072,-1.9072,-1.9072,-1.9072,-1.9072,-1.9072,-1.9072,-1.9072,-1.9072,-1.9072,-1.9072,-1.9072,-1.9072,-1.9072,-1.9072,-1.9072,-1.9072,-1.9072,-1.9072,-1.9072,-1.9072,-1.9072,-1.9072,-1.9072,-1.9072,-1.9072,-1.9072,-1.9072,-1.9072,-1.9072,-1.9072,-1.9072,-1.9072,-1.9072,-1.9072,-1.9072,-1.9072,-1.9078,-1.9132,-1.9181,-1.9181,-1.9175,-1.9247,-1.9259,-1.9138,-1.9078,-1.9084,-1.9175,-1.9283,-1.9525,-1.9742,-1.9784,-1.9869,-2.0026,-2.0219,-2.034,-2.0334,-2.0291,-2.0104,-1.9712,-1.9446,-1.9301,-1.9205,-1.9102,-1.9072,-1.9072,-1.9072,-1.9072,-1.9072,-1.9072,-1.9072,-2.0665,-2.0665,-2.0665,-2.0665,-2.0665,-2.0665,-2.0665,-2.0665,-2.0665,-2.0665,-2.0665,-2.0665,-2.0665,-2.0665,-2.0665,-2.0376,-1.9929,-1.9591,-1.9326,-1.912,-1.9072,-1.9072,-1.9072,-1.9072,-1.9072,-1.9072,-1.9072,-1.9072,-1.9072,-1.9072,-1.9072,-1.9072,-1.9072,-1.9072,-1.9072,-1.9072,-1.9072,-1.9072,-1.9072,-1.9072,-1.9072,-1.9072,-1.9072,-1.9072,-1.9072,-1.9072,-1.9072,-1.9072,-1.9072,-1.9072,-1.9072,-1.9072,-1.9072,-1.9072,-1.9072,-1.9072,-1.9072,-1.9072,-1.9072,-1.9072,-1.9072,-1.9072,-1.9072,-1.9072,-1.9072,-1.9072,-1.9072,-1.9072,-1.9072,-1.9072,-1.9072,-1.9072,-1.9072,-1.9072,-1.9078,-1.9084,-1.9078,-1.9078,-1.909,-1.9096,-1.9078,-1.9084,-1.9108,-1.9151,-1.9181,-1.9199,-1.9205,-1.9157,-1.909,-1.912,-1.9145,-1.938,-1.9531,-1.973,-1.9971,-2.0062,-2.011,-2.0267,-2.0394,-2.0515,-2.0557,-2.0478,-2.0207,-1.9833,-1.9621,-1.9434,-1.9211,-1.9072,-1.9072,-1.9072,-1.9072,-1.9072,-1.9072,-1.9072,-1.9072,-2.0665,-2.0665,-2.0665,-2.0665,-2.0665,-2.0665,-2.0665,-2.0665,-2.0665,-2.0665,-2.0665,-2.0665,-2.0665,-2.0653,-2.0557,-2.0321,-1.9875,-1.9591,-1.9326,-1.9114,-1.9072,-1.9072,-1.9072,-1.9072,-1.9072,-1.9072,-1.9072,-1.9072,-1.9072,-1.9072,-1.9072,-1.9072,-1.9072,-1.9072,-1.9072,-1.9072,-1.9072,-1.9072,-1.9072,-1.9072,-1.9072,-1.9072,-1.9072,-1.9072,-1.9072,-1.9072,-1.9072,-1.9072,-1.9072,-1.9072,-1.9072,-1.9072,-1.9072,-1.9072,-1.9072,-1.9072,-1.9072,-1.9072,-1.9072,-1.9072,-1.9072,-1.9072,-1.9072,-1.9072,-1.9072,-1.9072,-1.9072,-1.9072,-1.9072,-1.9072,-1.9072,-1.9072,-1.9072,-1.9096,-1.9126,-1.9163,-1.9187,-1.9199,-1.9205,-1.9181,-1.9114,-1.909,-1.9102,-1.9114,-1.9145,-1.9145,-1.9151,-1.9151,-1.9108,-1.9211,-1.9314,-1.9621,-1.9827,-1.9971,-2.0152,-2.0303,-2.0346,-2.0418,-2.0515,-2.0605,-2.0635,-2.0629,-2.0285,-1.9941,-1.9766,-1.9567,-1.9301,-1.9072,-1.9072,-1.9072,-1.9072,-1.9072,-1.9072,-1.9072,-1.9072,-2.0665,-2.0665,-2.0665,-2.0665,-2.0665,-2.0665,-2.0665,-2.0665,-2.0665,-2.0665,-2.0665,-2.0665,-2.0665,-2.0623,-2.0424,-2.0171,-1.9893,-1.9639,-1.9398,-1.9205,-1.9169,-1.9163,-1.9108,-1.9072,-1.9163,-1.9175,-1.9126,-1.9072,-1.9096,-1.9102,-1.9072,-1.9072,-1.9072,-1.9072,-1.9072,-1.9072,-1.9072,-1.9072,-1.9072,-1.9072,-1.9072,-1.9072,-1.9072,-1.9072,-1.9072,-1.9072,-1.9072,-1.9072,-1.9072,-1.9072,-1.9072,-1.9072,-1.9072,-1.9072,-1.9072,-1.9072,-1.9072,-1.9072,-1.9072,-1.9072,-1.9072,-1.9072,-1.9072,-1.9072,-1.9072,-1.9072,-1.9072,-1.9072,-1.9072,-1.9072,-1.9078,-1.909,-1.9078,-1.9181,-1.9307,-1.9392,-1.9422,-1.9422,-1.9422,-1.9301,-1.9247,-1.9138,-1.909,-1.9096,-1.9102,-1.9096,-1.9096,-1.9108,-1.9211,-1.9374,-1.9549,-1.9869,-2.0104,-2.0249,-2.0315,-2.0466,-2.0503,-2.0557,-2.0605,-2.0665,-2.0665,-2.0617,-2.0364,-2.0062,-1.9887,-1.9597,-1.9241,-1.9072,-1.9072,-1.9072,-1.9072,-1.9072,-1.9072,-1.9072,-1.9072,-2.0665,-2.0665,-2.0665,-2.0665,-2.0665,-2.0665,-2.0665,-2.0665,-2.0665,-2.0665,-2.0665,-2.0665,-2.0665,-2.0611,-2.0394,-2.0225,-2.0062,-1.9827,-1.9658,-1.9543,-1.9507,-1.9513,-1.9549,-1.9537,-1.9537,-1.9458,-1.938,-1.9314,-1.9265,-1.9157,-1.9072,-1.9078,-1.9072,-1.9072,-1.9072,-1.9072,-1.9072,-1.9072,-1.9072,-1.9072,-1.9072,-1.9072,-1.9072,-1.9072,-1.9072,-1.9072,-1.9072,-1.9072,-1.9072,-1.9072,-1.9072,-1.9072,-1.9072,-1.9072,-1.9072,-1.9072,-1.9072,-1.9072,-1.9072,-1.9072,-1.9072,-1.9072,-1.9072,-1.9072,-1.9072,-1.9072,-1.9072,-1.9072,-1.9072,-1.9078,-1.9126,-1.9211,-1.9277,-1.9374,-1.9543,-1.9639,-1.97,-1.9694,-1.9664,-1.9519,-1.9374,-1.9271,-1.9169,-1.9132,-1.9126,-1.9096,-1.9151,-1.9223,-1.9446,-1.9748,-1.9935,-2.0152,-2.0352,-2.0521,-2.0545,-2.0611,-2.0593,-2.0617,-2.0623,-2.0665,-2.0665,-2.0563,-2.0352,-2.0128,-1.9905,-1.9579,-1.9181,-1.9072,-1.9072,-1.9072,-1.9072,-1.9072,-1.9072,-1.9072,-1.9072,-2.0509,-2.0569,-2.0641,-2.0665,-2.0665,-2.0665,-2.0665,-2.0665,-2.0665,-2.0665,-2.0665,-2.0665,-2.0665,-2.0635,-2.0478,-2.0352,-2.0249,-2.0074,-1.9953,-1.9911,-1.9881,-1.9851,-1.9814,-1.9851,-1.9851,-1.9887,-1.9664,-1.9579,-1.9513,-1.9398,-1.9265,-1.9096,-1.9072,-1.9072,-1.9072,-1.9072,-1.9072,-1.9072,-1.9072,-1.9072,-1.9072,-1.9072,-1.9072,-1.9072,-1.9072,-1.9072,-1.9072,-1.9072,-1.9072,-1.9072,-1.9072,-1.9072,-1.9072,-1.9072,-1.9072,-1.9072,-1.9072,-1.9072,-1.9072,-1.9072,-1.9072,-1.9072,-1.9072,-1.9072,-1.9072,-1.9072,-1.9072,-1.9072,-1.9181,-1.9181,-1.9223,-1.9416,-1.9537,-1.9664,-1.9814,-1.9911,-1.9983,-1.9971,-1.9947,-1.9857,-1.9688,-1.9446,-1.9338,-1.9229,-1.9163,-1.9108,-1.9175,-1.9326,-1.9652,-2.0032,-2.0213,-2.0376,-2.0478,-2.0623,-2.0641,-2.0665,-2.0665,-2.0665,-2.0665,-2.0665,-2.0665,-2.0587,-2.0424,-2.0189,-1.9935,-1.9579,-1.9193,-1.9126,-1.9072,-1.9072,-1.9072,-1.9072,-1.9072,-1.9072,-1.9084,-2.008,-2.0321,-2.0557,-2.0653,-2.0665,-2.0665,-2.0665,-2.0665,-2.0665,-2.0665,-2.0665,-2.0653,-2.0635,-2.0629,-2.0569,-2.0448,-2.0273,-2.0255,-2.0146,-2.0002,-1.9893,-1.9965,-1.9989,-1.9996,-1.9953,-1.9947,-1.9875,-1.9863,-1.9839,-1.9754,-1.9476,-1.9157,-1.9223,-1.9126,-1.9138,-1.9217,-1.9169,-1.9151,-1.9132,-1.9096,-1.9084,-1.9072,-1.9072,-1.9072,-1.9072,-1.9072,-1.9072,-1.9072,-1.9072,-1.9072,-1.9072,-1.9072,-1.9072,-1.9072,-1.9072,-1.9072,-1.9072,-1.909,-1.912,-1.9096,-1.9072,-1.9072,-1.9072,-1.9072,-1.9072,-1.9084,-1.9084,-1.9145,-1.932,-1.9428,-1.9519,-1.9664,-1.9827,-1.9929,-2.0062,-2.0195,-2.0255,-2.0249,-2.0225,-2.0177,-2.0002,-1.9748,-1.9567,-1.947,-1.9307,-1.9247,-1.9519,-1.9676,-1.9917,-2.0243,-2.04,-2.0533,-2.0593,-2.0659,-2.0659,-2.0665,-2.0665,-2.0665,-2.0665,-2.0665,-2.0665,-2.0563,-2.049,-2.0201,-1.9923,-1.9567,-1.9259,-1.9163,-1.909,-1.9078,-1.9072,-1.9072,-1.9072,-1.9072,-1.9096,-1.9941,-2.0044,-2.0146,-2.037,-2.0665,-2.0665,-2.0665,-2.0665,-2.0665,-2.0665,-2.0647,-2.0509,-2.043,-2.043,-2.0424,-2.0382,-2.0303,-2.046,-2.0406,-2.0406,-2.037,-2.0364,-2.037,-2.034,-2.0376,-2.0315,-2.0225,-2.0128,-2.0122,-2.002,-1.9833,-1.9615,-1.9573,-1.9579,-1.9579,-1.9507,-1.9452,-1.9338,-1.9295,-1.9253,-1.9084,-1.9072,-1.9072,-1.9072,-1.9072,-1.9072,-1.9072,-1.9072,-1.9072,-1.9072,-1.9072,-1.9072,-1.9072,-1.9072,-1.9072,-1.9078,-1.9084,-1.9163,-1.9241,-1.9181,-1.9072,-1.9072,-1.9072,-1.9096,-1.9151,-1.9217,-1.9301,-1.9404,-1.9561,-1.9712,-1.976,-1.9953,-2.0134,-2.0195,-2.0291,-2.0436,-2.0484,-2.046,-2.0406,-2.0321,-2.0207,-2.0026,-1.9869,-1.973,-1.9549,-1.9422,-1.9742,-2.0032,-2.0237,-2.0394,-2.0527,-2.0599,-2.0647,-2.0665,-2.0665,-2.0665,-2.0665,-2.0665,-2.0665,-2.0665,-2.0665,-2.0659,-2.0539,-2.0237,-1.9971,-1.9712,-1.9452,-1.9217,-1.9108,-1.909,-1.9078,-1.9072,-1.9072,-1.9096,-1.9187,-1.9694,-1.9754,-1.976,-2.002,-2.0412,-2.0436,-2.0436,-2.0436,-2.0424,-2.0436,-2.0424,-2.0237,-2.0158,-2.0158,-2.0158,-2.0237,-2.0291,-2.0436,-2.0569,-2.0599,-2.0623,-2.0665,-2.0665,-2.0647,-2.0593,-2.0623,-2.0527,-2.0394,-2.0388,-2.0201,-2.0146,-2.0134,-2.0104,-2.0056,-1.9851,-1.9875,-1.9784,-1.9639,-1.9573,-1.9452,-1.9241,-1.9205,-1.9126,-1.9102,-1.9072,-1.9072,-1.9072,-1.9072,-1.9072,-1.9072,-1.9072,-1.9072,-1.9072,-1.9072,-1.9072,-1.9096,-1.9169,-1.9283,-1.9362,-1.941,-1.9307,-1.9386,-1.9368,-1.9356,-1.9368,-1.9483,-1.9585,-1.9621,-1.9833,-2.0002,-2.002,-2.0225,-2.0376,-2.0436,-2.0484,-2.0599,-2.0605,-2.0593,-2.0527,-2.0454,-2.0358,-2.0297,-2.0134,-1.9996,-1.9929,-1.9802,-1.9947,-2.0213,-2.0412,-2.0539,-2.0605,-2.0647,-2.0659,-2.0665,-2.0665,-2.0665,-2.0665,-2.0665,-2.0665,-2.0665,-2.0665,-2.0665,-2.0575,-2.0297,-2.0062,-1.9875,-1.97,-1.9519,-1.9301,-1.9102,-1.9108,-1.9138,-1.9235,-1.9289,-1.9404,-1.9259,-1.9464,-1.9476,-1.9645,-1.9899,-1.9911,-1.9935,-1.9983,-1.9971,-1.9971,-1.9983,-1.9911,-1.9887,-1.9893,-1.9893,-2.0008,-2.0207,-2.0291,-2.0436,-2.0623,-2.0665,-2.0665,-2.0665,-2.0665,-2.0665,-2.0665,-2.0611,-2.0593,-2.0623,-2.0539,-2.0551,-2.0563,-2.0478,-2.0364,-1.9941,-1.9905,-1.9893,-1.9881,-1.9881,-1.9718,-1.9525,-1.9464,-1.9356,-1.9259,-1.9157,-1.9157,-1.9157,-1.909,-1.9078,-1.9072,-1.9072,-1.9072,-1.9072,-1.9072,-1.9072,-1.9078,-1.9307,-1.944,-1.9501,-1.9724,-1.9814,-1.976,-1.9676,-1.9718,-1.9802,-1.9869,-1.9875,-1.9893,-2.0116,-2.0249,-2.0358,-2.0466,-2.0563,-2.0617,-2.0653,-2.0665,-2.0665,-2.0665,-2.0593,-2.0557,-2.0587,-2.0569,-2.0394,-2.0273,-2.0273,-2.0243,-2.0255,-2.0388,-2.0563,-2.0623,-2.0665,-2.0665,-2.0665,-2.0665,-2.0665,-2.0665,-2.0665,-2.0665,-2.0665,-2.0665,-2.0665,-2.0665,-2.0533,-2.0334,-2.0201,-2.0056,-1.9959,-1.9857,-1.9609,-1.9368,-1.9241,-1.9253,-1.9368,-1.9501,-1.9621,-1.912,-1.9211,-1.9205,-1.9259,-1.9398,-1.9742,-1.9881,-1.9881,-1.9881,-1.9881,-1.9839,-1.9706,-1.9609,-1.9609,-1.9633,-1.9754,-2.0002,-2.0249,-2.0418,-2.0635,-2.0659,-2.0665,-2.0665,-2.0665,-2.0665,-2.0665,-2.0665,-2.0665,-2.0659,-2.0665,-2.0665,-2.0665,-2.0659,-2.0575,-2.0454,-2.0394,-2.0352,-2.0183,-2.0122,-2.002,-1.9778,-1.9736,-1.9688,-1.9579,-1.9422,-1.9344,-1.9326,-1.9229,-1.9145,-1.9114,-1.9108,-1.909,-1.9078,-1.9072,-1.9084,-1.9132,-1.9338,-1.9658,-1.9935,-2.0213,-2.0207,-2.005,-1.9935,-1.9941,-1.9899,-2.0068,-2.0116,-2.0189,-2.0364,-2.0478,-2.0575,-2.0593,-2.0647,-2.0647,-2.0665,-2.0665,-2.0665,-2.0665,-2.0641,-2.0635,-2.0653,-2.0647,-2.0539,-2.046,-2.0454,-2.0472,-2.0466,-2.049,-2.0629,-2.0647,-2.0665,-2.0665,-2.0665,-2.0665,-2.0665,-2.0665,-2.0665,-2.0665,-2.0665,-2.0665,-2.0665,-2.0665,-2.0629,-2.0503,-2.0376,-2.0249,-2.0177,-2.0074,-1.9869,-1.9676,-1.9627,-1.9579,-1.9676,-1.9784,-1.9869,-1.9072,-1.9072,-1.9072,-1.9072,-1.9126,-1.9458,-1.9609,-1.9603,-1.9609,-1.9609,-1.9555,-1.9398,-1.9332,-1.9332,-1.9356,-1.9476,-1.9754,-2.002,-2.0279,-2.0521,-2.0641,-2.0653,-2.0665,-2.0665,-2.0665,-2.0665,-2.0665,-2.0665,-2.0665,-2.0665,-2.0665,-2.0665,-2.0665,-2.0641,-2.0629,-2.0599,-2.0569,-2.043,-2.0388,-2.0285,-2.0098,-2.0008,-1.9965,-1.9845,-1.9718,-1.9609,-1.9561,-1.9452,-1.9301,-1.9247,-1.9205,-1.9163,-1.9126,-1.9084,-1.9126,-1.9247,-1.9585,-1.9953,-2.034,-2.0509,-2.0436,-2.0249,-2.0165,-2.0158,-2.0171,-2.0334,-2.0388,-2.0466,-2.0587,-2.0629,-2.0659,-2.0665,-2.0665,-2.0665,-2.0665,-2.0665,-2.0665,-2.0665,-2.0665,-2.0665,-2.0665,-2.0665,-2.0665,-2.0653,-2.0611,-2.0635,-2.0653,-2.0665,-2.0665,-2.0665,-2.0665,-2.0665,-2.0665,-2.0665,-2.0665,-2.0665,-2.0665,-2.0665,-2.0665,-2.0665,-2.0665,-2.0665,-2.0665,-2.0665,-2.0539,-2.0442,-2.04,-2.0291,-2.0177,-2.0146,-2.0165,-2.011,-2.005,-2.0062,-2.0116,-1.9072,-1.9072,-1.9072,-1.9072,-1.9078,-1.9126,-1.9114,-1.9096,-1.9096,-1.9114,-1.9096,-1.9126,-1.912,-1.9096,-1.909,-1.9253,-1.9495,-1.9772,-2.005,-2.0297,-2.0509,-2.0587,-2.0653,-2.0665,-2.0665,-2.0665,-2.0665,-2.0665,-2.0665,-2.0665,-2.0665,-2.0665,-2.0665,-2.0665,-2.0665,-2.0659,-2.0641,-2.0599,-2.0575,-2.0466,-2.0321,-2.0285,-2.0201,-2.0074,-1.9953,-1.9905,-1.9863,-1.9802,-1.9664,-1.9567,-1.9483,-1.9332,-1.9217,-1.9114,-1.9271,-1.9555,-2.0008,-2.0297,-2.0557,-2.0653,-2.0653,-2.0521,-2.0575,-2.0635,-2.0611,-2.0563,-2.0569,-2.0587,-2.0647,-2.0653,-2.0665,-2.0665,-2.0665,-2.0665,-2.0665,-2.0665,-2.0665,-2.0665,-2.0665,-2.0665,-2.0665,-2.0665,-2.0665,-2.0665,-2.0665,-2.0665,-2.0665,-2.0665,-2.0665,-2.0665,-2.0665,-2.0665,-2.0665,-2.0665,-2.0665,-2.0665,-2.0665,-2.0665,-2.0665,-2.0665,-2.0665,-2.0665,-2.0665,-2.0665,-2.0665,-2.0617,-2.0545,-2.0551,-2.0581,-2.0563,-2.0472,-2.043,-2.0303,-2.0297,-2.0352,-1.9072,-1.9072,-1.9072,-1.9072,-1.9072,-1.9072,-1.9072,-1.9072,-1.9072,-1.9072,-1.9072,-1.9072,-1.9072,-1.9072,-1.9078,-1.9241,-1.9404,-1.9603,-1.9911,-2.0146,-2.0327,-2.0496,-2.0599,-2.0641,-2.0659,-2.0665,-2.0665,-2.0665,-2.0665,-2.0665,-2.0665,-2.0665,-2.0665,-2.0665,-2.0665,-2.0665,-2.0665,-2.0665,-2.0665,-2.0605,-2.0551,-2.0521,-2.0442,-2.0376,-2.0225,-2.0189,-2.0152,-2.0014,-1.9869,-1.9796,-1.9766,-1.9688,-1.9682,-1.9664,-1.9772,-2.0008,-2.0231,-2.0382,-2.0611,-2.0665,-2.0665,-2.0665,-2.0665,-2.0665,-2.0665,-2.0665,-2.0665,-2.0665,-2.0665,-2.0665,-2.0665,-2.0665,-2.0665,-2.0665,-2.0665,-2.0665,-2.0665,-2.0665,-2.0665,-2.0665,-2.0665,-2.0665,-2.0665,-2.0665,-2.0665,-2.0665,-2.0665,-2.0665,-2.0665,-2.0665,-2.0665,-2.0665,-2.0665,-2.0665,-2.0665,-2.0665,-2.0665,-2.0665,-2.0665,-2.0665,-2.0665,-2.0665,-2.0665,-2.0665,-2.0665,-2.0665,-2.0653,-2.0665,-2.0665,-2.0665,-2.0599,-2.0593,-2.0575,-2.0527,-2.0509,-1.9072,-1.9072,-1.9072,-1.9072,-1.9072,-1.9072,-1.9072,-1.9072,-1.9072,-1.9072,-1.9072,-1.9072,-1.9072,-1.9072,-1.9084,-1.9157,-1.9289,-1.9446,-1.9664,-1.9827,-2.0074,-2.0273,-2.0424,-2.0527,-2.0575,-2.0611,-2.0659,-2.0665,-2.0659,-2.0665,-2.0665,-2.0665,-2.0665,-2.0665,-2.0665,-2.0665,-2.0665,-2.0665,-2.0665,-2.0665,-2.0665,-2.0665,-2.0665,-2.0635,-2.0478,-2.0442,-2.0406,-2.0219,-2.0158,-2.0068,-2.0044,-1.9971,-1.9959,-1.9959,-2.0056,-2.0255,-2.0394,-2.0503,-2.0647,-2.0665,-2.0665,-2.0665,-2.0665,-2.0665,-2.0665,-2.0665,-2.0665,-2.0665,-2.0665,-2.0665,-2.0665,-2.0665,-2.0665,-2.0665,-2.0665,-2.0665,-2.0665,-2.0665,-2.0665,-2.0665,-2.0665,-2.0665,-2.0665,-2.0665,-2.0665,-2.0665,-2.0665,-2.0665,-2.0665,-2.0665,-2.0665,-2.0665,-2.0665,-2.0665,-2.0665,-2.0665,-2.0665,-2.0665,-2.0665,-2.0665,-2.0665,-2.0665,-2.0665,-2.0665,-2.0665,-2.0665,-2.0665,-2.0665,-2.0665,-2.0665,-2.0665,-2.0647,-2.0629,-2.0623,-2.0617,-1.9072,-1.9072,-1.9072,-1.9072,-1.9072,-1.9072,-1.9072,-1.9072,-1.9072,-1.9072,-1.9072,-1.9072,-1.9072,-1.9072,-1.9078,-1.9078,-1.9181,-1.9307,-1.9428,-1.9489,-1.9742,-1.9989,-2.0177,-2.0261,-2.0321,-2.0503,-2.0569,-2.0478,-2.0593,-2.0599,-2.0587,-2.0653,-2.0665,-2.0665,-2.0665,-2.0665,-2.0665,-2.0665,-2.0665,-2.0665,-2.0665,-2.0665,-2.0665,-2.0665,-2.0647,-2.0641,-2.0647,-2.0605,-2.0557,-2.0394,-2.0279,-2.0189,-2.0165,-2.0183,-2.0297,-2.037,-2.0521,-2.0593,-2.0653,-2.0665,-2.0665,-2.0665,-2.0665,-2.0665,-2.0665,-2.0665,-2.0665,-2.0665,-2.0665,-2.0665,-2.0665,-2.0665,-2.0665,-2.0665,-2.0665,-2.0665,-2.0665,-2.0665,-2.0665,-2.0665,-2.0665,-2.0665,-2.0665,-2.0665,-2.0665,-2.0665,-2.0665,-2.0665,-2.0665,-2.0665,-2.0665,-2.0665,-2.0665,-2.0665,-2.0665,-2.0665,-2.0665,-2.0665,-2.0665,-2.0665,-2.0665,-2.0665,-2.0665,-2.0665,-2.0665,-2.0665,-2.0665,-2.0665,-2.0665,-2.0665,-2.0665,-2.0665,-2.0665,-2.0665,-2.0665,-1.9072,-1.9072,-1.9072,-1.9072,-1.9072,-1.9072,-1.9072,-1.9072,-1.9072,-1.9072,-1.9072,-1.9072,-1.9072,-1.9072,-1.9072,-1.9072,-1.9108,-1.9175,-1.9295,-1.9398,-1.9555,-1.9718,-1.9935,-1.9983,-2.0038,-2.0038,-2.0092,-2.0219,-2.0346,-2.0394,-2.0484,-2.0635,-2.0659,-2.0665,-2.0665,-2.0665,-2.0665,-2.0665,-2.0665,-2.0665,-2.0665,-2.0665,-2.0665,-2.0665,-2.0665,-2.0665,-2.0665,-2.0659,-2.0635,-2.0575,-2.0575,-2.0539,-2.0503,-2.0545,-2.0563,-2.0587,-2.0617,-2.0653,-2.0665,-2.0665,-2.0665,-2.0665,-2.0665,-2.0665,-2.0665,-2.0665,-2.0665,-2.0665,-2.0665,-2.0665,-2.0665,-2.0665,-2.0665,-2.0665,-2.0665,-2.0665,-2.0665,-2.0665,-2.0665,-2.0665,-2.0665,-2.0665,-2.0665,-2.0665,-2.0665,-2.0665,-2.0665,-2.0665,-2.0665,-2.0665,-2.0665,-2.0665,-2.0665,-2.0665,-2.0665,-2.0665,-2.0665,-2.0665,-2.0665,-2.0665,-2.0665,-2.0665,-2.0665,-2.0665,-2.0665,-2.0665,-2.0665,-2.0665,-2.0665,-2.0665,-2.0665,-2.0665,-2.0665,-2.0665,-2.0665,-1.9072,-1.9072,-1.9072,-1.9072,-1.9072,-1.9072,-1.9072,-1.9072,-1.9072,-1.9072,-1.9072,-1.9072,-1.9072,-1.9072,-1.9072,-1.9072,-1.9072,-1.9072,-1.9157,-1.9259,-1.9344,-1.947,-1.9597,-1.9706,-1.9833,-1.9839,-1.9881,-1.9996,-2.0098,-2.0261,-2.0394,-2.0509,-2.0569,-2.0659,-2.0659,-2.0665,-2.0665,-2.0665,-2.0665,-2.0665,-2.0665,-2.0665,-2.0665,-2.0665,-2.0665,-2.0665,-2.0665,-2.0665,-2.0665,-2.0665,-2.0653,-2.0653,-2.0623,-2.0635,-2.0653,-2.0653,-2.0659,-2.0665,-2.0665,-2.0665,-2.0665,-2.0665,-2.0665,-2.0665,-2.0665,-2.0665,-2.0665,-2.0665,-2.0665,-2.0665,-2.0665,-2.0665,-2.0665,-2.0665,-2.0665,-2.0665,-2.0665,-2.0665,-2.0665,-2.0665,-2.0665,-2.0665,-2.0665,-2.0665,-2.0665,-2.0665,-2.0665,-2.0665,-2.0665,-2.0665,-2.0665,-2.0665,-2.0665,-2.0665,-2.0665,-2.0665,-2.0665,-2.0665,-2.0665,-2.0665,-2.0665,-2.0665,-2.0665,-2.0665,-2.0665,-2.0665,-2.0665,-2.0665,-2.0665,-2.0665,-2.0665,-2.0665,-2.0665,-2.0665,-2.0665,-1.9072,-1.9072,-1.9072,-1.9072,-1.9072,-1.9072,-1.9072,-1.9072,-1.9072,-1.9072,-1.9072,-1.9072,-1.9072,-1.9072,-1.9072,-1.9072,-1.9072,-1.9072,-1.909,-1.9096,-1.9102,-1.9247,-1.935,-1.9434,-1.9537,-1.9627,-1.9676,-1.9742,-1.9827,-1.9977,-2.0116,-2.0279,-2.046,-2.0629,-2.0653,-2.0665,-2.0665,-2.0665,-2.0665,-2.0665,-2.0665,-2.0665,-2.0665,-2.0665,-2.0665,-2.0665,-2.0665,-2.0665,-2.0665,-2.0665,-2.0665,-2.0665,-2.0665,-2.0665,-2.0665,-2.0665,-2.0665,-2.0665,-2.0665,-2.0665,-2.0665,-2.0665,-2.0665,-2.0665,-2.0665,-2.0665,-2.0665,-2.0665,-2.0665,-2.0665,-2.0665,-2.0665,-2.0665,-2.0665,-2.0665,-2.0665,-2.0665,-2.0665,-2.0665,-2.0665,-2.0665,-2.0665,-2.0665,-2.0665,-2.0665,-2.0665,-2.0665,-2.0665,-2.0665,-2.0665,-2.0665,-2.0665,-2.0665,-2.0665,-2.0665,-2.0665,-2.0665,-2.0665,-2.0665,-2.0665,-2.0665,-2.0665,-2.0665,-2.0665,-2.0665,-2.0665,-2.0665,-2.0665,-2.0665,-2.0665,-2.0665,-2.0665,-2.0665,-2.0665,-2.0665,-1.9072,-1.9072,-1.9072,-1.9072,-1.9072,-1.9072,-1.9072,-1.9072,-1.9072,-1.9072,-1.9072,-1.9072,-1.9072,-1.9072,-1.9072,-1.9072,-1.9072,-1.9072,-1.9072,-1.9072,-1.9072,-1.9114,-1.9157,-1.9229,-1.9199,-1.9265,-1.9338,-1.9374,-1.9543,-1.9639,-1.9857,-2.0207,-2.0285,-2.046,-2.0647,-2.0659,-2.0665,-2.0665,-2.0665,-2.0665,-2.0665,-2.0665,-2.0665,-2.0665,-2.0665,-2.0665,-2.0665,-2.0665,-2.0665,-2.0665,-2.0665,-2.0665,-2.0665,-2.0665,-2.0665,-2.0665,-2.0665,-2.0665,-2.0665,-2.0665,-2.0665,-2.0665,-2.0665,-2.0665,-2.0665,-2.0665,-2.0665,-2.0665,-2.0665,-2.0665,-2.0665,-2.0665,-2.0665,-2.0665,-2.0665,-2.0665,-2.0665,-2.0665,-2.0665,-2.0665,-2.0665,-2.0665,-2.0665,-2.0665,-2.0665,-2.0665,-2.0665,-2.0665,-2.0665,-2.0665,-2.0665,-2.0665,-2.0665,-2.0665,-2.0665,-2.0665,-2.0665,-2.0665,-2.0665,-2.0665,-2.0665,-2.0665,-2.0665,-2.0665,-2.0665,-2.0665,-2.0665,-2.0665,-2.0665,-2.0665,-2.0665,-2.0665,-2.0665,-2.0665,-2.0665]},{"header":{"parameterUnit":"m.s-1","parameterCategory":1,"la1":31.0,"la2":29.5877,"lo1":-88.7671,"lo2":-86.6584,"dy":0.0162,"dx":0.0185,"nx":115,"ny":88,"refTime":"2024-06-24T06:00:00:Z","depth":0,"parameterNumber":3,"parameterNumberName":"V-component_of_WINDS"},"data":[0.0,0.0,0.0,0.0,0.0,0.0,0.0,0.0,0.0,0.0,0.0,0.0,0.0,0.0,0.0,0.0,0.0,0.0,0.0,0.0,0.0,0.0,0.0,0.0,0.0,0.0,0.0,0.0,0.0,0.0,0.0,0.0,0.0,0.0,0.0,0.0,0.0,0.0,0.0,0.0,0.0,0.0,0.0,0.0,0.0,0.0,0.0,0.0,0.0,0.0,0.0,0.0,0.0,0.0,0.0,0.0,0.0,0.0,0.0,0.0,0.0,0.0,0.0,0.0,0.0,0.0,0.0,0.0,0.0,0.0,0.0,0.0,0.0,0.0,0.0,0.0,0.0,0.0,0.0,0.0,0.0,0.0,0.0,0.0,0.0,0.0,0.0,0.0,0.0,0.0,0.0,0.0,0.0,0.0,0.0,0.0,0.0,0.0,0.0,0.0,0.0,0.0,0.0,0.0,0.0,0.0,0.0,0.0,0.0,0.0,0.0,0.0,0.0,0.0,0.0,0.0,0.0,0.0,0.0,0.0,0.0,0.0,0.0,0.0,0.0,0.0,0.0,0.0,0.0,0.0,0.0,0.0,0.0,0.0,0.0,0.0,0.0,0.0,0.0,0.0,0.0,0.0,0.0,0.0,0.0,0.0,0.0,0.0,0.0,0.0,0.0,0.0,0.0,0.0,0.0,0.0,0.0,0.0,0.0,0.0,0.0,0.0,0.0,0.0,0.0,0.0,0.0,0.0,0.0,0.0,0.0,0.0,0.0,0.0,0.0,0.0,0.0,0.0,0.0,0.0,0.0,0.0,0.0,0.0,0.0,0.0,0.0,0.0,0.0,0.0,0.0,0.0,0.0,0.0,0.0,0.0,0.0,0.0,0.0,0.0,0.0,0.0,0.0,0.0,0.0,0.0,0.0,0.0,0.0,0.0,0.0,0.0,0.0,0.0,0.0,0.0,0.0,0.0,0.0,0.0,0.0,0.0,0.0,0.0,0.0,0.0,0.0,0.0,0.0,0.0,0.0,0.0,0.0,0.0,0.0,0.0,0.0,0.0,0.0,0.0,0.0,0.0,0.0,0.0,0.0,0.0,0.0,0.0,0.0,0.0,0.0,0.0,0.0,0.0,0.0,0.0,0.0,0.0,0.0,0.0,0.0,0.0,0.0,0.0,0.0,0.0,0.0,0.0,0.0,0.0,0.0,0.0,0.0,0.0,0.0,0.0,0.0,0.0,0.0,0.0,0.0,0.0,0.0,0.0,0.0,0.0,0.0,0.0,0.0,0.0,0.0,0.0,0.0,0.0,0.0,0.0,0.0,0.0,0.0,0.0,0.0,0.0,0.0,0.0,0.0,0.0,0.0,0.0,0.0,0.0,0.0,0.0,0.0,0.0,0.0,0.0,0.0,0.0,0.0,0.0,0.0,0.0,0.0,0.0,0.0,0.0,0.0,0.0,0.0,0.0,0.0,0.0,0.0,0.0,0.0,0.0,0.0,0.0,0.0,0.0,0.0,0.0,0.0,0.0,0.0,0.0,0.0,0.0,0.0,0.0,0.0,0.0,0.0,0.0,0.0,0.0,0.0,0.0,0.0,0.0,0.0,0.0,0.0,0.0,0.0,0.0,0.0,0.0,0.0,0.0,0.0,0.0,0.0,0.0,0.0,0.0,0.0,0.0,0.0,0.0,0.0,0.0,0.0,0.0,0.0,0.0,0.0,0.0,0.0,0.0,0.0,0.0,0.0,0.0,0.0,0.0,0.0,0.0,0.0,0.0,0.0,0.0,0.0,0.0,0.0,0.0,0.0,0.0,0.0,0.0,0.0,0.0,0.0,0.0,0.0,0.0,0.0,0.0,0.0,0.0,0.0,0.0,0.0,0.0,0.0,0.0,0.0,0.0,0.0,0.0,0.0,0.0,0.0,0.0,0.0,0.0,0.0,0.0,0.0,0.0,0.0,0.0,0.0,0.0,0.0,0.0,0.0,0.0,0.0,0.0,0.0,0.0,0.0,0.0,0.0,0.0,0.0,0.0,0.0,0.0,0.0,0.0,0.0,0.0,0.0,0.0,0.0,0.0,0.0,0.0,0.0,0.0,0.0,0.0,0.0,0.0,0.0,0.0,0.0,0.0,0.0,0.0,0.0,0.0,0.0,0.0,0.0,0.0,0.0,0.0,0.0,0.0,0.0,0.0,0.0,0.0,0.0,0.0,0.0,0.0,0.0,0.0,0.0,0.0,0.0,0.0,0.0,0.0,0.0,0.0,0.0,0.0,0.0,0.0,0.0,0.0,0.0,0.0,0.0,0.0,0.0,0.0,0.0,0.0,0.0,0.0,0.0,0.0,0.0,0.0,0.0,0.0,0.0,0.0,0.0,0.0,0.0,0.0,0.0,0.0,0.0,0.0,0.0,0.0,0.0,0.0,0.0,0.0,0.0,0.0,0.0,0.0,0.0,0.0,0.0,0.0,0.0,0.0,0.0,0.0,0.0,0.0,0.0,0.0,0.0,0.0,0.0,0.0,0.0,0.0,0.0,0.0,0.0,0.0,0.0,0.0,0.0,0.0,0.0,0.0,0.0,0.0,0.0,0.0,0.0,0.0,0.0,0.0,0.0,0.0,0.0,0.0,0.0,0.0,0.0,0.0,0.0,0.0,0.0,0.0,0.0,0.0,0.0,0.0,0.0,0.0,0.0,0.0,0.0,0.0,0.0,0.0,0.0,0.0,0.0,0.0,0.0,0.0,0.0,0.0,0.0,0.0,0.0,0.0,0.0,0.0,0.0,0.0,0.0,0.0,0.0,0.0,0.0,0.0,0.0,0.0,0.0,0.0,0.0,0.0,0.0,0.0,0.0,0.0,0.0,0.0,0.0,0.0,0.0,0.0,0.0,0.0,0.0,0.0,0.0,0.0,0.0,0.0,0.0,0.0,0.0,0.0,0.0,0.0,0.0,0.0,0.0,0.0,0.0,0.0,0.0,0.0,0.0,0.0,0.0,0.0,0.0,0.0,0.0,0.0,0.0,0.0,0.0,0.0,0.0,0.0,0.0,0.0,0.0,0.0,0.0,0.0,0.0,0.0,0.0,0.0,0.0,0.0,0.0,0.0,0.0,0.0,0.0,0.0,0.0,0.0,0.0,0.0,0.0,0.0,0.0,0.0,0.0,0.0,0.0,0.0,0.0,0.0,0.0,0.0,0.0,0.0,0.0,0.0,0.0,0.0,0.0,0.0,0.0,0.0,0.0,0.0,0.0,0.0,0.0,0.0,0.0,0.0,0.0,0.0,0.0,0.0,0.0,0.0,0.0,0.0,0.0,0.0,0.0,0.0,0.0,0.0,0.0,0.0,0.0,0.0,0.0,0.0,0.0,0.0,0.0,0.0,0.0,0.0,0.0,0.0,0.0,0.0,0.0,0.0,0.0,0.0,0.0,0.0,0.0,0.0,0.0,0.0,0.0,0.0,0.0,0.0,0.0,0.0,0.0,0.0,0.0,0.0,0.0,0.0,0.0,0.0,0.0,0.0,0.0,0.0,0.0,0.0,0.0,0.0,0.0,0.0,0.0,0.0,0.0,0.0,0.0,0.0,0.0,0.0,0.0,0.0,0.0,0.0,0.0,0.0,0.0,0.0,0.0,0.0,0.0,0.0,0.0,0.0,0.0,0.0,0.0,0.0,0.0,0.0,0.0,0.0,0.0,0.0,0.0,0.0,0.0,0.0,0.0,0.0,0.0,0.0,0.0,0.0,0.0,0.0,0.0,0.0,0.0,0.0,0.0,0.0,0.0,0.0,0.0,0.0,0.0,0.0,0.0,0.0,0.0,0.0,0.0,0.0,0.0,0.0,0.0,0.0,0.0,0.0,0.0,0.0,0.0,0.0,0.0,0.0,0.0,0.0,0.0,0.0,0.0,0.0,0.0,0.0,0.0,0.0,0.0,0.0,0.0,0.0,0.0,0.0,0.0,0.0,0.0,0.0,0.0,0.0,0.0,0.0,0.0,0.0,0.0,0.0,0.0,0.0,0.0,0.0,0.0,0.0,0.0,0.0,0.0,0.0,0.0,0.0,0.0,0.0,0.0,0.0,0.0,0.0,0.0,0.0,0.0,0.0,0.0,0.0,0.0,0.0,0.0,0.0,0.0,0.0,0.0,0.0,0.0,0.0,0.0,0.0,0.0,0.0,0.0,0.0,0.0,0.0,0.0,0.0,0.0,0.0,0.0,0.0,0.0,0.0,0.0,0.0,0.0,0.0,0.0,0.0,0.0,0.0,0.0,0.0,0.0,0.0,-1.5852,0.0,0.0,0.0,0.0,0.0,0.0,0.0,0.0,0.0,0.0,0.0,0.0,0.0,0.0,0.0,0.0,0.0,0.0,0.0,0.0,0.0,0.0,0.0,0.0,0.0,0.0,0.0,0.0,0.0,0.0,0.0,0.0,0.0,0.0,0.0,0.0,0.0,0.0,0.0,0.0,0.0,0.0,0.0,0.0,0.0,0.0,0.0,0.0,0.0,0.0,0.0,0.0,0.0,0.0,0.0,0.0,0.0,0.0,0.0,0.0,0.0,0.0,0.0,0.0,0.0,0.0,0.0,0.0,0.0,0.0,0.0,0.0,0.0,0.0,0.0,0.0,0.0,0.0,0.0,0.0,0.0,0.0,0.0,0.0,0.0,0.0,0.0,0.0,0.0,0.0,0.0,0.0,0.0,0.0,0.0,0.0,0.0,0.0,0.0,0.0,0.0,0.0,0.0,0.0,0.0,0.0,0.0,0.0,0.0,0.0,-1.7083,-1.7083,-1.7131,-1.7147,-1.7131,0.0,0.0,0.0,0.0,0.0,0.0,0.0,0.0,0.0,0.0,0.0,0.0,0.0,0.0,0.0,0.0,0.0,0.0,0.0,0.0,0.0,0.0,0.0,0.0,0.0,0.0,0.0,0.0,0.0,0.0,0.0,0.0,0.0,0.0,0.0,0.0,0.0,0.0,0.0,0.0,0.0,0.0,0.0,0.0,0.0,0.0,0.0,0.0,0.0,0.0,0.0,0.0,0.0,0.0,0.0,0.0,0.0,0.0,0.0,0.0,0.0,0.0,0.0,0.0,0.0,0.0,0.0,0.0,0.0,0.0,0.0,0.0,0.0,0.0,0.0,0.0,0.0,0.0,0.0,0.0,0.0,0.0,0.0,0.0,0.0,0.0,0.0,0.0,0.0,0.0,0.0,0.0,0.0,0.0,0.0,0.0,0.0,0.0,0.0,0.0,0.0,0.0,0.0,0.0,0.0,0.0,0.0,0.0,0.0,0.0,0.0,0.0,-1.8097,-1.8292,-1.8156,0.0,0.0,0.0,0.0,0.0,0.0,0.0,0.0,0.0,0.0,0.0,0.0,0.0,0.0,0.0,0.0,0.0,0.0,0.0,0.0,0.0,0.0,0.0,0.0,0.0,0.0,0.0,0.0,0.0,0.0,0.0,0.0,0.0,0.0,0.0,0.0,0.0,0.0,0.0,0.0,0.0,0.0,0.0,0.0,0.0,0.0,0.0,0.0,0.0,0.0,0.0,0.0,0.0,0.0,0.0,0.0,0.0,0.0,0.0,0.0,0.0,0.0,0.0,0.0,0.0,0.0,0.0,0.0,0.0,0.0,0.0,0.0,0.0,0.0,0.0,0.0,0.0,0.0,0.0,0.0,0.0,0.0,0.0,0.0,0.0,0.0,0.0,0.0,0.0,0.0,0.0,0.0,0.0,0.0,0.0,0.0,0.0,0.0,0.0,0.0,0.0,0.0,0.0,0.0,0.0,0.0,0.0,0.0,0.0,0.0,-1.8313,-1.8989,-1.9142,0.0,-1.8336,0.0,0.0,0.0,0.0,0.0,0.0,0.0,0.0,0.0,0.0,0.0,0.0,0.0,0.0,0.0,0.0,0.0,0.0,0.0,0.0,0.0,0.0,0.0,0.0,0.0,0.0,0.0,0.0,0.0,0.0,0.0,0.0,0.0,0.0,0.0,0.0,0.0,0.0,0.0,0.0,0.0,0.0,0.0,0.0,0.0,0.0,0.0,0.0,0.0,0.0,0.0,0.0,0.0,0.0,0.0,0.0,0.0,0.0,0.0,0.0,0.0,0.0,0.0,0.0,0.0,0.0,0.0,0.0,0.0,0.0,0.0,0.0,0.0,0.0,0.0,0.0,0.0,0.0,0.0,0.0,0.0,0.0,0.0,0.0,0.0,0.0,0.0,0.0,0.0,0.0,0.0,0.0,0.0,0.0,0.0,0.0,0.0,0.0,0.0,0.0,0.0,0.0,0.0,0.0,0.0,0.0,0.0,0.0,0.0,0.0,0.0,-2.0078,-2.0529,-2.0256,0.0,0.0,0.0,0.0,0.0,0.0,0.0,0.0,0.0,0.0,0.0,0.0,0.0,0.0,0.0,0.0,0.0,0.0,0.0,0.0,0.0,0.0,0.0,0.0,0.0,0.0,0.0,0.0,0.0,0.0,0.0,0.0,0.0,0.0,0.0,0.0,0.0,0.0,0.0,0.0,0.0,0.0,0.0,0.0,0.0,0.0,0.0,0.0,0.0,0.0,0.0,0.0,0.0,0.0,0.0,0.0,0.0,0.0,0.0,0.0,0.0,0.0,0.0,0.0,0.0,0.0,0.0,0.0,0.0,0.0,0.0,0.0,0.0,0.0,0.0,0.0,0.0,0.0,0.0,0.0,0.0,0.0,0.0,0.0,0.0,0.0,0.0,0.0,0.0,0.0,0.0,0.0,0.0,0.0,0.0,0.0,0.0,0.0,0.0,0.0,0.0,0.0,0.0,0.0,0.0,0.0,0.0,0.0,0.0,0.0,-1.9887,0.0,-2.1071,-2.1599,-2.1128,-1.9458,0.0,0.0,0.0,0.0,0.0,0.0,0.0,0.0,0.0,0.0,0.0,0.0,0.0,0.0,0.0,0.0,0.0,0.0,0.0,0.0,0.0,0.0,0.0,0.0,0.0,0.0,0.0,0.0,0.0,0.0,0.0,0.0,0.0,0.0,0.0,0.0,0.0,0.0,0.0,0.0,0.0,0.0,0.0,0.0,0.0,0.0,0.0,0.0,0.0,0.0,0.0,0.0,0.0,0.0,0.0,0.0,0.0,0.0,0.0,0.0,0.0,0.0,0.0,0.0,0.0,0.0,0.0,0.0,0.0,0.0,0.0,0.0,0.0,0.0,0.0,0.0,0.0,0.0,0.0,0.0,0.0,0.0,0.0,0.0,0.0,0.0,0.0,0.0,0.0,0.0,0.0,0.0,0.0,0.0,0.0,0.0,0.0,0.0,0.0,0.0,0.0,0.0,0.0,0.0,0.0,0.0,0.0,0.0,0.0,-1.9907,-2.0569,-2.2029,-2.2079,-2.1086,0.0,0.0,0.0,0.0,0.0,0.0,0.0,0.0,0.0,0.0,0.0,0.0,0.0,0.0,0.0,0.0,0.0,0.0,0.0,0.0,0.0,0.0,0.0,0.0,0.0,0.0,0.0,0.0,0.0,0.0,0.0,0.0,0.0,0.0,0.0,0.0,0.0,0.0,0.0,0.0,0.0,0.0,0.0,0.0,0.0,0.0,0.0,0.0,0.0,0.0,0.0,0.0,0.0,0.0,0.0,0.0,0.0,0.0,0.0,0.0,0.0,0.0,0.0,0.0,0.0,0.0,0.0,0.0,0.0,0.0,0.0,0.0,0.0,0.0,0.0,0.0,0.0,0.0,0.0,0.0,0.0,0.0,0.0,0.0,0.0,0.0,0.0,0.0,0.0,0.0,0.0,0.0,0.0,0.0,0.0,0.0,0.0,0.0,0.0,0.0,0.0,0.0,0.0,0.0,0.0,0.0,0.0,0.0,0.0,-2.0178,-2.1458,-2.2649,0.0,-2.2836,-2.1317,0.0,0.0,0.0,0.0,0.0,0.0,0.0,0.0,0.0,0.0,0.0,0.0,0.0,0.0,0.0,0.0,0.0,0.0,0.0,0.0,0.0,0.0,0.0,0.0,0.0,0.0,0.0,0.0,0.0,0.0,0.0,0.0,0.0,0.0,0.0,0.0,0.0,0.0,0.0,0.0,0.0,0.0,0.0,0.0,0.0,0.0,0.0,0.0,0.0,0.0,0.0,0.0,0.0,0.0,0.0,0.0,0.0,0.0,0.0,0.0,0.0,0.0,0.0,0.0,0.0,0.0,0.0,0.0,0.0,0.0,0.0,0.0,0.0,0.0,0.0,0.0,0.0,0.0,0.0,0.0,0.0,0.0,0.0,0.0,0.0,0.0,0.0,0.0,0.0,0.0,0.0,0.0,0.0,0.0,0.0,0.0,0.0,0.0,0.0,0.0,0.0,0.0,0.0,0.0,0.0,0.0,0.0,0.0,0.0,-2.102,0.0,-2.4103,0.0,-2.3442,-2.173,0.0,0.0,0.0,0.0,0.0,0.0,0.0,0.0,0.0,0.0,0.0,0.0,0.0,0.0,0.0,0.0,0.0,0.0,0.0,0.0,0.0,0.0,0.0,0.0,0.0,0.0,0.0,0.0,0.0,0.0,0.0,0.0,0.0,0.0,0.0,0.0,0.0,0.0,0.0,0.0,0.0,0.0,0.0,0.0,0.0,0.0,0.0,0.0,0.0,0.0,0.0,0.0,0.0,0.0,0.0,0.0,0.0,0.0,0.0,0.0,0.0,0.0,0.0,0.0,0.0,0.0,0.0,0.0,0.0,0.0,0.0,0.0,0.0,0.0,0.0,0.0,0.0,0.0,0.0,0.0,0.0,0.0,0.0,0.0,0.0,0.0,0.0,0.0,0.0,0.0,0.0,0.0,0.0,0.0,0.0,0.0,0.0,0.0,0.0,0.0,0.0,0.0,0.0,0.0,0.0,0.0,0.0,0.0,-2.0504,-2.2694,-2.4229,-2.4666,-2.3891,-2.3822,-2.2375,0.0,0.0,0.0,0.0,0.0,0.0,0.0,0.0,0.0,0.0,0.0,0.0,0.0,0.0,0.0,0.0,0.0,0.0,0.0,0.0,0.0,0.0,0.0,0.0,0.0,0.0,0.0,0.0,0.0,0.0,0.0,0.0,0.0,0.0,0.0,0.0,0.0,0.0,0.0,0.0,0.0,0.0,0.0,0.0,0.0,0.0,0.0,0.0,0.0,0.0,0.0,0.0,0.0,0.0,0.0,0.0,0.0,0.0,0.0,0.0,0.0,0.0,0.0,0.0,0.0,0.0,0.0,0.0,0.0,0.0,0.0,0.0,0.0,0.0,0.0,0.0,0.0,0.0,0.0,0.0,0.0,0.0,0.0,0.0,0.0,0.0,0.0,0.0,0.0,0.0,0.0,0.0,0.0,0.0,0.0,0.0,0.0,0.0,0.0,0.0,0.0,0.0,0.0,0.0,0.0,0.0,0.0,0.0,0.0,-2.5046,-2.5576,-2.5945,-2.6161,-2.4689,-2.2695,0.0,0.0,0.0,0.0,0.0,0.0,0.0,0.0,0.0,0.0,0.0,0.0,0.0,0.0,0.0,0.0,0.0,0.0,0.0,0.0,0.0,0.0,0.0,0.0,0.0,0.0,0.0,0.0,0.0,0.0,0.0,0.0,0.0,0.0,0.0,0.0,0.0,0.0,0.0,0.0,0.0,0.0,0.0,0.0,0.0,0.0,0.0,0.0,0.0,0.0,0.0,0.0,0.0,0.0,0.0,0.0,0.0,0.0,0.0,0.0,0.0,0.0,0.0,0.0,0.0,0.0,0.0,0.0,0.0,0.0,0.0,0.0,0.0,0.0,0.0,0.0,0.0,0.0,0.0,0.0,0.0,0.0,0.0,0.0,0.0,0.0,0.0,0.0,0.0,0.0,0.0,0.0,0.0,0.0,0.0,0.0,0.0,0.0,0.0,0.0,0.0,0.0,0.0,0.0,0.0,0.0,0.0,0.0,0.0,-2.7407,-2.7525,-2.7687,-2.8109,-2.648,-2.44,-2.1856,0.0,0.0,0.0,0.0,0.0,0.0,0.0,0.0,0.0,0.0,0.0,0.0,0.0,0.0,0.0,0.0,0.0,0.0,0.0,0.0,0.0,0.0,0.0,0.0,0.0,0.0,0.0,0.0,0.0,0.0,0.0,0.0,0.0,0.0,0.0,0.0,0.0,0.0,0.0,0.0,0.0,0.0,0.0,0.0,0.0,0.0,0.0,0.0,0.0,0.0,0.0,0.0,0.0,0.0,0.0,0.0,0.0,0.0,0.0,0.0,0.0,0.0,0.0,0.0,0.0,0.0,0.0,0.0,0.0,0.0,0.0,0.0,0.0,0.0,0.0,0.0,0.0,0.0,0.0,0.0,0.0,0.0,0.0,0.0,0.0,0.0,0.0,0.0,0.0,0.0,0.0,0.0,0.0,0.0,0.0,0.0,0.0,0.0,0.0,0.0,0.0,0.0,0.0,0.0,0.0,0.0,0.0,0.0,-2.9917,-3.0056,-2.9989,-2.961,-2.8918,-2.7116,0.0,0.0,0.0,0.0,0.0,0.0,0.0,0.0,0.0,0.0,0.0,0.0,0.0,0.0,0.0,0.0,0.0,0.0,0.0,0.0,0.0,0.0,0.0,0.0,0.0,0.0,0.0,0.0,0.0,0.0,0.0,0.0,0.0,0.0,0.0,0.0,0.0,0.0,0.0,0.0,0.0,0.0,0.0,0.0,0.0,0.0,0.0,0.0,0.0,0.0,0.0,0.0,0.0,0.0,0.0,0.0,0.0,0.0,0.0,0.0,0.0,0.0,0.0,0.0,0.0,0.0,0.0,0.0,0.0,0.0,0.0,0.0,0.0,0.0,0.0,0.0,0.0,0.0,0.0,0.0,0.0,0.0,0.0,0.0,0.0,0.0,0.0,0.0,0.0,0.0,0.0,0.0,0.0,0.0,0.0,0.0,0.0,0.0,0.0,0.0,0.0,0.0,0.0,0.0,0.0,0.0,0.0,0.0,0.0,-3.3122,-3.4359,-3.374,-3.1282,-3.0006,-2.7941,0.0,0.0,0.0,0.0,0.0,0.0,0.0,0.0,0.0,0.0,0.0,0.0,0.0,0.0,0.0,0.0,0.0,0.0,0.0,0.0,0.0,0.0,0.0,0.0,0.0,0.0,0.0,0.0,0.0,0.0,0.0,0.0,0.0,0.0,0.0,0.0,0.0,0.0,0.0,0.0,0.0,0.0,0.0,0.0,0.0,0.0,0.0,0.0,0.0,0.0,0.0,0.0,0.0,0.0,0.0,0.0,0.0,0.0,0.0,0.0,0.0,0.0,0.0,0.0,0.0,0.0,0.0,0.0,0.0,0.0,0.0,0.0,0.0,0.0,0.0,0.0,0.0,0.0,0.0,0.0,0.0,0.0,0.0,0.0,0.0,0.0,0.0,0.0,0.0,0.0,0.0,0.0,0.0,0.0,0.0,0.0,0.0,0.0,0.0,0.0,0.0,0.0,0.0,0.0,0.0,0.0,0.0,0.0,-3.1637,-3.4469,-3.6614,-3.6475,-3.3904,-3.2472,-3.0296,0.0,0.0,0.0,0.0,0.0,0.0,0.0,0.0,0.0,0.0,0.0,0.0,0.0,0.0,0.0,0.0,0.0,0.0,0.0,0.0,0.0,0.0,0.0,0.0,0.0,0.0,0.0,0.0,0.0,0.0,0.0,0.0,0.0,0.0,0.0,0.0,0.0,0.0,0.0,0.0,0.0,0.0,0.0,0.0,0.0,0.0,0.0,0.0,0.0,0.0,0.0,0.0,0.0,0.0,0.0,0.0,0.0,0.0,0.0,0.0,0.0,0.0,0.0,0.0,0.0,0.0,0.0,0.0,0.0,0.0,0.0,0.0,0.0,0.0,0.0,0.0,0.0,0.0,0.0,0.0,0.0,0.0,0.0,0.0,0.0,0.0,0.0,0.0,0.0,0.0,0.0,0.0,0.0,0.0,0.0,0.0,0.0,0.0,0.0,0.0,0.0,0.0,0.0,0.0,0.0,0.0,0.0,0.0,-3.3194,-3.4891,-3.7696,-3.851,-3.7155,-3.5448,-3.3053,0.0,0.0,0.0,0.0,0.0,0.0,0.0,0.0,0.0,0.0,0.0,0.0,0.0,0.0,0.0,0.0,0.0,0.0,0.0,0.0,0.0,0.0,0.0,0.0,0.0,0.0,0.0,0.0,0.0,0.0,0.0,0.0,0.0,0.0,0.0,0.0,0.0,0.0,0.0,0.0,0.0,0.0,0.0,0.0,0.0,0.0,0.0,0.0,0.0,0.0,0.0,0.0,0.0,0.0,0.0,0.0,0.0,0.0,0.0,0.0,0.0,0.0,0.0,0.0,0.0,0.0,0.0,0.0,0.0,0.0,0.0,0.0,0.0,0.0,0.0,0.0,0.0,0.0,0.0,0.0,0.0,0.0,0.0,0.0,0.0,0.0,0.0,0.0,0.0,0.0,0.0,0.0,0.0,0.0,0.0,0.0,0.0,0.0,0.0,0.0,0.0,0.0,0.0,0.0,0.0,0.0,0.0,0.0,-3.4818,-3.7591,-3.9441,-4.0253,-3.9917,-3.6426,-3.3053,0.0,0.0,0.0,0.0,0.0,0.0,0.0,0.0,0.0,0.0,0.0,0.0,0.0,0.0,0.0,0.0,0.0,0.0,0.0,0.0,0.0,0.0,0.0,0.0,0.0,0.0,0.0,0.0,0.0,0.0,0.0,0.0,0.0,0.0,0.0,0.0,0.0,0.0,0.0,0.0,0.0,0.0,0.0,0.0,0.0,0.0,0.0,0.0,-2.252,0.0,0.0,0.0,0.0,0.0,0.0,0.0,0.0,0.0,0.0,0.0,0.0,0.0,0.0,0.0,0.0,0.0,0.0,0.0,0.0,0.0,0.0,0.0,0.0,0.0,0.0,0.0,0.0,0.0,0.0,0.0,0.0,0.0,0.0,0.0,0.0,0.0,0.0,0.0,0.0,0.0,0.0,0.0,0.0,0.0,0.0,0.0,0.0,0.0,0.0,0.0,0.0,0.0,0.0,0.0,0.0,0.0,0.0,0.0,-3.6185,-3.8567,-4.0463,-4.1239,-4.0778,-3.7588,-3.4514,0.0,0.0,0.0,0.0,0.0,0.0,0.0,0.0,0.0,0.0,0.0,0.0,0.0,0.0,0.0,0.0,0.0,0.0,0.0,0.0,0.0,0.0,0.0,0.0,0.0,0.0,0.0,0.0,0.0,0.0,0.0,0.0,0.0,0.0,0.0,0.0,0.0,0.0,0.0,0.0,0.0,0.0,0.0,0.0,0.0,0.0,0.0,0.0,0.0,0.0,0.0,0.0,0.0,0.0,0.0,0.0,0.0,0.0,0.0,0.0,0.0,0.0,0.0,0.0,0.0,0.0,0.0,0.0,0.0,0.0,0.0,0.0,0.0,0.0,0.0,0.0,0.0,0.0,0.0,0.0,0.0,0.0,0.0,0.0,0.0,0.0,0.0,0.0,0.0,0.0,0.0,0.0,0.0,0.0,0.0,0.0,0.0,0.0,0.0,0.0,0.0,0.0,0.0,0.0,0.0,0.0,0.0,-3.4282,-3.7435,-3.9045,-4.1109,-4.1854,-4.1069,-3.8673,-3.6201,-3.3668,0.0,0.0,0.0,0.0,0.0,0.0,0.0,0.0,0.0,0.0,0.0,0.0,0.0,0.0,0.0,0.0,0.0,0.0,0.0,0.0,0.0,0.0,0.0,0.0,0.0,0.0,0.0,0.0,0.0,0.0,0.0,0.0,0.0,0.0,0.0,0.0,0.0,0.0,-2.1402,-2.3667,0.0,0.0,0.0,0.0,0.0,0.0,0.0,0.0,-2.5461,0.0,0.0,0.0,0.0,0.0,0.0,0.0,0.0,0.0,0.0,0.0,0.0,0.0,0.0,0.0,0.0,0.0,0.0,0.0,0.0,0.0,0.0,0.0,0.0,0.0,0.0,0.0,0.0,0.0,0.0,0.0,0.0,0.0,0.0,0.0,0.0,0.0,0.0,0.0,0.0,0.0,0.0,0.0,0.0,0.0,0.0,0.0,0.0,0.0,0.0,0.0,0.0,0.0,0.0,0.0,0.0,-3.0812,-3.5462,-3.8596,-4.0185,-4.1883,-4.2368,-4.1481,-3.9085,-3.6375,-3.3243,0.0,0.0,0.0,0.0,0.0,0.0,0.0,0.0,0.0,0.0,0.0,0.0,0.0,0.0,0.0,0.0,0.0,0.0,0.0,0.0,0.0,0.0,0.0,0.0,0.0,0.0,0.0,0.0,0.0,0.0,0.0,0.0,0.0,0.0,0.0,0.0,0.0,0.0,0.0,-2.4962,-2.6136,0.0,0.0,0.0,0.0,0.0,0.0,0.0,0.0,-2.5463,0.0,0.0,0.0,0.0,0.0,0.0,0.0,0.0,0.0,0.0,0.0,0.0,0.0,0.0,0.0,0.0,0.0,0.0,0.0,0.0,0.0,0.0,0.0,0.0,0.0,0.0,0.0,0.0,0.0,0.0,0.0,0.0,0.0,0.0,0.0,0.0,0.0,0.0,0.0,0.0,0.0,0.0,0.0,0.0,0.0,0.0,0.0,0.0,0.0,0.0,0.0,0.0,0.0,0.0,0.0,-3.196,-3.6188,-3.9385,-4.1338,-4.2487,-4.265,-4.1723,-3.9317,-3.6486,0.0,0.0,0.0,0.0,0.0,0.0,0.0,0.0,0.0,0.0,0.0,0.0,0.0,0.0,0.0,0.0,0.0,0.0,0.0,0.0,0.0,0.0,0.0,0.0,0.0,0.0,0.0,0.0,0.0,0.0,0.0,0.0,0.0,0.0,0.0,0.0,0.0,0.0,0.0,0.0,-2.694,-2.7881,-2.8283,0.0,0.0,0.0,0.0,0.0,0.0,-2.7401,-2.7315,0.0,0.0,0.0,0.0,0.0,0.0,0.0,0.0,0.0,0.0,0.0,0.0,0.0,0.0,0.0,0.0,0.0,0.0,0.0,0.0,0.0,0.0,0.0,0.0,0.0,0.0,0.0,0.0,0.0,0.0,0.0,0.0,0.0,0.0,0.0,0.0,0.0,0.0,0.0,0.0,0.0,0.0,0.0,0.0,0.0,0.0,0.0,0.0,0.0,0.0,0.0,0.0,0.0,0.0,0.0,-3.2981,-3.693,-4.006,-4.2197,-4.2937,-4.2812,-4.1757,-3.9467,-3.6549,0.0,0.0,0.0,0.0,0.0,0.0,0.0,0.0,0.0,0.0,0.0,0.0,0.0,0.0,0.0,0.0,0.0,0.0,0.0,0.0,0.0,0.0,0.0,0.0,0.0,0.0,0.0,0.0,0.0,0.0,0.0,0.0,0.0,0.0,0.0,0.0,0.0,0.0,0.0,0.0,0.0,-2.9769,-3.0509,-2.9984,0.0,0.0,0.0,0.0,-2.9849,-2.9828,0.0,0.0,0.0,0.0,0.0,0.0,0.0,0.0,0.0,0.0,0.0,0.0,0.0,0.0,0.0,0.0,0.0,0.0,0.0,0.0,0.0,0.0,0.0,0.0,0.0,0.0,0.0,0.0,0.0,0.0,0.0,0.0,0.0,0.0,0.0,0.0,0.0,0.0,0.0,0.0,0.0,0.0,0.0,0.0,0.0,0.0,0.0,0.0,0.0,0.0,0.0,0.0,0.0,0.0,0.0,0.0,-3.3906,-3.7913,-4.0782,-4.2479,-4.3314,-4.2949,-4.1323,-3.9614,-3.6507,0.0,0.0,0.0,0.0,0.0,0.0,0.0,0.0,0.0,0.0,0.0,0.0,0.0,0.0,0.0,0.0,0.0,0.0,0.0,0.0,0.0,0.0,0.0,0.0,0.0,0.0,0.0,0.0,0.0,0.0,0.0,0.0,0.0,0.0,0.0,0.0,0.0,0.0,0.0,0.0,0.0,-3.1489,-3.2184,-3.1623,-3.1354,0.0,0.0,-3.1513,-3.2342,-3.189,0.0,0.0,0.0,0.0,0.0,0.0,0.0,0.0,0.0,0.0,0.0,0.0,0.0,0.0,0.0,0.0,0.0,0.0,0.0,0.0,0.0,0.0,0.0,0.0,0.0,0.0,0.0,0.0,0.0,0.0,0.0,0.0,0.0,0.0,0.0,0.0,0.0,0.0,0.0,0.0,0.0,0.0,0.0,0.0,0.0,0.0,0.0,0.0,0.0,0.0,0.0,0.0,0.0,0.0,0.0,-3.0309,-3.4809,-3.8461,-4.1267,-4.3272,-4.3666,-4.3024,-4.1304,-3.9681,-3.6565,0.0,0.0,0.0,0.0,0.0,0.0,0.0,0.0,0.0,0.0,0.0,0.0,0.0,0.0,0.0,0.0,0.0,0.0,0.0,0.0,0.0,0.0,0.0,0.0,0.0,0.0,0.0,0.0,0.0,0.0,0.0,0.0,0.0,0.0,0.0,0.0,0.0,0.0,0.0,0.0,0.0,0.0,-3.3897,-3.3776,0.0,0.0,0.0,-3.4696,-3.5536,0.0,0.0,0.0,0.0,0.0,0.0,0.0,0.0,0.0,0.0,0.0,0.0,0.0,0.0,0.0,0.0,0.0,0.0,0.0,0.0,0.0,0.0,0.0,0.0,0.0,0.0,0.0,0.0,0.0,0.0,0.0,0.0,0.0,0.0,0.0,0.0,0.0,0.0,0.0,0.0,0.0,0.0,0.0,0.0,0.0,0.0,0.0,0.0,0.0,0.0,0.0,0.0,0.0,0.0,0.0,0.0,0.0,-3.572,-3.9027,-4.1746,-4.3836,-4.391,-4.31,-4.141,-3.9801,0.0,0.0,0.0,0.0,0.0,0.0,0.0,0.0,0.0,0.0,0.0,0.0,0.0,0.0,0.0,0.0,0.0,0.0,0.0,0.0,0.0,0.0,0.0,0.0,0.0,0.0,0.0,-1.6182,0.0,0.0,0.0,0.0,0.0,0.0,0.0,0.0,0.0,0.0,0.0,0.0,0.0,0.0,-3.4278,-3.5864,-3.627,-3.6684,0.0,0.0,-3.7812,-3.8609,-3.7922,-3.6538,0.0,0.0,0.0,0.0,0.0,0.0,0.0,0.0,0.0,0.0,0.0,0.0,0.0,0.0,0.0,0.0,0.0,0.0,0.0,0.0,0.0,0.0,0.0,0.0,0.0,0.0,0.0,0.0,0.0,0.0,0.0,0.0,0.0,0.0,0.0,0.0,0.0,0.0,0.0,0.0,0.0,0.0,0.0,0.0,0.0,0.0,0.0,0.0,0.0,0.0,0.0,0.0,0.0,0.0,0.0,-3.65,-3.9844,-4.2314,-4.3931,-4.4005,-4.3243,-4.1627,-3.9974,-3.7143,0.0,0.0,0.0,0.0,0.0,0.0,0.0,0.0,0.0,0.0,0.0,0.0,0.0,0.0,0.0,0.0,0.0,0.0,0.0,0.0,0.0,0.0,0.0,0.0,0.0,0.0,0.0,0.0,0.0,0.0,0.0,0.0,0.0,0.0,0.0,0.0,0.0,0.0,0.0,0.0,0.0,-3.6712,-3.8343,-3.9209,-3.9995,0.0,0.0,-4.0362,-4.1219,-3.9993,-3.8377,-3.6705,0.0,0.0,0.0,0.0,0.0,0.0,0.0,0.0,0.0,0.0,0.0,0.0,0.0,0.0,0.0,0.0,0.0,0.0,0.0,0.0,0.0,0.0,0.0,0.0,0.0,0.0,0.0,0.0,0.0,0.0,0.0,0.0,0.0,0.0,0.0,0.0,0.0,0.0,0.0,0.0,0.0,0.0,0.0,0.0,0.0,0.0,0.0,0.0,0.0,0.0,0.0,0.0,0.0,-3.1823,-3.663,-3.9937,-4.237,-4.3931,-4.4005,-4.3485,-4.2352,-4.0754,-3.7949,0.0,0.0,0.0,0.0,0.0,0.0,0.0,0.0,0.0,0.0,0.0,0.0,0.0,0.0,0.0,0.0,0.0,0.0,0.0,0.0,0.0,0.0,0.0,0.0,0.0,0.0,0.0,0.0,-2.1124,-2.2194,-2.3356,0.0,0.0,0.0,0.0,0.0,0.0,0.0,0.0,0.0,0.0,-3.7674,-3.8773,-4.0067,0.0,0.0,-4.1964,-4.2117,-4.2946,-4.1702,-4.0085,-3.8432,-3.6556,0.0,0.0,0.0,0.0,0.0,0.0,0.0,0.0,0.0,0.0,0.0,0.0,0.0,0.0,0.0,0.0,0.0,0.0,0.0,0.0,0.0,0.0,0.0,0.0,0.0,0.0,0.0,0.0,0.0,0.0,0.0,0.0,0.0,0.0,0.0,0.0,0.0,0.0,0.0,0.0,0.0,0.0,0.0,0.0,0.0,0.0,0.0,0.0,0.0,0.0,0.0,0.0,-3.2158,-3.7002,-4.0048,-4.2389,-4.3968,-4.4005,-4.3615,-4.2797,-4.1237,-3.8785,0.0,0.0,0.0,0.0,0.0,0.0,0.0,0.0,0.0,0.0,0.0,0.0,0.0,0.0,0.0,0.0,0.0,0.0,0.0,0.0,0.0,0.0,0.0,0.0,0.0,0.0,0.0,0.0,-2.2689,-2.3764,-2.4355,0.0,0.0,0.0,0.0,0.0,0.0,0.0,0.0,0.0,0.0,-3.9211,-3.9978,-4.1322,-4.2415,-4.3002,-4.312,-4.3373,-4.3912,-4.2853,-4.146,-4.0085,0.0,0.0,0.0,0.0,0.0,0.0,0.0,0.0,0.0,0.0,0.0,0.0,0.0,0.0,0.0,0.0,0.0,0.0,0.0,0.0,0.0,0.0,0.0,0.0,0.0,0.0,0.0,0.0,0.0,0.0,-2.0882,0.0,0.0,0.0,0.0,0.0,0.0,0.0,0.0,0.0,0.0,0.0,0.0,0.0,0.0,0.0,0.0,0.0,0.0,0.0,0.0,0.0,0.0,0.0,-3.7801,-4.0327,-4.2389,-4.3949,-4.4005,-4.3615,-4.2816,-4.1256,-3.9584,-3.7764,0.0,0.0,0.0,0.0,0.0,0.0,0.0,0.0,0.0,0.0,0.0,0.0,0.0,0.0,0.0,0.0,0.0,0.0,0.0,0.0,0.0,0.0,0.0,0.0,0.0,0.0,-2.3054,-2.3944,-2.45,0.0,0.0,0.0,0.0,0.0,0.0,0.0,0.0,0.0,0.0,-3.9898,-4.1711,-4.2471,-4.3323,-4.3878,-4.3897,-4.3942,-4.4005,-4.4061,-4.3355,-4.25,0.0,0.0,0.0,0.0,0.0,0.0,0.0,0.0,0.0,0.0,0.0,0.0,0.0,0.0,0.0,0.0,0.0,0.0,0.0,0.0,0.0,0.0,0.0,0.0,0.0,0.0,0.0,-2.725,-2.6395,0.0,0.0,0.0,0.0,0.0,0.0,0.0,0.0,0.0,0.0,0.0,-3.7429,-3.637,0.0,0.0,0.0,0.0,0.0,0.0,0.0,0.0,0.0,0.0,0.0,0.0,-3.3528,-3.7782,-4.0346,-4.237,-4.3949,-4.4005,-4.3875,-4.3596,-4.2537,-4.0438,-3.7169,0.0,0.0,0.0,0.0,0.0,0.0,0.0,0.0,0.0,0.0,0.0,0.0,0.0,0.0,0.0,0.0,0.0,0.0,0.0,0.0,0.0,0.0,0.0,0.0,0.0,-2.3128,0.0,0.0,0.0,0.0,0.0,0.0,0.0,0.0,0.0,0.0,0.0,-3.7373,-3.9305,-4.1635,-4.3287,-4.3547,-4.4753,-4.5644,0.0,0.0,0.0,0.0,0.0,0.0,0.0,0.0,0.0,0.0,0.0,0.0,0.0,0.0,-3.7856,-3.5144,-3.4643,-3.4643,-3.4643,0.0,0.0,0.0,0.0,0.0,0.0,0.0,0.0,0.0,0.0,0.0,0.0,0.0,0.0,-3.1637,0.0,-2.963,0.0,0.0,0.0,0.0,0.0,0.0,0.0,0.0,-3.8061,-3.9825,-4.1571,-4.0531,-4.029,0.0,-3.8915,-3.6073,0.0,0.0,0.0,0.0,0.0,0.0,0.0,0.0,-3.4959,-3.8674,-4.0903,-4.2667,-4.3931,-4.4005,-4.4005,-4.3986,-4.3225,-4.1293,-3.8079,-3.4587,-3.1931,0.0,0.0,0.0,0.0,0.0,0.0,0.0,0.0,0.0,0.0,0.0,0.0,0.0,0.0,0.0,0.0,0.0,0.0,0.0,0.0,0.0,0.0,0.0,-2.4408,0.0,0.0,0.0,0.0,0.0,0.0,0.0,0.0,0.0,-3.5887,-3.8079,-4.0234,-4.1869,-4.3689,-4.4859,-4.4859,0.0,0.0,0.0,0.0,0.0,0.0,0.0,-4.655,-4.655,-4.6085,-4.5528,-4.5008,-4.4488,-4.4488,-4.5509,0.0,0.0,-3.9565,-3.8804,-3.8804,-3.8822,-3.9231,-3.9918,-4.1033,-4.1702,-4.2426,0.0,0.0,0.0,0.0,0.0,0.0,0.0,0.0,-3.7225,-3.6872,0.0,-3.4346,0.0,0.0,0.0,0.0,0.0,0.0,0.0,0.0,-4.2184,-4.3392,-4.4191,-4.4172,-4.4172,-4.4153,-4.3318,-4.2054,-4.0271,-3.494,0.0,0.0,0.0,0.0,0.0,0.0,-3.7206,-4.0383,-4.2036,-4.3243,-4.4023,-4.4061,-4.4042,-4.3986,-4.3225,-4.2036,-4.0476,-3.8079,-3.5999,-3.4346,-3.0463,0.0,0.0,0.0,0.0,0.0,0.0,0.0,0.0,0.0,0.0,0.0,0.0,0.0,0.0,0.0,0.0,0.0,0.0,0.0,0.0,-2.4835,0.0,0.0,0.0,0.0,0.0,0.0,0.0,0.0,0.0,0.0,-3.951,-4.146,-4.354,-4.5175,0.0,0.0,0.0,0.0,-4.6958,-4.7738,-4.7831,-4.811,-4.8853,-4.8983,-4.8964,-4.8964,0.0,0.0,-4.8946,-4.8946,-4.8872,-4.8964,-4.8872,-4.772,-4.3819,-4.3058,-4.2983,-4.2983,-4.302,-4.3559,-4.5008,-4.5398,-4.5881,-4.4711,0.0,0.0,0.0,0.0,-4.0606,-4.1181,-4.1404,-4.1757,-4.159,-4.0958,-3.9695,0.0,0.0,0.0,0.0,0.0,0.0,-4.2073,-4.3949,-4.5547,-4.7051,-4.8389,-4.7794,-4.7794,-4.8296,-4.6958,-4.5751,-4.4674,-4.25,-3.912,-3.4705,0.0,0.0,0.0,0.0,-3.9417,-4.198,-4.3132,-4.4061,-4.4915,-4.4934,-4.4636,-4.4023,-4.3206,-4.2575,-4.211,-4.0327,-3.8562,-3.6891,-3.403,0.0,0.0,0.0,0.0,0.0,0.0,0.0,0.0,0.0,0.0,0.0,0.0,0.0,0.0,0.0,0.0,0.0,0.0,0.0,-2.6507,-2.7677,-2.8663,0.0,0.0,0.0,0.0,0.0,0.0,0.0,0.0,0.0,-4.5862,-4.5695,-4.603,0.0,0.0,-4.9076,-4.9057,-4.9596,-5.0079,-5.032,0.0,0.0,0.0,-5.0692,-5.0692,-5.0692,-5.0692,-5.0673,-5.0692,-5.0692,-5.0673,-5.0692,-5.0673,-5.0265,-4.9224,-4.7943,-4.72,-4.7163,-4.7144,-4.7478,-4.8444,-4.8723,-4.9039,-5.0785,-4.746,-4.5379,-4.4302,-4.4098,-4.4859,-4.5398,-4.5695,-4.5881,-4.5844,-4.5639,-4.4525,-4.3745,-4.3243,-4.2407,0.0,0.0,0.0,-4.5937,-4.7237,-4.8556,-4.9707,-5.0599,-5.0153,-5.0135,-5.0562,-4.9633,-4.876,-4.7961,-4.7441,-4.5119,-4.1126,0.0,0.0,-3.9844,-4.0643,-4.1943,-4.3726,-4.4581,-4.5249,-4.5751,-4.5472,-4.4878,-4.4023,-4.3522,-4.328,-4.3262,-4.2036,-4.0568,-3.8934,-3.6835,-3.3807,0.0,0.0,0.0,0.0,0.0,0.0,0.0,0.0,0.0,0.0,0.0,-2.4111,0.0,0.0,0.0,0.0,-2.6916,-2.7901,-3.0318,-3.0984,0.0,0.0,0.0,0.0,0.0,0.0,0.0,-4.3801,-4.5918,-4.8036,-5.0079,-5.0079,-4.9875,-4.9912,-5.032,-5.0748,-5.1045,0.0,-5.2104,-5.2735,-5.2828,-5.2958,-5.3292,-5.3348,-5.333,-5.333,-5.3348,-5.3348,-5.3348,-5.3348,-5.3348,-5.3348,-5.3348,-5.3348,-5.333,-5.2494,-5.1342,-5.0153,-4.9893,-5.0153,-5.0933,-5.1101,-5.1342,-5.5206,-5.489,-5.1082,-4.9002,-4.8277,-4.8983,-4.9707,-5.032,-4.9615,-4.9726,-5.0358,-4.8853,-4.8184,-4.8147,-4.7423,0.0,-4.8221,-4.902,-4.9745,-5.0413,-5.1286,-5.1639,-5.1602,-5.1602,-5.1584,-5.1584,-5.1528,-5.1119,-5.0395,-5.0265,-4.9466,-4.7943,-4.4989,-4.3355,-4.3132,-4.3819,-4.4636,-4.5472,-4.6215,-4.6587,-4.6587,-4.5751,-4.4915,-4.4135,-4.4042,-4.4005,-4.3986,-4.328,-4.2147,-4.055,-3.8952,-3.624,-3.2228,0.0,0.0,0.0,0.0,0.0,0.0,0.0,0.0,0.0,0.0,0.0,0.0,0.0,0.0,0.0,-3.1117,0.0,-3.4364,-3.4754,0.0,0.0,0.0,-4.0717,-4.302,-4.4061,-4.5528,-4.7906,0.0,0.0,-5.2698,0.0,-5.4296,-5.2085,-5.1788,-5.2048,-5.2791,-5.294,-5.3423,-5.4834,-5.5094,-5.5373,-5.5837,-5.6023,-5.5986,-5.5986,-5.632,-5.6116,-5.6097,-5.6134,-5.6246,-5.6097,-5.6283,-5.6209,-5.6265,-5.5986,-5.5373,-5.2364,-5.1862,-5.2067,-5.2772,-5.2958,-5.3181,-5.6915,-5.6785,-5.5206,-5.3701,-5.2382,-5.2549,-5.2754,-5.2902,-5.2717,-5.2754,-5.2902,-5.2531,-5.2364,-5.2345,-5.2159,-5.2178,-5.2382,-5.32,-5.333,-5.2995,-5.3775,-5.3813,-5.3237,-5.3218,-5.3237,-5.32,-5.2605,-5.2215,-5.2011,-5.1398,-5.0896,-5.0506,-4.9726,-4.8091,-4.5714,-4.5807,-4.6308,-4.7125,-4.7311,-4.7423,-4.7386,-4.603,-4.5194,-4.4989,-4.4339,-4.4005,-4.4005,-4.3819,-4.2965,-4.1386,-4.0346,-3.7931,-3.3844,-3.1894,0.0,0.0,0.0,0.0,0.0,0.0,0.0,0.0,0.0,-2.9277,-3.1098,0.0,-3.2507,0.0,-3.5442,-3.6649,-3.7819,-3.9621,0.0,0.0,-4.4395,-4.6122,-4.733,-4.8742,-5.0339,-5.2141,-5.3255,-5.4258,-5.528,-5.5763,-5.58,-5.5206,-5.5113,-5.5206,-5.541,-5.5429,-5.554,-5.5912,-5.6023,-5.6079,-5.6302,-5.632,-5.6357,-5.632,-5.632,-5.632,-5.632,-5.632,-5.632,-5.632,-5.632,-5.632,-5.6357,-5.632,-5.6116,-5.5317,-5.515,-5.5169,-5.5391,-5.5391,-5.5447,-5.8029,-5.8011,-5.7546,-5.6822,-5.593,-5.5224,-5.4927,-5.4909,-5.4927,-5.4927,-5.4927,-5.4909,-5.4927,-5.4927,-5.4909,-5.4909,-5.4946,-5.5391,-5.5336,-5.4946,-5.5373,-5.5354,-5.4909,-5.4909,-5.4704,-5.4333,-5.3887,-5.3497,-5.3107,-5.2698,-5.2289,-5.1936,-5.1936,-5.0841,-4.876,-4.8686,-4.8704,-4.8779,-4.8426,-4.8073,-4.7683,-4.6475,-4.5658,-4.5287,-4.4469,-4.4005,-4.4005,-4.3652,-4.2872,-4.1646,-4.0828,-3.8841,-3.5516,-3.4104,-3.2135,0.0,0.0,0.0,0.0,0.0,0.0,0.0,0.0,0.0,0.0,0.0,-3.6983,0.0,-3.9881,-4.1107,-4.2277,-4.3968,-4.5602,-4.7144,-4.8519,-4.993,-5.1454,-5.2438,-5.3497,-5.476,-5.5633,-5.6302,-5.6785,-5.7156,-5.7379,-5.736,-5.7379,-5.723,-5.6896,-5.684,-5.6952,-5.7305,-5.7379,-5.7379,-5.736,-5.7379,-5.736,-5.7379,-5.7379,-5.736,-5.736,-5.7379,-5.7379,-5.7379,-5.7379,-5.7379,-5.7379,-5.7379,-5.7379,-5.7379,-5.7379,-5.7119,-5.645,-5.632,-5.632,-5.8698,-5.8698,-5.8698,-5.8698,-5.8605,-5.7193,-5.6617,-5.6599,-5.6599,-5.6599,-5.6599,-5.6617,-5.6617,-5.6599,-5.6617,-5.6617,-5.6599,-5.6617,-5.6543,-5.645,-5.6469,-5.6395,-5.632,-5.6302,-5.5912,-5.5187,-5.5169,-5.4741,-5.3961,-5.3961,-5.3534,-5.2772,-5.2754,-5.2401,-5.1732,-5.1714,-5.1231,-5.0283,-4.9466,-4.8723,-4.8017,-4.7125,-4.6252,-4.5454,-4.4618,-4.4098,-4.3986,-4.3336,-4.2593,-4.1794,-4.1089,-3.9621,-3.7299,-3.65,-3.5052,0.0,-3.2562,0.0,0.0,0.0,0.0,0.0,0.0,0.0,0.0,-4.0085,-4.1794,-4.3299,-4.4358,-4.5528,-4.6995,-4.8036,-4.9503,-5.1584,-5.1955,-5.2921,-5.502,-5.5317,-5.567,-5.6506,-5.723,-5.7658,-5.7676,-5.8271,-5.8679,-5.8605,-5.8568,-5.8326,-5.7825,-5.7658,-5.7899,-5.8642,-5.8698,-5.8512,-5.8549,-5.8605,-5.8605,-5.8642,-5.8586,-5.8698,-5.8605,-5.8624,-5.8661,-5.8642,-5.8586,-5.8624,-5.8698,-5.8661,-5.8661,-5.8586,-5.8568,-5.8178,-5.7082,-5.6766,-5.6599,-5.8698,-5.8698,-5.8698,-5.8698,-5.8679,-5.8382,-5.8252,-5.8252,-5.8271,-5.8252,-5.8252,-5.8252,-5.8252,-5.8252,-5.8252,-5.8252,-5.8252,-5.8252,-5.7899,-5.7268,-5.7268,-5.6933,-5.632,-5.632,-5.6227,-5.606,-5.606,-5.5614,-5.4779,-5.4779,-5.437,-5.3608,-5.3571,-5.3497,-5.3367,0.0,0.0,0.0,-5.032,-4.98,-4.9615,-4.8203,-4.707,-4.629,-4.5472,0.0,-4.4042,-4.3838,-4.341,-4.263,-4.2426,0.0,0.0,0.0,0.0,0.0,0.0,0.0,0.0,0.0,0.0,0.0,-4.3262,-4.341,-4.1219,-4.3615,-4.5732,-4.6717,-4.8723,-5.0116,-5.0469,-5.2382,-5.3813,-5.4277,-5.4946,-5.5819,-5.6896,-5.7026,-5.7342,-5.8141,-5.8401,-5.8475,-5.8456,-5.8642,-5.8698,-5.8698,-5.8698,-5.8642,-5.8475,-5.8438,-5.8531,-5.8698,-5.8698,-5.8698,-5.8698,-5.8698,-5.8698,-5.8698,-5.8698,-5.8698,-5.8698,-5.8698,-5.8698,-5.8698,-5.8698,-5.8698,-5.8698,-5.8698,-5.8698,-5.8698,-5.8698,-5.8624,-5.8326,-5.8234,-5.8234,-5.9051,0.0,-5.8698,-5.8698,0.0,-5.8698,-5.8698,-5.8698,-5.8698,-5.8698,-5.8698,-5.8698,-5.8698,-5.8698,-5.8698,-5.8698,-5.8698,-5.8698,-5.8475,-5.8103,-5.8103,-5.7881,-5.7509,-5.749,-5.7268,-5.6915,-5.6896,-5.645,-5.567,-5.5652,-5.5224,-5.4407,-5.4388,-5.4203,-5.3831,-5.3813,-5.32,-5.2011,-5.1175,-5.0543,-5.0079,-4.8909,-4.7906,-4.7088,0.0,0.0,0.0,0.0,0.0,0.0,0.0,0.0,0.0,0.0,0.0,-4.0401,-4.0698,-4.1089,-4.1534,-4.2705,-4.3745,-4.4581,-4.6884,-4.759,-4.59,-4.772,-4.9262,-5.0079,-5.1992,-5.3181,-5.3237,-5.4686,-5.5819,-5.619,-5.6636,-5.7212,-5.7936,-5.8085,-5.8252,-5.8605,-5.8698,-5.8698,-5.8698,-5.8698,-5.8698,-5.8698,-5.8698,-5.8698,-5.8698,-5.8698,-5.8698,-5.8698,-5.8698,-5.8698,-5.8698,-5.8698,-5.8698,-5.8698,-5.8698,-5.8698,-5.8698,-5.8698,-5.8698,-5.8698,-5.8698,-5.8698,-5.8698,-5.8698,-5.8698,-5.8698,-5.8698,-5.8698,-5.8698,-5.8698,-5.8698,-5.9757,-5.9144,-5.8977,-5.8902,-5.8921,-5.8754,-5.8698,-5.8698,0.0,0.0,0.0,-5.8698,-5.8698,-5.8698,-5.8698,-5.8698,-5.8698,-5.8698,-5.8698,-5.8698,-5.8698,-5.8698,-5.8698,-5.8698,-5.8364,-5.7732,-5.7713,-5.7286,-5.6543,-5.6506,-5.6079,-5.5317,-5.5224,-5.4816,-5.4054,-5.3868,-5.3478,-5.2828,-5.2029,-5.1268,-5.0562,-4.9763,-4.889,-4.7943,-4.6643,-4.5807,-4.5509,-4.4172,-4.3448,-4.3448,-4.2835,-4.2463,-4.2482,-4.3095,-4.3503,-4.3689,-4.4283,-4.4785,-4.5064,-4.6364,-4.7256,-4.7553,-4.954,-5.0766,-5.0766,-5.1416,-5.2234,-5.3181,-5.4593,-5.5447,-5.5466,-5.6227,-5.6989,-5.7658,-5.7713,-5.7973,-5.8586,-5.8698,-5.8679,-5.8698,-5.8698,-5.8698,-5.8698,-5.8698,-5.8698,-5.8698,-5.8698,-5.8698,-5.8698,-5.8698,-5.8698,-5.8698,-5.8698,-5.8698,-5.8698,-5.8698,-5.8698,-5.8698,-5.8698,-5.8698,-5.8698,-5.8698,-5.8698,-5.8698,-5.8698,-5.8698,-5.8698,-5.8698,-5.8698,-5.8698,-5.8698,-5.8698,-5.8698,-5.8698,-5.8698,-6.0945,-6.0797,-6.0054,-5.9738,-5.9701,-5.8995,-5.8698,-5.8698,-5.8698,-5.8698,-5.8698,-5.8698,-5.8698,-5.8698,-5.8698,-5.8698,-5.8698,-5.8698,-5.8698,0.0,-5.8698,-5.8698,-5.8698,-5.8698,-5.8642,-5.8531,-5.8531,-5.8122,-5.7416,-5.7342,-5.6915,-5.6209,-5.6116,-5.5689,-5.4871,-5.4166,-5.3738,-5.3627,-5.2828,-5.2382,-5.2234,-5.1472,-5.0302,-4.8816,-4.8519,-4.772,-4.6364,-4.6085,-4.5974,-4.5974,-4.5862,-4.5807,-4.5807,-4.59,-4.629,-4.694,-4.7125,-4.7794,-4.9113,-4.9466,-5.0228,-5.1639,-5.2698,-5.3292,-5.3292,-5.3385,-5.411,-5.5614,-5.658,-5.7156,-5.7193,-5.7843,-5.8308,-5.8475,-5.8531,-5.8605,-5.8698,-5.8698,-5.8698,-5.8698,-5.8698,-5.8698,-5.8698,-5.8698,-5.8698,-5.8698,-5.8698,-5.8698,-5.8698,-5.8698,-5.8698,-5.8698,-5.8698,-5.8698,-5.8698,-5.8698,-5.8698,-5.8698,-5.8698,-5.8698,-5.8698,-5.8698,-5.8698,-5.8698,-5.8698,-5.8698,-5.8698,-5.8698,-5.8698,-5.8698,-5.8698,-5.8698,-5.8698,-5.8698,-5.8698,-6.1614,-6.1187,-6.0778,-6.0611,-6.0555,-5.9701,-5.9348,-5.9311,-5.8902,-5.8698,-5.8698,-5.8698,-5.8698,-5.8698,-5.8698,-5.8698,-5.8698,-5.8698,-5.8698,-5.8698,-5.8698,-5.8698,-5.8698,-5.8698,-5.8698,-5.8698,-5.8698,-5.8512,-5.8178,-5.8159,-5.7751,-5.697,-5.6525,-5.6097,-5.5689,-5.4871,-5.4463,-5.4444,-5.3664,-5.3051,-5.2605,-5.2234,-5.1472,-5.0302,-4.9819,-4.902,-4.785,-4.7386,-4.6958,-4.6513,-4.6921,-4.7144,-4.7163,-4.7961,-4.8612,-4.9002,-4.9447,-5.0023,-5.0748,-5.1621,-5.2642,-5.3831,-5.4686,-5.5354,-5.5782,-5.5819,-5.6134,-5.6915,-5.7695,-5.8159,-5.8159,-5.8494,-5.8698,-5.8698,-5.8698,-5.8698,-5.8698,-5.8698,-5.8698,-5.8698,-5.8698,-5.8698,-5.8698,-5.8698,-5.8698,-5.8698,-5.8698,-5.8698,-5.8698,-5.8698,-5.8698,-5.8698,-5.8698,-5.8698,-5.8698,-5.8698,-5.8698,-5.8698,-5.8698,-5.8698,-5.8698,-5.8698,-5.8698,-5.8698,-5.8698,-5.8698,-5.8698,-5.8698,-5.8698,-5.8698,-5.8698,-5.8698,-5.8698,-5.8698,-5.8698,-6.232,-6.1744,-6.1558,-6.1373,-6.115,-6.05,-6.0091,-5.985,-5.9237,-5.8865,-5.8716,-5.8698,-5.8698,-5.8698,-5.8698,-5.8698,-5.8698,-5.8698,-5.8698,-5.8698,-5.8698,-5.8698,-5.8698,-5.8698,-5.8698,-5.8698,-5.8698,-5.8698,-5.8698,-5.8698,-5.8401,-5.7751,-5.6952,-5.6562,-5.6543,-5.5726,-5.5206,-5.4983,-5.4388,-5.3683,-5.2921,-5.2884,-5.2494,-5.1695,-5.1026,-5.0283,-4.9503,-4.8872,-4.824,-4.7683,-4.8203,-4.8537,-4.8574,-4.9707,-5.0469,-5.0692,-5.1286,-5.1844,-5.2234,-5.3348,-5.4426,-5.5243,-5.6079,-5.684,-5.7416,-5.7676,-5.7769,-5.7843,-5.8326,-5.8679,-5.8661,-5.8698,-5.8698,-5.8698,-5.8698,-5.8698,-5.8698,-5.8698,-5.8698,-5.8698,-5.8698,-5.8698,-5.8698,-5.8698,-5.8698,-5.8698,-5.8698,-5.8698,-5.8698,-5.8698,-5.8698,-5.8698,-5.8698,-5.8698,-5.8698,-5.8698,-5.8698,-5.8698,-5.8698,-5.8698,-5.8698,-5.8698,-5.8698,-5.8698,-5.8698,-5.8698,-5.8698,-5.8698,-5.8698,-5.8698,-5.8698,-5.8698,-5.8698,-5.8698,-5.8698,-6.3435,-6.3286,-6.2599,-6.1856,-6.128,-6.1131,-6.0667,-5.998,-5.9812,-5.9367,-5.8772,-5.8698,-5.8698,-5.8698,-5.8698,-5.8698,-5.8698,-5.8698,-5.8698,-5.8698,-5.8698,-5.8698,-5.8698,-5.8698,-5.8698,-5.8698,-5.8698,-5.8698,-5.8698,-5.8698,-5.8661,-5.8512,-5.7788,-5.7398,-5.7305,-5.658,-5.5819,-5.5039,-5.4927,-5.45,-5.3757,-5.3701,-5.333,-5.2531,-5.2419,-5.1992,-5.1156,-5.1101,-5.1008,-5.0952,-5.0933,-5.1026,-5.1045,-5.1212,-5.1621,-5.2289,-5.2457,-5.3107,-5.4481,-5.4797,-5.5299,-5.6116,-5.6933,-5.7416,-5.7583,-5.8178,-5.8605,-5.8586,-5.8642,-5.8698,-5.8698,-5.8698,-5.8698,-5.8698,-5.8698,-5.8698,-5.8698,-5.8698,-5.8698,-5.8698,-5.8698,-5.8698,-5.8698,-5.8698,-5.8698,-5.8698,-5.8698,-5.8698,-5.8698,-5.8698,-5.8698,-5.8698,-5.8698,-5.8698,-5.8698,-5.8698,-5.8698,-5.8698,-5.8698,-5.8698,-5.8698,-5.8698,-5.8698,-5.8698,-5.8698,-5.8698,-5.8698,-5.8698,-5.8698,-5.8698,-5.8698,-5.8698,-5.8698,-5.8698,-5.8698,-6.3602,-6.3583,-6.3267,-6.2952,-6.258,-6.2134,-6.1726,-6.1317,-6.0333,-5.9738,-5.9367,-5.8921,-5.8698,-5.8698,-5.8698,-5.8698,-5.8698,-5.8698,-5.8698,-5.8698,-5.8698,-5.8698,-5.8698,-5.8698,-5.8698,-5.8698,-5.8698,-5.8698,-5.8698,-5.8698,-5.8698,-5.8679,-5.8345,-5.8215,-5.8141,-5.7416,-5.684,-5.6487,-5.6023,-5.5373,-5.4574,-5.4054,-5.3645,-5.3348,-5.3311,-5.294,-5.2215,-5.2122,-5.1899,-5.1491,-5.1844,-5.2104,-5.2122,-5.2568,-5.2958,-5.333,-5.3775,-5.4537,-5.5707,-5.6209,-5.6636,-5.7008,-5.7751,-5.8215,-5.8215,-5.8531,-5.8698,-5.8698,-5.8698,-5.8698,-5.8698,-5.8698,-5.8698,-5.8698,-5.8698,-5.8698,-5.8698,-5.8698,-5.8698,-5.8698,-5.8698,-5.8698,-5.8698,-5.8698,-5.8698,-5.8698,-5.8698,-5.8698,-5.8698,-5.8698,-5.8698,-5.8698,-5.8698,-5.8698,-5.8698,-5.8698,-5.8698,-5.8698,-5.8698,-5.8698,-5.8698,-5.8698,-5.8698,-5.8698,-5.8698,-5.8698,-5.8698,-5.8698,-5.8698,-5.8698,-5.8698,-5.8698,-5.8698,-5.8698,-5.8698,-6.3602,-6.3602,-6.3602,-6.3602,-6.3565,-6.3007,-6.2617,-6.2283,-6.1094,-6.037,-5.9868,-5.9274,-5.8921,-5.8716,-5.8698,-5.8698,-5.8698,-5.8698,-5.8698,-5.8698,-5.8698,-5.8698,-5.8698,-5.8698,-5.8698,-5.8698,-5.8698,-5.8698,-5.8698,-5.8698,-5.8698,-5.8698,-5.8698,-5.8698,-5.8642,-5.8103,-5.7713,-5.7453,-5.6915,-5.6209,-5.541,-5.4797,-5.4277,-5.3868,-5.3813,-5.3534,-5.2958,-5.2921,-5.2661,-5.2122,-5.2624,-5.294,-5.2958,-5.3701,-5.424,-5.45,-5.5039,-5.5744,-5.658,-5.7175,-5.7602,-5.7843,-5.8401,-5.8698,-5.8698,-5.8698,-5.8698,-5.8698,-5.8698,-5.8698,-5.8698,-5.8698,-5.8698,-5.8698,-5.8698,-5.8698,-5.8698,-5.8698,-5.8698,-5.8698,-5.8698,-5.8698,-5.8698,-5.8698,-5.8698,-5.8698,-5.8698,-5.8698,-5.8698,-5.8698,-5.8698,-5.8698,-5.8698,-5.8698,-5.8698,-5.8698,-5.8698,-5.8698,-5.8698,-5.8698,-5.8698,-5.8698,-5.8698,-5.8698,-5.8698,-5.8698,-5.8698,-5.8698,-5.8698,-5.8698,-5.8698,-5.8698,-5.8698,-5.8698,-5.8698,-6.3602,-6.3602,-6.3602,-6.3602,-6.3602,-6.3546,-6.31,-6.2469,-6.2283,-6.1391,-6.0128,-5.985,-5.9422,-5.8754,-5.8735,-5.8698,-5.8698,-5.8698,-5.8698,-5.8698,-5.8698,-5.8698,-5.8698,-5.8698,-5.8698,-5.8698,-5.8698,-5.8698,-5.8698,-5.8698,-5.8698,-5.8698,-5.8698,-5.8698,-5.8679,-5.8605,-5.8252,-5.7658,-5.749,-5.7045,-5.6339,-5.619,-5.5391,-5.411,-5.385,-5.3905,-5.3794,-5.3775,-5.3738,-5.3701,-5.3775,-5.3794,-5.385,-5.4537,-5.5299,-5.6042,-5.619,-5.6599,-5.7323,-5.7546,-5.7843,-5.8475,-5.8642,-5.8698,-5.8698,-5.8698,-5.8698,-5.8698,-5.8698,-5.8698,-5.8698,-5.8698,-5.8698,-5.8698,-5.8698,-5.8698,-5.8698,-5.8698,-5.8698,-5.8698,-5.8698,-5.8698,-5.8698,-5.8698,-5.8698,-5.8698,-5.8698,-5.8698,-5.8698,-5.8698,-5.8698,-5.8698,-5.8698,-5.8698,-5.8698,-5.8698,-5.8698,-5.8698,-5.8698,-5.8698,-5.8698,-5.8698,-5.8698,-5.8698,-5.8698,-5.8698,-5.8698,-5.8698,-5.8698,-5.8698,-5.8698,-5.8698,-5.8698,-5.8698,-5.8698,-6.3602,-6.3602,-6.3602,-6.3602,-6.3602,-6.3602,-6.3435,-6.3137,-6.2617,-6.2097,-6.1391,-6.0407,-5.9757,-5.9441,-5.8921,-5.8698,-5.8698,-5.8698,-5.8698,-5.8698,-5.8698,-5.8698,-5.8698,-5.8698,-5.8698,-5.8698,-5.8698,-5.8698,-5.8698,-5.8698,-5.8698,-5.8698,-5.8698,-5.8698,-5.8698,-5.8698,-5.8549,-5.8308,-5.8271,-5.7881,-5.7156,-5.7063,-5.6525,-5.5503,-5.541,-5.5391,-5.541,-5.541,-5.5391,-5.5391,-5.541,-5.5391,-5.5429,-5.567,-5.6209,-5.6952,-5.7063,-5.7416,-5.8141,-5.8289,-5.8382,-5.8642,-5.8698,-5.8698,-5.8698,-5.8698,-5.8698,-5.8698,-5.8698,-5.8698,-5.8698,-5.8698,-5.8698,-5.8698,-5.8698,-5.8698,-5.8698,-5.8698,-5.8698,-5.8698,-5.8698,-5.8698,-5.8698,-5.8698,-5.8698,-5.8698,-5.8698,-5.8698,-5.8698,-5.8698,-5.8698,-5.8698,-5.8698,-5.8698,-5.8698,-5.8698,-5.8698,-5.8698,-5.8698,-5.8698,-5.8698,-5.8698,-5.8698,-5.8698,-5.8698,-5.8698,-5.8698,-5.8698,-5.8698,-5.8698,-5.8698,-5.8698,-5.8698,-5.8698,-5.8698,-6.3602,-6.3602,-6.3602,-6.3602,-6.3602,-6.3602,-6.3602,-6.3546,-6.3026,-6.2654,-6.2209,-6.1187,-6.0425,-5.9887,-5.9329,-5.8921,-5.8716,-5.8698,-5.8698,-5.8698,-5.8698,-5.8698,-5.8698,-5.8698,-5.8698,-5.8698,-5.8698,-5.8698,-5.8698,-5.8698,-5.8698,-5.8698,-5.8698,-5.8698,-5.8698,-5.8698,-5.8698,-5.8698,-5.8698,-5.8419,-5.7936,-5.7899,-5.7658,-5.7175,-5.7082,-5.6803,-5.6357,-5.632,-5.632,-5.632,-5.632,-5.6413,-5.6655,-5.6692,-5.7045,-5.7769,-5.7899,-5.8103,-5.8586,-5.8698,-5.8698,-5.8698,-5.8698,-5.8698,-5.8698,-5.8698,-5.8698,-5.8698,-5.8698,-5.8698,-5.8698,-5.8698,-5.8698,-5.8698,-5.8698,-5.8698,-5.8698,-5.8698,-5.8698,-5.8698,-5.8698,-5.8698,-5.8698,-5.8698,-5.8698,-5.8698,-5.8698,-5.8698,-5.8698,-5.8698,-5.8698,-5.8698,-5.8698,-5.8698,-5.8698,-5.8698,-5.8698,-5.8698,-5.8698,-5.8698,-5.8698,-5.8698,-5.8698,-5.8698,-5.8698,-5.8698,-5.8698,-5.8698,-5.8698,-5.8698,-5.8698,-5.8698,-5.8698,-5.8698,-5.8698,-6.3602,-6.3602,-6.3602,-6.3602,-6.3602,-6.3602,-6.3602,-6.3602,-6.3565,-6.3137,-6.2562,-6.2301,-6.1391,-6.0258,-5.9905,-5.9441,-5.8902,-5.8754,-5.8698,-5.8698,-5.8698,-5.8698,-5.8698,-5.8698,-5.8698,-5.8698,-5.8698,-5.8698,-5.8698,-5.8698,-5.8698,-5.8698,-5.8698,-5.8698,-5.8698,-5.8698,-5.8698,-5.8698,-5.8698,-5.8661,-5.8679,-5.8605,-5.8568,-5.8531,-5.8531,-5.7862,-5.6506,-5.6469,-5.6543,-5.6487,-5.6469,-5.6747,-5.7398,-5.7509,-5.7862,-5.8456,-5.8661,-5.8679,-5.8679,-5.8698,-5.8698,-5.8698,-5.8698,-5.8698,-5.8698,-5.8698,-5.8698,-5.8698,-5.8698,-5.8698,-5.8698,-5.8698,-5.8698,-5.8698,-5.8698,-5.8698,-5.8698,-5.8698,-5.8698,-5.8698,-5.8698,-5.8698,-5.8698,-5.8698,-5.8698,-5.8698,-5.8698,-5.8698,-5.8698,-5.8698,-5.8698,-5.8698,-5.8698,-5.8698,-5.8698,-5.8698,-5.8698,-5.8698,-5.8698,-5.8698,-5.8698,-5.8698,-5.8698,-5.8698,-5.8698,-5.8698,-5.8698,-5.8698,-5.8698,-5.8698,-5.8698,-5.8698,-5.8698,-5.8698,-5.8698,-6.3602,-6.3602,-6.3602,-6.3602,-6.3602,-6.3602,-6.3602,-6.3602,-6.3602,-6.3472,-6.3156,-6.2654,-6.2097,-6.1428,-6.0481,-5.9775,-5.9497,-5.8995,-5.8698,-5.8698,-5.8698,-5.8698,-5.8698,-5.8698,-5.8698,-5.8698,-5.8698,-5.8698,-5.8698,-5.8698,-5.8698,-5.8698,-5.8698,-5.8698,-5.8698,-5.8698,-5.8698,-5.8698,-5.8698,-5.8698,-5.8698,-5.8698,-5.8698,-5.8698,-5.8698,-5.8438,-5.7992,-5.7955,-5.7973,-5.7918,-5.7955,-5.8085,-5.8271,-5.8345,-5.8438,-5.8642,-5.8698,-5.8698,-5.8698,-5.8698,-5.8698,-5.8698,-5.8698,-5.8698,-5.8698,-5.8698,-5.8698,-5.8698,-5.8698,-5.8698,-5.8698,-5.8698,-5.8698,-5.8698,-5.8698,-5.8698,-5.8698,-5.8698,-5.8698,-5.8698,-5.8698,-5.8698,-5.8698,-5.8698,-5.8698,-5.8698,-5.8698,-5.8698,-5.8698,-5.8698,-5.8698,-5.8698,-5.8698,-5.8698,-5.8698,-5.8698,-5.8698,-5.8698,-5.8698,-5.8698,-5.8698,-5.8698,-5.8698,-5.8698,-5.8698,-5.8698,-5.8698,-5.8698,-5.8698,-5.8698,-5.8698,-5.8698,-5.8698,-5.8698,-5.8698,-6.3602,-6.3602,-6.3602,-6.3602,-6.3602,-6.3602,-6.3602,-6.3602,-6.3602,-6.3602,-6.349,-6.31,-6.2673,-6.2171,-6.0983,-6.0221,-5.9868,-5.9069,-5.8698,-5.8698,-5.8698,-5.8698,-5.8698,-5.8698,-5.8698,-5.8698,-5.8698,-5.8698,-5.8698,-5.8698,-5.8698,-5.8698,-5.8698,-5.8698,-5.8698,-5.8698,-5.8698,-5.8698,-5.8698,-5.8698,-5.8698,-5.8698,-5.8698,-5.8698,-5.8698,-5.8698,-5.8698,-5.8698,-5.8698,-5.8698,-5.8698,-5.8698,-5.8698,-5.8679,-5.8698,-5.8698,-5.8698,-5.8698,-5.8698,-5.8698,-5.8698,-5.8698,-5.8698,-5.8698,-5.8698,-5.8698,-5.8698,-5.8698,-5.8698,-5.8698,-5.8698,-5.8698,-5.8698,-5.8698,-5.8698,-5.8698,-5.8698,-5.8698,-5.8698,-5.8698,-5.8698,-5.8698,-5.8698,-5.8698,-5.8698,-5.8698,-5.8698,-5.8698,-5.8698,-5.8698,-5.8698,-5.8698,-5.8698,-5.8698,-5.8698,-5.8698,-5.8698,-5.8698,-5.8698,-5.8698,-5.8698,-5.8698,-5.8698,-5.8698,-5.8698,-5.8698,-5.8698,-5.8698,-5.8698,-5.8698,-5.8698,-5.8698,-5.8698,-5.8698,-5.8698,-6.3602,-6.3602,-6.3602,-6.3602,-6.3602,-6.3602,-6.3602,-6.3602,-6.3602,-6.3602,-6.3602,-6.3527,-6.3175,-6.2432,-6.1651,-6.0853,-5.998,-5.9237,-5.8809,-5.8735,-5.8698,-5.8698,-5.8698,-5.8698,-5.8698,-5.8698,-5.8698,-5.8698,-5.8698,-5.8698,-5.8698,-5.8698,-5.8698,-5.8698,-5.8698,-5.8698,-5.8698,-5.8698,-5.8698,-5.8698,-5.8698,-5.8698,-5.8698,-5.8698,-5.8698,-5.8698,-5.8698,-5.8698,-5.8698,-5.8698,-5.8698,-5.8698,-5.8698,-5.8698,-5.8698,-5.8698,-5.8698,-5.8698,-5.8698,-5.8698,-5.8698,-5.8698,-5.8698,-5.8698,-5.8698,-5.8698,-5.8698,-5.8698,-5.8698,-5.8698,-5.8698,-5.8698,-5.8698,-5.8698,-5.8698,-5.8698,-5.8698,-5.8698,-5.8698,-5.8698,-5.8698,-5.8698,-5.8698,-5.8698,-5.8698,-5.8698,-5.8698,-5.8698,-5.8698,-5.8698,-5.8698,-5.8698,-5.8698,-5.8698,-5.8698,-5.8698,-5.8698,-5.8698,-5.8698,-5.8716,-5.8698,-5.8698,-5.8698,-5.8698,-5.8698,-5.8698,-5.8698,-5.8698,-5.8698,-5.8698,-5.8698,-5.8698,-5.8698,-5.8698,-5.8698,-6.3602,-6.3602,-6.3602,-6.3602,-6.3602,-6.3602,-6.3602,-6.3602,-6.3602,-6.3602,-6.3602,-6.3602,-6.349,-6.3212,-6.2413,-6.1633,-6.076,-5.9942,-5.9218,-5.8754,-5.8698,-5.8698,-5.8698,-5.8698,-5.8698,-5.8698,-5.8698,-5.8698,-5.8698,-5.8698,-5.8698,-5.8698,-5.8698,-5.8698,-5.8698,-5.8698,-5.8698,-5.8698,-5.8698,-5.8698,-5.8698,-5.8698,-5.8698,-5.8698,-5.8698,-5.8698,-5.8698,-5.8698,-5.8698,-5.8698,-5.8698,-5.8698,-5.8698,-5.8698,-5.8698,-5.8698,-5.8698,-5.8698,-5.8698,-5.8698,-5.8698,-5.8698,-5.8698,-5.8698,-5.8698,-5.8698,-5.8698,-5.8698,-5.8698,-5.8698,-5.8698,-5.8698,-5.8698,-5.8698,-5.8698,-5.8698,-5.8698,-5.8698,-5.8698,-5.8698,-5.8698,-5.8698,-5.8698,-5.8698,-5.8698,-5.8698,-5.8698,-5.8698,-5.8698,-5.8698,-5.8698,-5.8698,-5.8698,-5.8698,-5.8698,-5.8698,-5.8698,-5.8698,-5.8716,-5.8754,-5.8716,-5.8698,-5.8698,-5.8698,-5.8698,-5.8698,-5.8698,-5.8698,-5.8698,-5.8698,-5.8698,-5.8698,-5.8698,-5.8698,-5.8698,-6.3602,-6.3602,-6.3602,-6.3602,-6.3602,-6.3602,-6.3602,-6.3602,-6.3602,-6.3602,-6.3602,-6.3602,-6.3602,-6.3527,-6.2766,-6.1967,-6.115,-6.0295,-5.9478,-5.8791,-5.8698,-5.8698,-5.8698,-5.8698,-5.8698,-5.8698,-5.8698,-5.8698,-5.8698,-5.8698,-5.8698,-5.8698,-5.8698,-5.8698,-5.8698,-5.8698,-5.8698,-5.8698,-5.8698,-5.8698,-5.8698,-5.8698,-5.8698,-5.8698,-5.8698,-5.8698,-5.8698,-5.8698,-5.8698,-5.8698,-5.8698,-5.8698,-5.8698,-5.8698,-5.8698,-5.8698,-5.8698,-5.8698,-5.8698,-5.8698,-5.8698,-5.8698,-5.8698,-5.8698,-5.8698,-5.8698,-5.8698,-5.8698,-5.8698,-5.8698,-5.8698,-5.8698,-5.8698,-5.8698,-5.8698,-5.8698,-5.8698,-5.8698,-5.8698,-5.8698,-5.8698,-5.8698,-5.8698,-5.8698,-5.8698,-5.8698,-5.8698,-5.8698,-5.8698,-5.8698,-5.8698,-5.8698,-5.8698,-5.8698,-5.8698,-5.8698,-5.8809,-5.8809,-5.9069,-5.9032,-5.8977,-5.8902,-5.8735,-5.8735,-5.8716,-5.8698,-5.8698,-5.8698,-5.8698,-5.8698,-5.8698,-5.8698,-5.8698,-5.8698,-5.8698,-6.3602,-6.3602,-6.3602,-6.3602,-6.3602,-6.3602,-6.3602,-6.3602,-6.3602,-6.3602,-6.3602,-6.3602,-6.3602,-6.3565,-6.2952,-6.2116,-6.1336,-6.0574,-5.9589,-5.8958,-5.8698,-5.8698,-5.8698,-5.8698,-5.8698,-5.8698,-5.8698,-5.8698,-5.8698,-5.8698,-5.8698,-5.8698,-5.8698,-5.8698,-5.8698,-5.8698,-5.8698,-5.8698,-5.8698,-5.8698,-5.8698,-5.8698,-5.8698,-5.8698,-5.8698,-5.8698,-5.8698,-5.8698,-5.8698,-5.8698,-5.8698,-5.8698,-5.8698,-5.8698,-5.8698,-5.8698,-5.8698,-5.8698,-5.8698,-5.8698,-5.8698,-5.8698,-5.8698,-5.8698,-5.8698,-5.8698,-5.8698,-5.8698,-5.8698,-5.8698,-5.8698,-5.8698,-5.8698,-5.8698,-5.8698,-5.8698,-5.8698,-5.8698,-5.8698,-5.8698,-5.8698,-5.8698,-5.8698,-5.8698,-5.8698,-5.8698,-5.8698,-5.8698,-5.8698,-5.8698,-5.8698,-5.8698,-5.8698,-5.8698,-5.8698,-5.8698,-5.8846,-5.8995,-5.9441,-5.9589,-5.9497,-5.9348,-5.8977,-5.8791,-5.8735,-5.8698,-5.8698,-5.8698,-5.8698,-5.8698,-5.8698,-5.8698,-5.8698,-5.8698,-5.8698,-6.3602,-6.3602,-6.3602,-6.3602,-6.3602,-6.3602,-6.3602,-6.3602,-6.3602,-6.3602,-6.3602,-6.3602,-6.3602,-6.3602,-6.3342,-6.2914,-6.2023,-6.115,-6.0184,-5.8809,-5.8698,-5.8698,-5.8698,-5.8698,-5.8698,-5.8698,-5.8698,-5.8698,-5.8698,-5.8698,-5.8698,-5.8698,-5.8698,-5.8698,-5.8698,-5.8698,-5.8698,-5.8698,-5.8698,-5.8698,-5.8698,-5.8698,-5.8698,-5.8698,-5.8698,-5.8698,-5.8698,-5.8698,-5.8698,-5.8698,-5.8698,-5.8698,-5.8698,-5.8698,-5.8698,-5.8698,-5.8698,-5.8698,-5.8698,-5.8698,-5.8698,-5.8698,-5.8698,-5.8698,-5.8698,-5.8698,-5.8698,-5.8698,-5.8698,-5.8698,-5.8698,-5.8698,-5.8698,-5.8698,-5.8698,-5.8698,-5.8698,-5.8698,-5.8698,-5.8698,-5.8698,-5.8698,-5.8698,-5.8791,-5.8772,-5.8716,-5.8735,-5.8716,-5.8698,-5.8698,-5.8698,-5.8698,-5.8698,-5.8716,-5.8754,-5.8865,-5.9144,-5.9515,-5.9998,-6.0221,-6.0128,-6.0054,-5.9794,-5.9274,-5.8716,-5.8698,-5.8698,-5.8698,-5.8698,-5.8698,-5.8698,-5.8698,-5.8698,-5.8698,-5.8698,-6.3602,-6.3602,-6.3602,-6.3602,-6.3602,-6.3602,-6.3602,-6.3602,-6.3602,-6.3602,-6.3602,-6.3602,-6.3602,-6.3602,-6.3583,-6.3156,-6.2246,-6.1113,-5.9924,-5.8902,-5.8698,-5.8698,-5.8698,-5.8698,-5.8698,-5.8698,-5.8698,-5.8698,-5.8698,-5.8698,-5.8698,-5.8698,-5.8698,-5.8698,-5.8698,-5.8698,-5.8698,-5.8698,-5.8698,-5.8698,-5.8698,-5.8698,-5.8698,-5.8698,-5.8698,-5.8698,-5.8698,-5.8698,-5.8698,-5.8698,-5.8698,-5.8698,-5.8698,-5.8698,-5.8698,-5.8698,-5.8698,-5.8698,-5.8698,-5.8698,-5.8698,-5.8698,-5.8698,-5.8698,-5.8698,-5.8698,-5.8698,-5.8698,-5.8698,-5.8698,-5.8698,-5.8698,-5.8698,-5.8698,-5.8698,-5.8698,-5.8698,-5.8698,-5.8698,-5.8698,-5.8698,-5.8698,-5.8735,-5.8865,-5.8865,-5.8828,-5.9255,-5.9218,-5.8698,-5.8698,-5.8698,-5.8698,-5.8698,-5.8735,-5.8809,-5.9051,-5.9515,-6.0072,-6.0778,-6.089,-6.0871,-6.0815,-6.0741,-5.9942,-5.9051,-5.8716,-5.8698,-5.8698,-5.8698,-5.8698,-5.8698,-5.8698,-5.8698,-5.8698,-5.8698,-6.3602,-6.3602,-6.3602,-6.3602,-6.3602,-6.3602,-6.3602,-6.3602,-6.3602,-6.3602,-6.3602,-6.3602,-6.3602,-6.3602,-6.3602,-6.31,-6.1986,-6.0741,-5.9515,-5.8809,-5.8698,-5.8698,-5.8698,-5.8698,-5.8698,-5.8698,-5.8698,-5.8698,-5.8698,-5.8698,-5.8698,-5.8698,-5.8698,-5.8698,-5.8698,-5.8698,-5.8698,-5.8698,-5.8698,-5.8698,-5.8698,-5.8698,-5.8698,-5.8698,-5.8698,-5.8698,-5.8698,-5.8698,-5.8698,-5.8698,-5.8698,-5.8698,-5.8698,-5.8698,-5.8698,-5.8698,-5.8698,-5.8698,-5.8698,-5.8698,-5.8698,-5.8698,-5.8698,-5.8698,-5.8698,-5.8698,-5.8698,-5.8698,-5.8698,-5.8698,-5.8698,-5.8698,-5.8698,-5.8698,-5.8698,-5.8698,-5.8698,-5.8698,-5.8698,-5.8698,-5.8698,-5.8698,-5.8865,-5.9014,-5.8977,-5.9014,-5.9441,-5.9571,-5.9014,-5.8698,-5.8716,-5.8902,-5.8977,-5.9515,-5.9682,-5.9812,-6.0202,-6.076,-6.1521,-6.1689,-6.1689,-6.1614,-6.1336,-6.0202,-5.9441,-5.9088,-5.8772,-5.8698,-5.8698,-5.8698,-5.8698,-5.8698,-5.8698,-5.8698,-5.8698,-6.3602,-6.3602,-6.3602,-6.3602,-6.3602,-6.3602,-6.3602,-6.3602,-6.3602,-6.3602,-6.3602,-6.3602,-6.3602,-6.3602,-6.3602,-6.2803,-6.1521,-6.037,-5.9478,-5.8809,-5.8698,-5.8698,-5.8698,-5.8698,-5.8698,-5.8698,-5.8698,-5.8698,-5.8698,-5.8698,-5.8698,-5.8698,-5.8698,-5.8698,-5.8698,-5.8698,-5.8698,-5.8698,-5.8698,-5.8698,-5.8698,-5.8698,-5.8698,-5.8698,-5.8698,-5.8698,-5.8698,-5.8698,-5.8698,-5.8698,-5.8698,-5.8698,-5.8698,-5.8698,-5.8698,-5.8698,-5.8698,-5.8698,-5.8698,-5.8698,-5.8698,-5.8698,-5.8698,-5.8698,-5.8698,-5.8698,-5.8698,-5.8698,-5.8698,-5.8698,-5.8698,-5.8698,-5.8698,-5.8698,-5.8698,-5.8698,-5.8698,-5.8698,-5.8698,-5.8698,-5.8698,-5.8716,-5.8884,-5.9032,-5.9032,-5.9014,-5.9237,-5.9274,-5.8902,-5.8716,-5.8735,-5.9014,-5.9348,-6.0091,-6.076,-6.089,-6.115,-6.1633,-6.2227,-6.2599,-6.258,-6.245,-6.1874,-6.0667,-5.985,-5.9404,-5.9107,-5.8791,-5.8698,-5.8698,-5.8698,-5.8698,-5.8698,-5.8698,-5.8698,-6.3602,-6.3602,-6.3602,-6.3602,-6.3602,-6.3602,-6.3602,-6.3602,-6.3602,-6.3602,-6.3602,-6.3602,-6.3602,-6.3602,-6.3602,-6.271,-6.1336,-6.0295,-5.9478,-5.8846,-5.8698,-5.8698,-5.8698,-5.8698,-5.8698,-5.8698,-5.8698,-5.8698,-5.8698,-5.8698,-5.8698,-5.8698,-5.8698,-5.8698,-5.8698,-5.8698,-5.8698,-5.8698,-5.8698,-5.8698,-5.8698,-5.8698,-5.8698,-5.8698,-5.8698,-5.8698,-5.8698,-5.8698,-5.8698,-5.8698,-5.8698,-5.8698,-5.8698,-5.8698,-5.8698,-5.8698,-5.8698,-5.8698,-5.8698,-5.8698,-5.8698,-5.8698,-5.8698,-5.8698,-5.8698,-5.8698,-5.8698,-5.8698,-5.8698,-5.8698,-5.8698,-5.8698,-5.8698,-5.8698,-5.8716,-5.8735,-5.8716,-5.8716,-5.8754,-5.8772,-5.8716,-5.8735,-5.8809,-5.8939,-5.9032,-5.9088,-5.9107,-5.8958,-5.8754,-5.8846,-5.8921,-5.9645,-6.011,-6.0723,-6.1466,-6.1744,-6.1893,-6.2376,-6.2766,-6.3137,-6.3267,-6.3026,-6.219,-6.1038,-6.0388,-5.9812,-5.9125,-5.8698,-5.8698,-5.8698,-5.8698,-5.8698,-5.8698,-5.8698,-5.8698,-6.3602,-6.3602,-6.3602,-6.3602,-6.3602,-6.3602,-6.3602,-6.3602,-6.3602,-6.3602,-6.3602,-6.3602,-6.3602,-6.3565,-6.3267,-6.2543,-6.1168,-6.0295,-5.9478,-5.8828,-5.8698,-5.8698,-5.8698,-5.8698,-5.8698,-5.8698,-5.8698,-5.8698,-5.8698,-5.8698,-5.8698,-5.8698,-5.8698,-5.8698,-5.8698,-5.8698,-5.8698,-5.8698,-5.8698,-5.8698,-5.8698,-5.8698,-5.8698,-5.8698,-5.8698,-5.8698,-5.8698,-5.8698,-5.8698,-5.8698,-5.8698,-5.8698,-5.8698,-5.8698,-5.8698,-5.8698,-5.8698,-5.8698,-5.8698,-5.8698,-5.8698,-5.8698,-5.8698,-5.8698,-5.8698,-5.8698,-5.8698,-5.8698,-5.8698,-5.8698,-5.8698,-5.8698,-5.8698,-5.8772,-5.8865,-5.8977,-5.9051,-5.9088,-5.9107,-5.9032,-5.8828,-5.8754,-5.8791,-5.8828,-5.8921,-5.8921,-5.8939,-5.8939,-5.8809,-5.9125,-5.9441,-6.0388,-6.102,-6.1466,-6.2023,-6.2487,-6.2617,-6.284,-6.3137,-6.3416,-6.3509,-6.349,-6.2432,-6.1373,-6.0834,-6.0221,-5.9404,-5.8698,-5.8698,-5.8698,-5.8698,-5.8698,-5.8698,-5.8698,-5.8698,-6.3602,-6.3602,-6.3602,-6.3602,-6.3602,-6.3602,-6.3602,-6.3602,-6.3602,-6.3602,-6.3602,-6.3602,-6.3602,-6.3472,-6.2859,-6.2079,-6.1224,-6.0444,-5.9701,-5.9107,-5.8995,-5.8977,-5.8809,-5.8698,-5.8977,-5.9014,-5.8865,-5.8698,-5.8772,-5.8791,-5.8698,-5.8698,-5.8698,-5.8698,-5.8698,-5.8698,-5.8698,-5.8698,-5.8698,-5.8698,-5.8698,-5.8698,-5.8698,-5.8698,-5.8698,-5.8698,-5.8698,-5.8698,-5.8698,-5.8698,-5.8698,-5.8698,-5.8698,-5.8698,-5.8698,-5.8698,-5.8698,-5.8698,-5.8698,-5.8698,-5.8698,-5.8698,-5.8698,-5.8698,-5.8698,-5.8698,-5.8698,-5.8698,-5.8698,-5.8698,-5.8716,-5.8754,-5.8716,-5.9032,-5.9422,-5.9682,-5.9775,-5.9775,-5.9775,-5.9404,-5.9237,-5.8902,-5.8754,-5.8772,-5.8791,-5.8772,-5.8772,-5.8809,-5.9125,-5.9627,-6.0165,-6.115,-6.1874,-6.232,-6.2524,-6.2989,-6.31,-6.3267,-6.3416,-6.3602,-6.3602,-6.3453,-6.2673,-6.1744,-6.1206,-6.0314,-5.9218,-5.8698,-5.8698,-5.8698,-5.8698,-5.8698,-5.8698,-5.8698,-5.8698,-6.3602,-6.3602,-6.3602,-6.3602,-6.3602,-6.3602,-6.3602,-6.3602,-6.3602,-6.3602,-6.3602,-6.3602,-6.3602,-6.3435,-6.2766,-6.2246,-6.1744,-6.102,-6.05,-6.0147,-6.0035,-6.0054,-6.0165,-6.0128,-6.0128,-5.9887,-5.9645,-5.9441,-5.9292,-5.8958,-5.8698,-5.8716,-5.8698,-5.8698,-5.8698,-5.8698,-5.8698,-5.8698,-5.8698,-5.8698,-5.8698,-5.8698,-5.8698,-5.8698,-5.8698,-5.8698,-5.8698,-5.8698,-5.8698,-5.8698,-5.8698,-5.8698,-5.8698,-5.8698,-5.8698,-5.8698,-5.8698,-5.8698,-5.8698,-5.8698,-5.8698,-5.8698,-5.8698,-5.8698,-5.8698,-5.8698,-5.8698,-5.8698,-5.8698,-5.8716,-5.8865,-5.9125,-5.9329,-5.9627,-6.0147,-6.0444,-6.063,-6.0611,-6.0518,-6.0072,-5.9627,-5.9311,-5.8995,-5.8884,-5.8865,-5.8772,-5.8939,-5.9162,-5.985,-6.0778,-6.1354,-6.2023,-6.2636,-6.3156,-6.323,-6.3435,-6.3379,-6.3453,-6.3472,-6.3602,-6.3602,-6.3286,-6.2636,-6.1949,-6.1261,-6.0258,-5.9032,-5.8698,-5.8698,-5.8698,-5.8698,-5.8698,-5.8698,-5.8698,-5.8698,-6.3119,-6.3305,-6.3527,-6.3602,-6.3602,-6.3602,-6.3602,-6.3602,-6.3602,-6.3602,-6.3602,-6.3602,-6.3602,-6.3509,-6.3026,-6.2636,-6.232,-6.1781,-6.141,-6.128,-6.1187,-6.1094,-6.0983,-6.1094,-6.1094,-6.1206,-6.0518,-6.0258,-6.0054,-5.9701,-5.9292,-5.8772,-5.8698,-5.8698,-5.8698,-5.8698,-5.8698,-5.8698,-5.8698,-5.8698,-5.8698,-5.8698,-5.8698,-5.8698,-5.8698,-5.8698,-5.8698,-5.8698,-5.8698,-5.8698,-5.8698,-5.8698,-5.8698,-5.8698,-5.8698,-5.8698,-5.8698,-5.8698,-5.8698,-5.8698,-5.8698,-5.8698,-5.8698,-5.8698,-5.8698,-5.8698,-5.8698,-5.8698,-5.9032,-5.9032,-5.9162,-5.9757,-6.0128,-6.0518,-6.0983,-6.128,-6.1503,-6.1466,-6.1391,-6.1113,-6.0593,-5.985,-5.9515,-5.9181,-5.8977,-5.8809,-5.9014,-5.9478,-6.0481,-6.1651,-6.2209,-6.271,-6.3026,-6.3472,-6.3527,-6.3602,-6.3602,-6.3602,-6.3602,-6.3602,-6.3602,-6.336,-6.2859,-6.2134,-6.1354,-6.0258,-5.9069,-5.8865,-5.8698,-5.8698,-5.8698,-5.8698,-5.8698,-5.8698,-5.8735,-6.18,-6.2543,-6.3267,-6.3565,-6.3602,-6.3602,-6.3602,-6.3602,-6.3602,-6.3602,-6.3602,-6.3565,-6.3509,-6.349,-6.3305,-6.2933,-6.2394,-6.2339,-6.2004,-6.1558,-6.1224,-6.1447,-6.1521,-6.154,-6.141,-6.1391,-6.1168,-6.1131,-6.1057,-6.0797,-5.9942,-5.8958,-5.9162,-5.8865,-5.8902,-5.9144,-5.8995,-5.8939,-5.8884,-5.8772,-5.8735,-5.8698,-5.8698,-5.8698,-5.8698,-5.8698,-5.8698,-5.8698,-5.8698,-5.8698,-5.8698,-5.8698,-5.8698,-5.8698,-5.8698,-5.8698,-5.8698,-5.8754,-5.8846,-5.8772,-5.8698,-5.8698,-5.8698,-5.8698,-5.8698,-5.8735,-5.8735,-5.8921,-5.9459,-5.9794,-6.0072,-6.0518,-6.102,-6.1336,-6.1744,-6.2153,-6.2339,-6.232,-6.2246,-6.2097,-6.1558,-6.0778,-6.0221,-5.9924,-5.9422,-5.9237,-6.0072,-6.0555,-6.1298,-6.2301,-6.2784,-6.3193,-6.3379,-6.3583,-6.3583,-6.3602,-6.3602,-6.3602,-6.3602,-6.3602,-6.3602,-6.3286,-6.3063,-6.2171,-6.1317,-6.0221,-5.9274,-5.8977,-5.8754,-5.8716,-5.8698,-5.8698,-5.8698,-5.8698,-5.8772,-6.1373,-6.1689,-6.2004,-6.2692,-6.3602,-6.3602,-6.3602,-6.3602,-6.3602,-6.3602,-6.3546,-6.3119,-6.2877,-6.2877,-6.2859,-6.2729,-6.2487,-6.297,-6.2803,-6.2803,-6.2692,-6.2673,-6.2692,-6.2599,-6.271,-6.2524,-6.2246,-6.1949,-6.193,-6.1614,-6.1038,-6.037,-6.024,-6.0258,-6.0258,-6.0035,-5.9868,-5.9515,-5.9385,-5.9255,-5.8735,-5.8698,-5.8698,-5.8698,-5.8698,-5.8698,-5.8698,-5.8698,-5.8698,-5.8698,-5.8698,-5.8698,-5.8698,-5.8698,-5.8698,-5.8716,-5.8735,-5.8977,-5.9218,-5.9032,-5.8698,-5.8698,-5.8698,-5.8772,-5.8939,-5.9144,-5.9404,-5.972,-6.0202,-6.0667,-6.0815,-6.141,-6.1967,-6.2153,-6.245,-6.2896,-6.3044,-6.297,-6.2803,-6.2543,-6.219,-6.1633,-6.115,-6.0723,-6.0165,-5.9775,-6.076,-6.1651,-6.2283,-6.2766,-6.3175,-6.3397,-6.3546,-6.3602,-6.3602,-6.3602,-6.3602,-6.3602,-6.3602,-6.3602,-6.3602,-6.3583,-6.3212,-6.2283,-6.1466,-6.0667,-5.9868,-5.9144,-5.8809,-5.8754,-5.8716,-5.8698,-5.8698,-5.8772,-5.9051,-6.0611,-6.0797,-6.0815,-6.1614,-6.2822,-6.2896,-6.2896,-6.2896,-6.2859,-6.2896,-6.2859,-6.2283,-6.2041,-6.2041,-6.2041,-6.2283,-6.245,-6.2896,-6.3305,-6.3397,-6.3472,-6.3602,-6.3602,-6.3546,-6.3379,-6.3472,-6.3175,-6.2766,-6.2747,-6.2171,-6.2004,-6.1967,-6.1874,-6.1726,-6.1094,-6.1168,-6.089,-6.0444,-6.024,-5.9868,-5.9218,-5.9107,-5.8865,-5.8791,-5.8698,-5.8698,-5.8698,-5.8698,-5.8698,-5.8698,-5.8698,-5.8698,-5.8698,-5.8698,-5.8698,-5.8772,-5.8995,-5.9348,-5.9589,-5.9738,-5.9422,-5.9664,-5.9608,-5.9571,-5.9608,-5.9961,-6.0277,-6.0388,-6.1038,-6.1558,-6.1614,-6.2246,-6.271,-6.2896,-6.3044,-6.3397,-6.3416,-6.3379,-6.3175,-6.2952,-6.2654,-6.2469,-6.1967,-6.154,-6.1336,-6.0945,-6.1391,-6.2209,-6.2822,-6.3212,-6.3416,-6.3546,-6.3583,-6.3602,-6.3602,-6.3602,-6.3602,-6.3602,-6.3602,-6.3602,-6.3602,-6.3602,-6.3323,-6.2469,-6.1744,-6.1168,-6.063,-6.0072,-5.9404,-5.8791,-5.8809,-5.8902,-5.9199,-5.9367,-5.972,-5.9274,-5.9905,-5.9942,-6.0463,-6.1243,-6.128,-6.1354,-6.1503,-6.1466,-6.1466,-6.1503,-6.128,-6.1206,-6.1224,-6.1224,-6.1577,-6.219,-6.245,-6.2896,-6.3472,-6.3602,-6.3602,-6.3602,-6.3602,-6.3602,-6.3602,-6.3435,-6.3379,-6.3472,-6.3212,-6.3249,-6.3286,-6.3026,-6.2673,-6.1373,-6.1261,-6.1224,-6.1187,-6.1187,-6.0685,-6.0091,-5.9905,-5.9571,-5.9274,-5.8958,-5.8958,-5.8958,-5.8754,-5.8716,-5.8698,-5.8698,-5.8698,-5.8698,-5.8698,-5.8698,-5.8716,-5.9422,-5.9831,-6.0017,-6.0704,-6.0983,-6.0815,-6.0555,-6.0685,-6.0945,-6.115,-6.1168,-6.1224,-6.1911,-6.232,-6.2654,-6.2989,-6.3286,-6.3453,-6.3565,-6.3602,-6.3602,-6.3602,-6.3379,-6.3267,-6.336,-6.3305,-6.2766,-6.2394,-6.2394,-6.2301,-6.2339,-6.2747,-6.3286,-6.3472,-6.3602,-6.3602,-6.3602,-6.3602,-6.3602,-6.3602,-6.3602,-6.3602,-6.3602,-6.3602,-6.3602,-6.3602,-6.3193,-6.258,-6.2171,-6.1726,-6.1428,-6.1113,-6.0351,-5.9608,-5.9218,-5.9255,-5.9608,-6.0017,-6.0388,-5.8846,-5.9125,-5.9107,-5.9274,-5.9701,-6.076,-6.1187,-6.1187,-6.1187,-6.1187,-6.1057,-6.0648,-6.0351,-6.0351,-6.0425,-6.0797,-6.1558,-6.232,-6.284,-6.3509,-6.3583,-6.3602,-6.3602,-6.3602,-6.3602,-6.3602,-6.3602,-6.3602,-6.3583,-6.3602,-6.3602,-6.3602,-6.3583,-6.3323,-6.2952,-6.2766,-6.2636,-6.2116,-6.193,-6.1614,-6.0871,-6.0741,-6.0593,-6.0258,-5.9775,-5.9534,-5.9478,-5.9181,-5.8921,-5.8828,-5.8809,-5.8754,-5.8716,-5.8698,-5.8735,-5.8884,-5.9515,-6.05,-6.1354,-6.2209,-6.219,-6.1707,-6.1354,-6.1373,-6.1243,-6.1763,-6.1911,-6.2134,-6.2673,-6.3026,-6.3323,-6.3379,-6.3546,-6.3546,-6.3602,-6.3602,-6.3602,-6.3602,-6.3527,-6.3509,-6.3565,-6.3546,-6.3212,-6.297,-6.2952,-6.3007,-6.2989,-6.3063,-6.349,-6.3546,-6.3602,-6.3602,-6.3602,-6.3602,-6.3602,-6.3602,-6.3602,-6.3602,-6.3602,-6.3602,-6.3602,-6.3602,-6.349,-6.31,-6.271,-6.232,-6.2097,-6.1781,-6.115,-6.0555,-6.0407,-6.0258,-6.0555,-6.089,-6.115,-5.8698,-5.8698,-5.8698,-5.8698,-5.8865,-5.9887,-6.0351,-6.0333,-6.0351,-6.0351,-6.0184,-5.9701,-5.9497,-5.9497,-5.9571,-5.9942,-6.0797,-6.1614,-6.2413,-6.3156,-6.3527,-6.3565,-6.3602,-6.3602,-6.3602,-6.3602,-6.3602,-6.3602,-6.3602,-6.3602,-6.3602,-6.3602,-6.3602,-6.3527,-6.349,-6.3397,-6.3305,-6.2877,-6.2747,-6.2432,-6.1856,-6.1577,-6.1447,-6.1076,-6.0685,-6.0351,-6.0202,-5.9868,-5.9404,-5.9237,-5.9107,-5.8977,-5.8865,-5.8735,-5.8865,-5.9237,-6.0277,-6.141,-6.2599,-6.3119,-6.2896,-6.232,-6.206,-6.2041,-6.2079,-6.258,-6.2747,-6.2989,-6.336,-6.349,-6.3583,-6.3602,-6.3602,-6.3602,-6.3602,-6.3602,-6.3602,-6.3602,-6.3602,-6.3602,-6.3602,-6.3602,-6.3602,-6.3565,-6.3435,-6.3509,-6.3565,-6.3602,-6.3602,-6.3602,-6.3602,-6.3602,-6.3602,-6.3602,-6.3602,-6.3602,-6.3602,-6.3602,-6.3602,-6.3602,-6.3602,-6.3602,-6.3602,-6.3602,-6.3212,-6.2914,-6.2784,-6.245,-6.2097,-6.2004,-6.206,-6.1893,-6.1707,-6.1744,-6.1911,-5.8698,-5.8698,-5.8698,-5.8698,-5.8716,-5.8865,-5.8828,-5.8772,-5.8772,-5.8828,-5.8772,-5.8865,-5.8846,-5.8772,-5.8754,-5.9255,-5.9998,-6.0853,-6.1707,-6.2469,-6.3119,-6.336,-6.3565,-6.3602,-6.3602,-6.3602,-6.3602,-6.3602,-6.3602,-6.3602,-6.3602,-6.3602,-6.3602,-6.3602,-6.3602,-6.3583,-6.3527,-6.3397,-6.3323,-6.2989,-6.2543,-6.2432,-6.2171,-6.1781,-6.141,-6.1261,-6.1131,-6.0945,-6.0518,-6.0221,-5.9961,-5.9497,-5.9144,-5.8828,-5.9311,-6.0184,-6.1577,-6.2469,-6.3267,-6.3565,-6.3565,-6.3156,-6.3323,-6.3509,-6.3435,-6.3286,-6.3305,-6.336,-6.3546,-6.3565,-6.3602,-6.3602,-6.3602,-6.3602,-6.3602,-6.3602,-6.3602,-6.3602,-6.3602,-6.3602,-6.3602,-6.3602,-6.3602,-6.3602,-6.3602,-6.3602,-6.3602,-6.3602,-6.3602,-6.3602,-6.3602,-6.3602,-6.3602,-6.3602,-6.3602,-6.3602,-6.3602,-6.3602,-6.3602,-6.3602,-6.3602,-6.3602,-6.3602,-6.3602,-6.3602,-6.3453,-6.323,-6.3249,-6.3342,-6.3286,-6.3007,-6.2877,-6.2487,-6.2469,-6.2636,-5.8698,-5.8698,-5.8698,-5.8698,-5.8698,-5.8698,-5.8698,-5.8698,-5.8698,-5.8698,-5.8698,-5.8698,-5.8698,-5.8698,-5.8716,-5.9218,-5.972,-6.0333,-6.128,-6.2004,-6.2562,-6.3082,-6.3397,-6.3527,-6.3583,-6.3602,-6.3602,-6.3602,-6.3602,-6.3602,-6.3602,-6.3602,-6.3602,-6.3602,-6.3602,-6.3602,-6.3602,-6.3602,-6.3602,-6.3416,-6.3249,-6.3156,-6.2914,-6.271,-6.2246,-6.2134,-6.2023,-6.1596,-6.115,-6.0927,-6.0834,-6.0593,-6.0574,-6.0518,-6.0853,-6.1577,-6.2264,-6.2729,-6.3435,-6.3602,-6.3602,-6.3602,-6.3602,-6.3602,-6.3602,-6.3602,-6.3602,-6.3602,-6.3602,-6.3602,-6.3602,-6.3602,-6.3602,-6.3602,-6.3602,-6.3602,-6.3602,-6.3602,-6.3602,-6.3602,-6.3602,-6.3602,-6.3602,-6.3602,-6.3602,-6.3602,-6.3602,-6.3602,-6.3602,-6.3602,-6.3602,-6.3602,-6.3602,-6.3602,-6.3602,-6.3602,-6.3602,-6.3602,-6.3602,-6.3602,-6.3602,-6.3602,-6.3602,-6.3602,-6.3602,-6.3602,-6.3565,-6.3602,-6.3602,-6.3602,-6.3397,-6.3379,-6.3323,-6.3175,-6.3119,-5.8698,-5.8698,-5.8698,-5.8698,-5.8698,-5.8698,-5.8698,-5.8698,-5.8698,-5.8698,-5.8698,-5.8698,-5.8698,-5.8698,-5.8735,-5.8958,-5.9367,-5.985,-6.0518,-6.102,-6.1781,-6.2394,-6.2859,-6.3175,-6.3323,-6.3435,-6.3583,-6.3602,-6.3583,-6.3602,-6.3602,-6.3602,-6.3602,-6.3602,-6.3602,-6.3602,-6.3602,-6.3602,-6.3602,-6.3602,-6.3602,-6.3602,-6.3602,-6.3509,-6.3026,-6.2914,-6.2803,-6.2227,-6.2041,-6.1763,-6.1689,-6.1466,-6.1428,-6.1428,-6.1726,-6.2339,-6.2766,-6.31,-6.3546,-6.3602,-6.3602,-6.3602,-6.3602,-6.3602,-6.3602,-6.3602,-6.3602,-6.3602,-6.3602,-6.3602,-6.3602,-6.3602,-6.3602,-6.3602,-6.3602,-6.3602,-6.3602,-6.3602,-6.3602,-6.3602,-6.3602,-6.3602,-6.3602,-6.3602,-6.3602,-6.3602,-6.3602,-6.3602,-6.3602,-6.3602,-6.3602,-6.3602,-6.3602,-6.3602,-6.3602,-6.3602,-6.3602,-6.3602,-6.3602,-6.3602,-6.3602,-6.3602,-6.3602,-6.3602,-6.3602,-6.3602,-6.3602,-6.3602,-6.3602,-6.3602,-6.3602,-6.3546,-6.349,-6.3472,-6.3453,-5.8698,-5.8698,-5.8698,-5.8698,-5.8698,-5.8698,-5.8698,-5.8698,-5.8698,-5.8698,-5.8698,-5.8698,-5.8698,-5.8698,-5.8716,-5.8716,-5.9032,-5.9422,-5.9794,-5.998,-6.076,-6.1521,-6.2097,-6.2357,-6.2543,-6.31,-6.3305,-6.3026,-6.3379,-6.3397,-6.336,-6.3565,-6.3602,-6.3602,-6.3602,-6.3602,-6.3602,-6.3602,-6.3602,-6.3602,-6.3602,-6.3602,-6.3602,-6.3602,-6.3546,-6.3527,-6.3546,-6.3416,-6.3267,-6.2766,-6.2413,-6.2134,-6.206,-6.2116,-6.2469,-6.2692,-6.3156,-6.3379,-6.3565,-6.3602,-6.3602,-6.3602,-6.3602,-6.3602,-6.3602,-6.3602,-6.3602,-6.3602,-6.3602,-6.3602,-6.3602,-6.3602,-6.3602,-6.3602,-6.3602,-6.3602,-6.3602,-6.3602,-6.3602,-6.3602,-6.3602,-6.3602,-6.3602,-6.3602,-6.3602,-6.3602,-6.3602,-6.3602,-6.3602,-6.3602,-6.3602,-6.3602,-6.3602,-6.3602,-6.3602,-6.3602,-6.3602,-6.3602,-6.3602,-6.3602,-6.3602,-6.3602,-6.3602,-6.3602,-6.3602,-6.3602,-6.3602,-6.3602,-6.3602,-6.3602,-6.3602,-6.3602,-6.3602,-6.3602,-6.3602,-5.8698,-5.8698,-5.8698,-5.8698,-5.8698,-5.8698,-5.8698,-5.8698,-5.8698,-5.8698,-5.8698,-5.8698,-5.8698,-5.8698,-5.8698,-5.8698,-5.8809,-5.9014,-5.9385,-5.9701,-6.0184,-6.0685,-6.1354,-6.1503,-6.167,-6.167,-6.1837,-6.2227,-6.2617,-6.2766,-6.3044,-6.3509,-6.3583,-6.3602,-6.3602,-6.3602,-6.3602,-6.3602,-6.3602,-6.3602,-6.3602,-6.3602,-6.3602,-6.3602,-6.3602,-6.3602,-6.3602,-6.3583,-6.3509,-6.3323,-6.3323,-6.3212,-6.31,-6.323,-6.3286,-6.336,-6.3453,-6.3565,-6.3602,-6.3602,-6.3602,-6.3602,-6.3602,-6.3602,-6.3602,-6.3602,-6.3602,-6.3602,-6.3602,-6.3602,-6.3602,-6.3602,-6.3602,-6.3602,-6.3602,-6.3602,-6.3602,-6.3602,-6.3602,-6.3602,-6.3602,-6.3602,-6.3602,-6.3602,-6.3602,-6.3602,-6.3602,-6.3602,-6.3602,-6.3602,-6.3602,-6.3602,-6.3602,-6.3602,-6.3602,-6.3602,-6.3602,-6.3602,-6.3602,-6.3602,-6.3602,-6.3602,-6.3602,-6.3602,-6.3602,-6.3602,-6.3602,-6.3602,-6.3602,-6.3602,-6.3602,-6.3602,-6.3602,-6.3602,-6.3602,-5.8698,-5.8698,-5.8698,-5.8698,-5.8698,-5.8698,-5.8698,-5.8698,-5.8698,-5.8698,-5.8698,-5.8698,-5.8698,-5.8698,-5.8698,-5.8698,-5.8698,-5.8698,-5.8958,-5.9274,-5.9534,-5.9924,-6.0314,-6.0648,-6.1038,-6.1057,-6.1187,-6.154,-6.1856,-6.2357,-6.2766,-6.3119,-6.3305,-6.3583,-6.3583,-6.3602,-6.3602,-6.3602,-6.3602,-6.3602,-6.3602,-6.3602,-6.3602,-6.3602,-6.3602,-6.3602,-6.3602,-6.3602,-6.3602,-6.3602,-6.3565,-6.3565,-6.3472,-6.3509,-6.3565,-6.3565,-6.3583,-6.3602,-6.3602,-6.3602,-6.3602,-6.3602,-6.3602,-6.3602,-6.3602,-6.3602,-6.3602,-6.3602,-6.3602,-6.3602,-6.3602,-6.3602,-6.3602,-6.3602,-6.3602,-6.3602,-6.3602,-6.3602,-6.3602,-6.3602,-6.3602,-6.3602,-6.3602,-6.3602,-6.3602,-6.3602,-6.3602,-6.3602,-6.3602,-6.3602,-6.3602,-6.3602,-6.3602,-6.3602,-6.3602,-6.3602,-6.3602,-6.3602,-6.3602,-6.3602,-6.3602,-6.3602,-6.3602,-6.3602,-6.3602,-6.3602,-6.3602,-6.3602,-6.3602,-6.3602,-6.3602,-6.3602,-6.3602,-6.3602,-6.3602,-5.8698,-5.8698,-5.8698,-5.8698,-5.8698,-5.8698,-5.8698,-5.8698,-5.8698,-5.8698,-5.8698,-5.8698,-5.8698,-5.8698,-5.8698,-5.8698,-5.8698,-5.8698,-5.8754,-5.8772,-5.8791,-5.9237,-5.9552,-5.9812,-6.0128,-6.0407,-6.0555,-6.076,-6.102,-6.1484,-6.1911,-6.2413,-6.297,-6.349,-6.3565,-6.3602,-6.3602,-6.3602,-6.3602,-6.3602,-6.3602,-6.3602,-6.3602,-6.3602,-6.3602,-6.3602,-6.3602,-6.3602,-6.3602,-6.3602,-6.3602,-6.3602,-6.3602,-6.3602,-6.3602,-6.3602,-6.3602,-6.3602,-6.3602,-6.3602,-6.3602,-6.3602,-6.3602,-6.3602,-6.3602,-6.3602,-6.3602,-6.3602,-6.3602,-6.3602,-6.3602,-6.3602,-6.3602,-6.3602,-6.3602,-6.3602,-6.3602,-6.3602,-6.3602,-6.3602,-6.3602,-6.3602,-6.3602,-6.3602,-6.3602,-6.3602,-6.3602,-6.3602,-6.3602,-6.3602,-6.3602,-6.3602,-6.3602,-6.3602,-6.3602,-6.3602,-6.3602,-6.3602,-6.3602,-6.3602,-6.3602,-6.3602,-6.3602,-6.3602,-6.3602,-6.3602,-6.3602,-6.3602,-6.3602,-6.3602,-6.3602,-6.3602,-6.3602,-6.3602,-6.3602,-5.8698,-5.8698,-5.8698,-5.8698,-5.8698,-5.8698,-5.8698,-5.8698,-5.8698,-5.8698,-5.8698,-5.8698,-5.8698,-5.8698,-5.8698,-5.8698,-5.8698,-5.8698,-5.8698,-5.8698,-5.8698,-5.8828,-5.8958,-5.9181,-5.9088,-5.9292,-5.9515,-5.9627,-6.0147,-6.0444,-6.1113,-6.219,-6.2432,-6.297,-6.3546,-6.3583,-6.3602,-6.3602,-6.3602,-6.3602,-6.3602,-6.3602,-6.3602,-6.3602,-6.3602,-6.3602,-6.3602,-6.3602,-6.3602,-6.3602,-6.3602,-6.3602,-6.3602,-6.3602,-6.3602,-6.3602,-6.3602,-6.3602,-6.3602,-6.3602,-6.3602,-6.3602,-6.3602,-6.3602,-6.3602,-6.3602,-6.3602,-6.3602,-6.3602,-6.3602,-6.3602,-6.3602,-6.3602,-6.3602,-6.3602,-6.3602,-6.3602,-6.3602,-6.3602,-6.3602,-6.3602,-6.3602,-6.3602,-6.3602,-6.3602,-6.3602,-6.3602,-6.3602,-6.3602,-6.3602,-6.3602,-6.3602,-6.3602,-6.3602,-6.3602,-6.3602,-6.3602,-6.3602,-6.3602,-6.3602,-6.3602,-6.3602,-6.3602,-6.3602,-6.3602,-6.3602,-6.3602,-6.3602,-6.3602,-6.3602,-6.3602,-6.3602,-6.3602,-6.3602,-6.3602]}]]